<?xml version="1.0" encoding="UTF-8" standalone="no" ?>
<gpx xmlns="http://www.topografix.com/GPX/1/1" xmlns:xsi="http://www.w3.org/2001/XMLSchema-instance" xsi:schemaLocation="http://www.topografix.com/GPX/1/1 http://www.topografix.com/GPX/1/1/gpx.xsd" version="1.1" creator="VisuGPX - https://www.visugpx.com">
  <metadata>
    <name>Sarras</name>
    <desc><![CDATA[Chrono du Gamay]]></desc>
  </metadata>
  <trk>
    <name><![CDATA[Sarras]]></name>
    <trkseg>
      <trkpt lat="45.11569" lon="4.96441">
        <ele>202.00100708008</ele>
        <time>2010-10-16T11:17:19Z</time>
      </trkpt>
      <trkpt lat="45.11566" lon="4.96442">
        <ele>202.06599426269</ele>
        <time>2010-10-16T11:17:26Z</time>
      </trkpt>
      <trkpt lat="45.11564" lon="4.96441">
        <ele>202.03199768066</ele>
        <time>2010-10-16T11:17:36Z</time>
      </trkpt>
      <trkpt lat="45.11559" lon="4.96447">
        <ele>201.55400085449</ele>
        <time>2010-10-16T11:17:44Z</time>
      </trkpt>
      <trkpt lat="45.11555" lon="4.96464">
        <ele>200.72700500488</ele>
        <time>2010-10-16T11:17:48Z</time>
      </trkpt>
      <trkpt lat="45.11563" lon="4.96471">
        <ele>200.78799438477</ele>
        <time>2010-10-16T11:17:52Z</time>
      </trkpt>
      <trkpt lat="45.11569" lon="4.96467">
        <ele>201.55499267578</ele>
        <time>2010-10-16T11:17:57Z</time>
      </trkpt>
      <trkpt lat="45.1157" lon="4.96467">
        <ele>201.56399536133</ele>
        <time>2010-10-16T11:17:58Z</time>
      </trkpt>
      <trkpt lat="45.11573" lon="4.96484">
        <ele>201.35000610352</ele>
        <time>2010-10-16T11:18:05Z</time>
      </trkpt>
      <trkpt lat="45.11573" lon="4.96503">
        <ele>200.69099426269</ele>
        <time>2010-10-16T11:18:09Z</time>
      </trkpt>
      <trkpt lat="45.11573" lon="4.96514">
        <ele>200.69700622559</ele>
        <time>2010-10-16T11:18:13Z</time>
      </trkpt>
      <trkpt lat="45.11573" lon="4.96523">
        <ele>199.6369934082</ele>
        <time>2010-10-16T11:18:15Z</time>
      </trkpt>
      <trkpt lat="45.11575" lon="4.96534">
        <ele>198.94700622559</ele>
        <time>2010-10-16T11:18:17Z</time>
      </trkpt>
      <trkpt lat="45.11592" lon="4.96577">
        <ele>198.86099243164</ele>
        <time>2010-10-16T11:18:24Z</time>
      </trkpt>
      <trkpt lat="45.1162" lon="4.96645">
        <ele>199.15299987793</ele>
        <time>2010-10-16T11:18:34Z</time>
      </trkpt>
      <trkpt lat="45.11645" lon="4.96708">
        <ele>200.14399719238</ele>
        <time>2010-10-16T11:18:43Z</time>
      </trkpt>
      <trkpt lat="45.11671" lon="4.9678">
        <ele>201.06500244141</ele>
        <time>2010-10-16T11:18:53Z</time>
      </trkpt>
      <trkpt lat="45.11714" lon="4.96838">
        <ele>200.89500427246</ele>
        <time>2010-10-16T11:19:04Z</time>
      </trkpt>
      <trkpt lat="45.11723" lon="4.96856">
        <ele>201.00700378418</ele>
        <time>2010-10-16T11:19:07Z</time>
      </trkpt>
      <trkpt lat="45.11725" lon="4.96864">
        <ele>201.11199951172</ele>
        <time>2010-10-16T11:19:08Z</time>
      </trkpt>
      <trkpt lat="45.11736" lon="4.96881">
        <ele>201.57899475098</ele>
        <time>2010-10-16T11:19:11Z</time>
      </trkpt>
      <trkpt lat="45.1174" lon="4.96885">
        <ele>201.62800598144</ele>
        <time>2010-10-16T11:19:12Z</time>
      </trkpt>
      <trkpt lat="45.11768" lon="4.96913">
        <ele>202.01100158691</ele>
        <time>2010-10-16T11:19:18Z</time>
      </trkpt>
      <trkpt lat="45.11779" lon="4.96931">
        <ele>202.46099853516</ele>
        <time>2010-10-16T11:19:21Z</time>
      </trkpt>
      <trkpt lat="45.11783" lon="4.96937">
        <ele>202.52699279785</ele>
        <time>2010-10-16T11:19:22Z</time>
      </trkpt>
      <trkpt lat="45.11828" lon="4.97001">
        <ele>202.29699707031</ele>
        <time>2010-10-16T11:19:33Z</time>
      </trkpt>
      <trkpt lat="45.11855" lon="4.97036">
        <ele>202.76699829102</ele>
        <time>2010-10-16T11:19:39Z</time>
      </trkpt>
      <trkpt lat="45.11869" lon="4.97053">
        <ele>202.84700012207</ele>
        <time>2010-10-16T11:19:42Z</time>
      </trkpt>
      <trkpt lat="45.11877" lon="4.97086">
        <ele>202.90400695801</ele>
        <time>2010-10-16T11:19:46Z</time>
      </trkpt>
      <trkpt lat="45.11875" lon="4.97114">
        <ele>202.19799804688</ele>
        <time>2010-10-16T11:19:49Z</time>
      </trkpt>
      <trkpt lat="45.11872" lon="4.97166">
        <ele>201.0059967041</ele>
        <time>2010-10-16T11:19:54Z</time>
      </trkpt>
      <trkpt lat="45.1188" lon="4.97207">
        <ele>200.4940032959</ele>
        <time>2010-10-16T11:19:58Z</time>
      </trkpt>
      <trkpt lat="45.11901" lon="4.97327">
        <ele>200.37399291992</ele>
        <time>2010-10-16T11:20:09Z</time>
      </trkpt>
      <trkpt lat="45.11903" lon="4.97336">
        <ele>200.50100708008</ele>
        <time>2010-10-16T11:20:10Z</time>
      </trkpt>
      <trkpt lat="45.11915" lon="4.97403">
        <ele>200.32899475098</ele>
        <time>2010-10-16T11:20:16Z</time>
      </trkpt>
      <trkpt lat="45.11925" lon="4.97462">
        <ele>201.05700683594</ele>
        <time>2010-10-16T11:20:21Z</time>
      </trkpt>
      <trkpt lat="45.11938" lon="4.9754">
        <ele>201.45300292969</ele>
        <time>2010-10-16T11:20:28Z</time>
      </trkpt>
      <trkpt lat="45.11952" lon="4.97623">
        <ele>202.5059967041</ele>
        <time>2010-10-16T11:20:36Z</time>
      </trkpt>
      <trkpt lat="45.11967" lon="4.97706">
        <ele>202.26899719238</ele>
        <time>2010-10-16T11:20:44Z</time>
      </trkpt>
      <trkpt lat="45.11985" lon="4.97809">
        <ele>202.70399475098</ele>
        <time>2010-10-16T11:20:54Z</time>
      </trkpt>
      <trkpt lat="45.12" lon="4.97895">
        <ele>203.57800292969</ele>
        <time>2010-10-16T11:21:03Z</time>
      </trkpt>
      <trkpt lat="45.12006" lon="4.97928">
        <ele>204.53100585938</ele>
        <time>2010-10-16T11:21:07Z</time>
      </trkpt>
      <trkpt lat="45.11999" lon="4.97941">
        <ele>204.73199462891</ele>
        <time>2010-10-16T11:21:10Z</time>
      </trkpt>
      <trkpt lat="45.11984" lon="4.97937">
        <ele>204.37100219727</ele>
        <time>2010-10-16T11:21:13Z</time>
      </trkpt>
      <trkpt lat="45.11941" lon="4.97929">
        <ele>203.36500549316</ele>
        <time>2010-10-16T11:21:20Z</time>
      </trkpt>
      <trkpt lat="45.11906" lon="4.97926">
        <ele>203.90800476074</ele>
        <time>2010-10-16T11:21:26Z</time>
      </trkpt>
      <trkpt lat="45.11896" lon="4.97914">
        <ele>204.10499572754</ele>
        <time>2010-10-16T11:21:30Z</time>
      </trkpt>
      <trkpt lat="45.11894" lon="4.97902">
        <ele>203.94799804688</ele>
        <time>2010-10-16T11:21:33Z</time>
      </trkpt>
      <trkpt lat="45.11891" lon="4.97898">
        <ele>203.79800415039</ele>
        <time>2010-10-16T11:21:37Z</time>
      </trkpt>
      <trkpt lat="45.11894" lon="4.97904">
        <ele>203.32499694824</ele>
        <time>2010-10-16T11:21:58Z</time>
      </trkpt>
      <trkpt lat="45.11895" lon="4.97905">
        <ele>203.40600585938</ele>
        <time>2010-10-16T11:21:59Z</time>
      </trkpt>
      <trkpt lat="45.11895" lon="4.97912">
        <ele>203.41400146484</ele>
        <time>2010-10-16T11:22:02Z</time>
      </trkpt>
      <trkpt lat="45.11888" lon="4.97919">
        <ele>203.49200439453</ele>
        <time>2010-10-16T11:22:06Z</time>
      </trkpt>
      <trkpt lat="45.1186" lon="4.97917">
        <ele>203.32000732422</ele>
        <time>2010-10-16T11:22:12Z</time>
      </trkpt>
      <trkpt lat="45.11834" lon="4.97915">
        <ele>203.07000732422</ele>
        <time>2010-10-16T11:22:17Z</time>
      </trkpt>
      <trkpt lat="45.11827" lon="4.97921">
        <ele>203.19900512695</ele>
        <time>2010-10-16T11:22:19Z</time>
      </trkpt>
      <trkpt lat="45.11829" lon="4.97932">
        <ele>202.96499633789</ele>
        <time>2010-10-16T11:22:21Z</time>
      </trkpt>
      <trkpt lat="45.11845" lon="4.97963">
        <ele>203.02900695801</ele>
        <time>2010-10-16T11:22:26Z</time>
      </trkpt>
      <trkpt lat="45.11875" lon="4.98028">
        <ele>203.01899719238</ele>
        <time>2010-10-16T11:22:35Z</time>
      </trkpt>
      <trkpt lat="45.11894" lon="4.98075">
        <ele>203.63000488281</ele>
        <time>2010-10-16T11:22:41Z</time>
      </trkpt>
      <trkpt lat="45.11897" lon="4.98083">
        <ele>203.63499450684</ele>
        <time>2010-10-16T11:22:42Z</time>
      </trkpt>
      <trkpt lat="45.11904" lon="4.98107">
        <ele>203.65699768066</ele>
        <time>2010-10-16T11:22:45Z</time>
      </trkpt>
      <trkpt lat="45.11908" lon="4.98138">
        <ele>204.28700256348</ele>
        <time>2010-10-16T11:22:49Z</time>
      </trkpt>
      <trkpt lat="45.11909" lon="4.98162">
        <ele>204.47399902344</ele>
        <time>2010-10-16T11:22:52Z</time>
      </trkpt>
      <trkpt lat="45.11911" lon="4.98185">
        <ele>205.81100463867</ele>
        <time>2010-10-16T11:22:55Z</time>
      </trkpt>
      <trkpt lat="45.11913" lon="4.98208">
        <ele>206.00199890137</ele>
        <time>2010-10-16T11:22:58Z</time>
      </trkpt>
      <trkpt lat="45.11916" lon="4.98254">
        <ele>205.87399291992</ele>
        <time>2010-10-16T11:23:04Z</time>
      </trkpt>
      <trkpt lat="45.11916" lon="4.98273">
        <ele>205.87899780273</ele>
        <time>2010-10-16T11:23:08Z</time>
      </trkpt>
      <trkpt lat="45.11916" lon="4.9828">
        <ele>205.98100280762</ele>
        <time>2010-10-16T11:23:12Z</time>
      </trkpt>
      <trkpt lat="45.11924" lon="4.98292">
        <ele>205.32899475098</ele>
        <time>2010-10-16T11:23:16Z</time>
      </trkpt>
      <trkpt lat="45.11928" lon="4.98301">
        <ele>205.39599609375</ele>
        <time>2010-10-16T11:23:18Z</time>
      </trkpt>
      <trkpt lat="45.11931" lon="4.98314">
        <ele>205.32800292969</ele>
        <time>2010-10-16T11:23:20Z</time>
      </trkpt>
      <trkpt lat="45.11935" lon="4.9834">
        <ele>205.31900024414</ele>
        <time>2010-10-16T11:23:24Z</time>
      </trkpt>
      <trkpt lat="45.11948" lon="4.98368">
        <ele>205.57600402832</ele>
        <time>2010-10-16T11:23:29Z</time>
      </trkpt>
      <trkpt lat="45.11967" lon="4.98385">
        <ele>205.89999389648</ele>
        <time>2010-10-16T11:23:34Z</time>
      </trkpt>
      <trkpt lat="45.11974" lon="4.98401">
        <ele>205.87199401856</ele>
        <time>2010-10-16T11:23:37Z</time>
      </trkpt>
      <trkpt lat="45.11972" lon="4.9842">
        <ele>206.26699829102</ele>
        <time>2010-10-16T11:23:40Z</time>
      </trkpt>
      <trkpt lat="45.11979" lon="4.98431">
        <ele>206.64700317383</ele>
        <time>2010-10-16T11:23:43Z</time>
      </trkpt>
      <trkpt lat="45.11976" lon="4.98439">
        <ele>207.08099365234</ele>
        <time>2010-10-16T11:23:46Z</time>
      </trkpt>
      <trkpt lat="45.11976" lon="4.9844">
        <ele>206.17399597168</ele>
        <time>2010-10-16T11:23:48Z</time>
      </trkpt>
      <trkpt lat="45.11978" lon="4.98437">
        <ele>206.55999755859</ele>
        <time>2010-10-16T11:23:53Z</time>
      </trkpt>
      <trkpt lat="45.11979" lon="4.98437">
        <ele>207.02499389648</ele>
        <time>2010-10-16T11:23:55Z</time>
      </trkpt>
      <trkpt lat="45.11977" lon="4.98436">
        <ele>206.94900512695</ele>
        <time>2010-10-16T11:24:01Z</time>
      </trkpt>
      <trkpt lat="45.11977" lon="4.98437">
        <ele>206.92700195312</ele>
        <time>2010-10-16T11:24:02Z</time>
      </trkpt>
      <trkpt lat="45.11976" lon="4.98438">
        <ele>207.05799865723</ele>
        <time>2010-10-16T11:24:05Z</time>
      </trkpt>
      <trkpt lat="45.11973" lon="4.98436">
        <ele>203.70599365234</ele>
        <time>2010-10-16T11:30:59Z</time>
      </trkpt>
      <trkpt lat="45.1197" lon="4.98439">
        <ele>203.6609954834</ele>
        <time>2010-10-16T11:31:03Z</time>
      </trkpt>
      <trkpt lat="45.11971" lon="4.98439">
        <ele>203.65199279785</ele>
        <time>2010-10-16T11:31:04Z</time>
      </trkpt>
      <trkpt lat="45.11974" lon="4.98431">
        <ele>203.40100097656</ele>
        <time>2010-10-16T11:32:57Z</time>
      </trkpt>
      <trkpt lat="45.11975" lon="4.98432">
        <ele>203.47599792481</ele>
        <time>2010-10-16T11:33:00Z</time>
      </trkpt>
      <trkpt lat="45.11976" lon="4.98438">
        <ele>202.55299377441</ele>
        <time>2010-10-16T11:38:01Z</time>
      </trkpt>
      <trkpt lat="45.11976" lon="4.98438">
        <ele>202.53799438477</ele>
        <time>2010-10-16T11:38:02Z</time>
      </trkpt>
      <trkpt lat="45.11975" lon="4.98432">
        <ele>202.59599304199</ele>
        <time>2010-10-16T11:38:18Z</time>
      </trkpt>
      <trkpt lat="45.11975" lon="4.98425">
        <ele>202.44099426269</ele>
        <time>2010-10-16T11:38:24Z</time>
      </trkpt>
      <trkpt lat="45.11975" lon="4.98422">
        <ele>202.42300415039</ele>
        <time>2010-10-16T11:38:25Z</time>
      </trkpt>
      <trkpt lat="45.1198" lon="4.98415">
        <ele>202.38600158691</ele>
        <time>2010-10-16T11:38:29Z</time>
      </trkpt>
      <trkpt lat="45.11982" lon="4.98397">
        <ele>202.21099853516</ele>
        <time>2010-10-16T11:38:35Z</time>
      </trkpt>
      <trkpt lat="45.11991" lon="4.9839">
        <ele>201.93200683594</ele>
        <time>2010-10-16T11:38:38Z</time>
      </trkpt>
      <trkpt lat="45.12006" lon="4.98397">
        <ele>201.87600708008</ele>
        <time>2010-10-16T11:38:42Z</time>
      </trkpt>
      <trkpt lat="45.12024" lon="4.98408">
        <ele>203.40699768066</ele>
        <time>2010-10-16T11:38:49Z</time>
      </trkpt>
      <trkpt lat="45.12029" lon="4.98415">
        <ele>203.66700744629</ele>
        <time>2010-10-16T11:38:54Z</time>
      </trkpt>
      <trkpt lat="45.12037" lon="4.9843">
        <ele>203.47500610352</ele>
        <time>2010-10-16T11:38:58Z</time>
      </trkpt>
      <trkpt lat="45.12052" lon="4.98427">
        <ele>203.40600585938</ele>
        <time>2010-10-16T11:39:02Z</time>
      </trkpt>
      <trkpt lat="45.12057" lon="4.9841">
        <ele>203.45100402832</ele>
        <time>2010-10-16T11:39:05Z</time>
      </trkpt>
      <trkpt lat="45.12056" lon="4.98398">
        <ele>203.50399780273</ele>
        <time>2010-10-16T11:39:07Z</time>
      </trkpt>
      <trkpt lat="45.12055" lon="4.98385">
        <ele>203.45700073242</ele>
        <time>2010-10-16T11:39:09Z</time>
      </trkpt>
      <trkpt lat="45.12059" lon="4.9835">
        <ele>202.96200561523</ele>
        <time>2010-10-16T11:39:14Z</time>
      </trkpt>
      <trkpt lat="45.1207" lon="4.98281">
        <ele>201.67700195312</ele>
        <time>2010-10-16T11:39:22Z</time>
      </trkpt>
      <trkpt lat="45.12075" lon="4.98218">
        <ele>201.71200561523</ele>
        <time>2010-10-16T11:39:29Z</time>
      </trkpt>
      <trkpt lat="45.12072" lon="4.98158">
        <ele>201.33200073242</ele>
        <time>2010-10-16T11:39:36Z</time>
      </trkpt>
      <trkpt lat="45.12062" lon="4.98095">
        <ele>200.625</ele>
        <time>2010-10-16T11:39:43Z</time>
      </trkpt>
      <trkpt lat="45.12041" lon="4.98015">
        <ele>199.79400634766</ele>
        <time>2010-10-16T11:39:52Z</time>
      </trkpt>
      <trkpt lat="45.12025" lon="4.97957">
        <ele>199.42399597168</ele>
        <time>2010-10-16T11:39:59Z</time>
      </trkpt>
      <trkpt lat="45.12009" lon="4.97878">
        <ele>198.55499267578</ele>
        <time>2010-10-16T11:40:08Z</time>
      </trkpt>
      <trkpt lat="45.11995" lon="4.97803">
        <ele>197.74600219727</ele>
        <time>2010-10-16T11:40:16Z</time>
      </trkpt>
      <trkpt lat="45.1198" lon="4.97716">
        <ele>197.32200622559</ele>
        <time>2010-10-16T11:40:25Z</time>
      </trkpt>
      <trkpt lat="45.11965" lon="4.9763">
        <ele>196.92999267578</ele>
        <time>2010-10-16T11:40:34Z</time>
      </trkpt>
      <trkpt lat="45.1196" lon="4.97596">
        <ele>197.08299255371</ele>
        <time>2010-10-16T11:40:38Z</time>
      </trkpt>
      <trkpt lat="45.11948" lon="4.97529">
        <ele>196.28399658203</ele>
        <time>2010-10-16T11:40:46Z</time>
      </trkpt>
      <trkpt lat="45.11932" lon="4.97436">
        <ele>195.14999389648</ele>
        <time>2010-10-16T11:40:56Z</time>
      </trkpt>
      <trkpt lat="45.11917" lon="4.97354">
        <ele>194.44900512695</ele>
        <time>2010-10-16T11:41:05Z</time>
      </trkpt>
      <trkpt lat="45.119" lon="4.97251">
        <ele>194.5359954834</ele>
        <time>2010-10-16T11:41:16Z</time>
      </trkpt>
      <trkpt lat="45.11888" lon="4.97182">
        <ele>194.7859954834</ele>
        <time>2010-10-16T11:41:24Z</time>
      </trkpt>
      <trkpt lat="45.11882" lon="4.97148">
        <ele>195.28199768066</ele>
        <time>2010-10-16T11:41:28Z</time>
      </trkpt>
      <trkpt lat="45.11889" lon="4.97104">
        <ele>195.61599731445</ele>
        <time>2010-10-16T11:41:34Z</time>
      </trkpt>
      <trkpt lat="45.11903" lon="4.97082">
        <ele>196.39900207519</ele>
        <time>2010-10-16T11:41:38Z</time>
      </trkpt>
      <trkpt lat="45.11904" lon="4.97061">
        <ele>196.91000366211</ele>
        <time>2010-10-16T11:41:41Z</time>
      </trkpt>
      <trkpt lat="45.11895" lon="4.97052">
        <ele>196.71699523926</ele>
        <time>2010-10-16T11:41:43Z</time>
      </trkpt>
      <trkpt lat="45.11861" lon="4.97017">
        <ele>196.61500549316</ele>
        <time>2010-10-16T11:41:51Z</time>
      </trkpt>
      <trkpt lat="45.11824" lon="4.96967">
        <ele>196.24099731445</ele>
        <time>2010-10-16T11:42:00Z</time>
      </trkpt>
      <trkpt lat="45.1179" lon="4.96915">
        <ele>196.06799316406</ele>
        <time>2010-10-16T11:42:08Z</time>
      </trkpt>
      <trkpt lat="45.11772" lon="4.96885">
        <ele>196.08999633789</ele>
        <time>2010-10-16T11:42:13Z</time>
      </trkpt>
      <trkpt lat="45.11766" lon="4.96857">
        <ele>195.74499511719</ele>
        <time>2010-10-16T11:42:17Z</time>
      </trkpt>
      <trkpt lat="45.11757" lon="4.96823">
        <ele>195.67700195312</ele>
        <time>2010-10-16T11:42:22Z</time>
      </trkpt>
      <trkpt lat="45.11752" lon="4.9682">
        <ele>195.76600646973</ele>
        <time>2010-10-16T11:42:23Z</time>
      </trkpt>
      <trkpt lat="45.11719" lon="4.96798">
        <ele>195.53900146484</ele>
        <time>2010-10-16T11:42:29Z</time>
      </trkpt>
      <trkpt lat="45.11687" lon="4.96747">
        <ele>194.56500244141</ele>
        <time>2010-10-16T11:42:36Z</time>
      </trkpt>
      <trkpt lat="45.11659" lon="4.96688">
        <ele>193.76899719238</ele>
        <time>2010-10-16T11:42:43Z</time>
      </trkpt>
      <trkpt lat="45.11622" lon="4.96595">
        <ele>193.12199401856</ele>
        <time>2010-10-16T11:42:53Z</time>
      </trkpt>
      <trkpt lat="45.1158" lon="4.96492">
        <ele>193.32800292969</ele>
        <time>2010-10-16T11:43:04Z</time>
      </trkpt>
      <trkpt lat="45.1156" lon="4.96457">
        <ele>193.38400268555</ele>
        <time>2010-10-16T11:43:08Z</time>
      </trkpt>
      <trkpt lat="45.1154" lon="4.96425">
        <ele>193.80999755859</ele>
        <time>2010-10-16T11:43:12Z</time>
      </trkpt>
      <trkpt lat="45.11485" lon="4.9634">
        <ele>194.19500732422</ele>
        <time>2010-10-16T11:43:23Z</time>
      </trkpt>
      <trkpt lat="45.11475" lon="4.96325">
        <ele>194.89999389648</ele>
        <time>2010-10-16T11:43:25Z</time>
      </trkpt>
      <trkpt lat="45.11465" lon="4.9631">
        <ele>195.17100524902</ele>
        <time>2010-10-16T11:43:27Z</time>
      </trkpt>
      <trkpt lat="45.11451" lon="4.96288">
        <ele>195.52699279785</ele>
        <time>2010-10-16T11:43:30Z</time>
      </trkpt>
      <trkpt lat="45.11443" lon="4.96272">
        <ele>195.93499755859</ele>
        <time>2010-10-16T11:43:32Z</time>
      </trkpt>
      <trkpt lat="45.11438" lon="4.96265">
        <ele>196.11500549316</ele>
        <time>2010-10-16T11:43:33Z</time>
      </trkpt>
      <trkpt lat="45.11398" lon="4.96186">
        <ele>195.95899963379</ele>
        <time>2010-10-16T11:43:43Z</time>
      </trkpt>
      <trkpt lat="45.11368" lon="4.96123">
        <ele>195.21299743652</ele>
        <time>2010-10-16T11:43:51Z</time>
      </trkpt>
      <trkpt lat="45.11333" lon="4.9606">
        <ele>194.38600158691</ele>
        <time>2010-10-16T11:43:59Z</time>
      </trkpt>
      <trkpt lat="45.11293" lon="4.9599">
        <ele>193.51600646973</ele>
        <time>2010-10-16T11:44:08Z</time>
      </trkpt>
      <trkpt lat="45.11254" lon="4.95924">
        <ele>192.5</ele>
        <time>2010-10-16T11:44:16Z</time>
      </trkpt>
      <trkpt lat="45.11233" lon="4.95891">
        <ele>191.93299865723</ele>
        <time>2010-10-16T11:44:20Z</time>
      </trkpt>
      <trkpt lat="45.11184" lon="4.95822">
        <ele>191.49200439453</ele>
        <time>2010-10-16T11:44:29Z</time>
      </trkpt>
      <trkpt lat="45.11155" lon="4.95777">
        <ele>191.33299255371</ele>
        <time>2010-10-16T11:44:35Z</time>
      </trkpt>
      <trkpt lat="45.11122" lon="4.95711">
        <ele>191.99099731445</ele>
        <time>2010-10-16T11:44:43Z</time>
      </trkpt>
      <trkpt lat="45.111" lon="4.95676">
        <ele>192.21600341797</ele>
        <time>2010-10-16T11:44:48Z</time>
      </trkpt>
      <trkpt lat="45.11077" lon="4.95653">
        <ele>192.62199401856</ele>
        <time>2010-10-16T11:44:52Z</time>
      </trkpt>
      <trkpt lat="45.11059" lon="4.95636">
        <ele>192.65199279785</ele>
        <time>2010-10-16T11:44:55Z</time>
      </trkpt>
      <trkpt lat="45.11047" lon="4.95624">
        <ele>192.66799926758</ele>
        <time>2010-10-16T11:44:57Z</time>
      </trkpt>
      <trkpt lat="45.11042" lon="4.95618">
        <ele>192.49899291992</ele>
        <time>2010-10-16T11:44:58Z</time>
      </trkpt>
      <trkpt lat="45.11004" lon="4.95568">
        <ele>192.05400085449</ele>
        <time>2010-10-16T11:45:05Z</time>
      </trkpt>
      <trkpt lat="45.10976" lon="4.95516">
        <ele>191.09800720215</ele>
        <time>2010-10-16T11:45:11Z</time>
      </trkpt>
      <trkpt lat="45.10953" lon="4.95444">
        <ele>190.11799621582</ele>
        <time>2010-10-16T11:45:18Z</time>
      </trkpt>
      <trkpt lat="45.10932" lon="4.95356">
        <ele>189.43499755859</ele>
        <time>2010-10-16T11:45:26Z</time>
      </trkpt>
      <trkpt lat="45.10909" lon="4.95289">
        <ele>189.43699645996</ele>
        <time>2010-10-16T11:45:33Z</time>
      </trkpt>
      <trkpt lat="45.1088" lon="4.95207">
        <ele>190.71499633789</ele>
        <time>2010-10-16T11:45:42Z</time>
      </trkpt>
      <trkpt lat="45.10861" lon="4.9515">
        <ele>192.6369934082</ele>
        <time>2010-10-16T11:45:49Z</time>
      </trkpt>
      <trkpt lat="45.10851" lon="4.95095">
        <ele>194.75999450684</ele>
        <time>2010-10-16T11:45:56Z</time>
      </trkpt>
      <trkpt lat="45.1085" lon="4.95044">
        <ele>197.71099853516</ele>
        <time>2010-10-16T11:46:03Z</time>
      </trkpt>
      <trkpt lat="45.10852" lon="4.94995">
        <ele>200.00900268555</ele>
        <time>2010-10-16T11:46:10Z</time>
      </trkpt>
      <trkpt lat="45.10855" lon="4.94946">
        <ele>202.86199951172</ele>
        <time>2010-10-16T11:46:17Z</time>
      </trkpt>
      <trkpt lat="45.10855" lon="4.9494">
        <ele>203.27200317383</ele>
        <time>2010-10-16T11:46:18Z</time>
      </trkpt>
      <trkpt lat="45.10859" lon="4.94888">
        <ele>205.74899291992</ele>
        <time>2010-10-16T11:46:26Z</time>
      </trkpt>
      <trkpt lat="45.10862" lon="4.94854">
        <ele>207.63900756836</ele>
        <time>2010-10-16T11:46:32Z</time>
      </trkpt>
      <trkpt lat="45.10872" lon="4.94827">
        <ele>208.35000610352</ele>
        <time>2010-10-16T11:46:38Z</time>
      </trkpt>
      <trkpt lat="45.10873" lon="4.94809">
        <ele>208.7559967041</ele>
        <time>2010-10-16T11:46:41Z</time>
      </trkpt>
      <trkpt lat="45.10875" lon="4.94796">
        <ele>208.70599365234</ele>
        <time>2010-10-16T11:46:43Z</time>
      </trkpt>
      <trkpt lat="45.10886" lon="4.94755">
        <ele>208.68299865723</ele>
        <time>2010-10-16T11:46:50Z</time>
      </trkpt>
      <trkpt lat="45.10905" lon="4.94691">
        <ele>208.73100280762</ele>
        <time>2010-10-16T11:47:00Z</time>
      </trkpt>
      <trkpt lat="45.1092" lon="4.94635">
        <ele>208.52099609375</ele>
        <time>2010-10-16T11:47:08Z</time>
      </trkpt>
      <trkpt lat="45.10924" lon="4.9462">
        <ele>208.40199279785</ele>
        <time>2010-10-16T11:47:10Z</time>
      </trkpt>
      <trkpt lat="45.10925" lon="4.94612">
        <ele>208.25100708008</ele>
        <time>2010-10-16T11:47:11Z</time>
      </trkpt>
      <trkpt lat="45.10931" lon="4.94557">
        <ele>208.14199829102</ele>
        <time>2010-10-16T11:47:18Z</time>
      </trkpt>
      <trkpt lat="45.10929" lon="4.94482">
        <ele>207.56599426269</ele>
        <time>2010-10-16T11:47:27Z</time>
      </trkpt>
      <trkpt lat="45.10925" lon="4.94396">
        <ele>208.07400512695</ele>
        <time>2010-10-16T11:47:37Z</time>
      </trkpt>
      <trkpt lat="45.1092" lon="4.94335">
        <ele>208.06900024414</ele>
        <time>2010-10-16T11:47:44Z</time>
      </trkpt>
      <trkpt lat="45.10906" lon="4.94295">
        <ele>208.23399353027</ele>
        <time>2010-10-16T11:47:49Z</time>
      </trkpt>
      <trkpt lat="45.10896" lon="4.94281">
        <ele>208.02099609375</ele>
        <time>2010-10-16T11:47:51Z</time>
      </trkpt>
      <trkpt lat="45.10841" lon="4.94216">
        <ele>206.62399291992</ele>
        <time>2010-10-16T11:48:01Z</time>
      </trkpt>
      <trkpt lat="45.108" lon="4.9417">
        <ele>206.3869934082</ele>
        <time>2010-10-16T11:48:08Z</time>
      </trkpt>
      <trkpt lat="45.10759" lon="4.94114">
        <ele>207.20599365234</ele>
        <time>2010-10-16T11:48:16Z</time>
      </trkpt>
      <trkpt lat="45.10746" lon="4.94092">
        <ele>207.59300231934</ele>
        <time>2010-10-16T11:48:19Z</time>
      </trkpt>
      <trkpt lat="45.10721" lon="4.94036">
        <ele>208.51899719238</ele>
        <time>2010-10-16T11:48:26Z</time>
      </trkpt>
      <trkpt lat="45.10704" lon="4.93976">
        <ele>209.64599609375</ele>
        <time>2010-10-16T11:48:33Z</time>
      </trkpt>
      <trkpt lat="45.10691" lon="4.93904">
        <ele>210.2619934082</ele>
        <time>2010-10-16T11:48:41Z</time>
      </trkpt>
      <trkpt lat="45.10679" lon="4.93799">
        <ele>209.57800292969</ele>
        <time>2010-10-16T11:48:52Z</time>
      </trkpt>
      <trkpt lat="45.10674" lon="4.93747">
        <ele>208.46800231934</ele>
        <time>2010-10-16T11:48:57Z</time>
      </trkpt>
      <trkpt lat="45.10667" lon="4.93692">
        <ele>206.46899414062</ele>
        <time>2010-10-16T11:49:02Z</time>
      </trkpt>
      <trkpt lat="45.10654" lon="4.93594">
        <ele>201.625</ele>
        <time>2010-10-16T11:49:10Z</time>
      </trkpt>
      <trkpt lat="45.10636" lon="4.93497">
        <ele>196.89399719238</ele>
        <time>2010-10-16T11:49:17Z</time>
      </trkpt>
      <trkpt lat="45.10624" lon="4.93437">
        <ele>195.14399719238</ele>
        <time>2010-10-16T11:49:21Z</time>
      </trkpt>
      <trkpt lat="45.10603" lon="4.93338">
        <ele>192.59300231934</ele>
        <time>2010-10-16T11:49:28Z</time>
      </trkpt>
      <trkpt lat="45.10598" lon="4.93311">
        <ele>191.78900146484</ele>
        <time>2010-10-16T11:49:30Z</time>
      </trkpt>
      <trkpt lat="45.10585" lon="4.93246">
        <ele>191.19099426269</ele>
        <time>2010-10-16T11:49:35Z</time>
      </trkpt>
      <trkpt lat="45.10566" lon="4.93145">
        <ele>189.27699279785</ele>
        <time>2010-10-16T11:49:43Z</time>
      </trkpt>
      <trkpt lat="45.10548" lon="4.93054">
        <ele>189.04200744629</ele>
        <time>2010-10-16T11:49:51Z</time>
      </trkpt>
      <trkpt lat="45.10529" lon="4.92957">
        <ele>188.77200317383</ele>
        <time>2010-10-16T11:50:00Z</time>
      </trkpt>
      <trkpt lat="45.10509" lon="4.92861">
        <ele>187.90100097656</ele>
        <time>2010-10-16T11:50:09Z</time>
      </trkpt>
      <trkpt lat="45.10496" lon="4.92781">
        <ele>188.11999511719</ele>
        <time>2010-10-16T11:50:17Z</time>
      </trkpt>
      <trkpt lat="45.10489" lon="4.92751">
        <ele>187.87300109863</ele>
        <time>2010-10-16T11:50:21Z</time>
      </trkpt>
      <trkpt lat="45.10485" lon="4.92734">
        <ele>187.89599609375</ele>
        <time>2010-10-16T11:50:25Z</time>
      </trkpt>
      <trkpt lat="45.1048" lon="4.92717">
        <ele>187.91499328613</ele>
        <time>2010-10-16T11:50:30Z</time>
      </trkpt>
      <trkpt lat="45.10474" lon="4.92687">
        <ele>188.04200744629</ele>
        <time>2010-10-16T11:50:35Z</time>
      </trkpt>
      <trkpt lat="45.10466" lon="4.92639">
        <ele>187.95799255371</ele>
        <time>2010-10-16T11:50:42Z</time>
      </trkpt>
      <trkpt lat="45.10463" lon="4.92626">
        <ele>187.78199768066</ele>
        <time>2010-10-16T11:50:44Z</time>
      </trkpt>
      <trkpt lat="45.1046" lon="4.92607">
        <ele>188.04299926758</ele>
        <time>2010-10-16T11:50:47Z</time>
      </trkpt>
      <trkpt lat="45.10457" lon="4.92593">
        <ele>187.99800109863</ele>
        <time>2010-10-16T11:50:49Z</time>
      </trkpt>
      <trkpt lat="45.10445" lon="4.92523">
        <ele>187.16900634766</ele>
        <time>2010-10-16T11:50:58Z</time>
      </trkpt>
      <trkpt lat="45.10432" lon="4.92452">
        <ele>185.64199829102</ele>
        <time>2010-10-16T11:51:06Z</time>
      </trkpt>
      <trkpt lat="45.10423" lon="4.92391">
        <ele>183.66299438477</ele>
        <time>2010-10-16T11:51:12Z</time>
      </trkpt>
      <trkpt lat="45.10406" lon="4.92296">
        <ele>183.01100158691</ele>
        <time>2010-10-16T11:51:22Z</time>
      </trkpt>
      <trkpt lat="45.10389" lon="4.92204">
        <ele>183.38499450684</ele>
        <time>2010-10-16T11:51:32Z</time>
      </trkpt>
      <trkpt lat="45.10381" lon="4.92158">
        <ele>183.34399414062</ele>
        <time>2010-10-16T11:51:37Z</time>
      </trkpt>
      <trkpt lat="45.10364" lon="4.92066">
        <ele>183.73500061035</ele>
        <time>2010-10-16T11:51:47Z</time>
      </trkpt>
      <trkpt lat="45.10347" lon="4.91967">
        <ele>184.46800231934</ele>
        <time>2010-10-16T11:51:58Z</time>
      </trkpt>
      <trkpt lat="45.10331" lon="4.9188">
        <ele>185.64300537109</ele>
        <time>2010-10-16T11:52:08Z</time>
      </trkpt>
      <trkpt lat="45.10317" lon="4.91796">
        <ele>186.33299255371</ele>
        <time>2010-10-16T11:52:18Z</time>
      </trkpt>
      <trkpt lat="45.10322" lon="4.91766">
        <ele>186.97200012207</ele>
        <time>2010-10-16T11:52:22Z</time>
      </trkpt>
      <trkpt lat="45.10336" lon="4.91753">
        <ele>186.66600036621</ele>
        <time>2010-10-16T11:52:25Z</time>
      </trkpt>
      <trkpt lat="45.10348" lon="4.91751">
        <ele>186.73599243164</ele>
        <time>2010-10-16T11:52:27Z</time>
      </trkpt>
      <trkpt lat="45.10413" lon="4.91745">
        <ele>186.77400207519</ele>
        <time>2010-10-16T11:52:38Z</time>
      </trkpt>
      <trkpt lat="45.1046" lon="4.91741">
        <ele>187.07400512695</ele>
        <time>2010-10-16T11:52:46Z</time>
      </trkpt>
      <trkpt lat="45.10517" lon="4.91734">
        <ele>187.80599975586</ele>
        <time>2010-10-16T11:52:56Z</time>
      </trkpt>
      <trkpt lat="45.10567" lon="4.91729">
        <ele>188.82800292969</ele>
        <time>2010-10-16T11:53:05Z</time>
      </trkpt>
      <trkpt lat="45.10615" lon="4.91724">
        <ele>190.80499267578</ele>
        <time>2010-10-16T11:53:14Z</time>
      </trkpt>
      <trkpt lat="45.1062" lon="4.91723">
        <ele>191.04499816894</ele>
        <time>2010-10-16T11:53:15Z</time>
      </trkpt>
      <trkpt lat="45.10689" lon="4.91715">
        <ele>192.82000732422</ele>
        <time>2010-10-16T11:53:28Z</time>
      </trkpt>
      <trkpt lat="45.10735" lon="4.9171">
        <ele>195.1549987793</ele>
        <time>2010-10-16T11:53:37Z</time>
      </trkpt>
      <trkpt lat="45.10751" lon="4.91706">
        <ele>195.55700683594</ele>
        <time>2010-10-16T11:53:40Z</time>
      </trkpt>
      <trkpt lat="45.10772" lon="4.91684">
        <ele>196.62199401856</ele>
        <time>2010-10-16T11:53:45Z</time>
      </trkpt>
      <trkpt lat="45.10777" lon="4.91652">
        <ele>196.78300476074</ele>
        <time>2010-10-16T11:53:49Z</time>
      </trkpt>
      <trkpt lat="45.10778" lon="4.91565">
        <ele>195.46800231934</ele>
        <time>2010-10-16T11:53:58Z</time>
      </trkpt>
      <trkpt lat="45.10778" lon="4.9148">
        <ele>194.42199707031</ele>
        <time>2010-10-16T11:54:06Z</time>
      </trkpt>
      <trkpt lat="45.10779" lon="4.91389">
        <ele>194.61799621582</ele>
        <time>2010-10-16T11:54:15Z</time>
      </trkpt>
      <trkpt lat="45.1078" lon="4.91303">
        <ele>194.76600646973</ele>
        <time>2010-10-16T11:54:24Z</time>
      </trkpt>
      <trkpt lat="45.1078" lon="4.91275">
        <ele>195.61599731445</ele>
        <time>2010-10-16T11:54:27Z</time>
      </trkpt>
      <trkpt lat="45.10794" lon="4.91236">
        <ele>195.69099426269</ele>
        <time>2010-10-16T11:54:32Z</time>
      </trkpt>
      <trkpt lat="45.1081" lon="4.91225">
        <ele>195.73199462891</ele>
        <time>2010-10-16T11:54:35Z</time>
      </trkpt>
      <trkpt lat="45.10845" lon="4.91215">
        <ele>196.09700012207</ele>
        <time>2010-10-16T11:54:41Z</time>
      </trkpt>
      <trkpt lat="45.10905" lon="4.91201">
        <ele>196.75700378418</ele>
        <time>2010-10-16T11:54:51Z</time>
      </trkpt>
      <trkpt lat="45.10968" lon="4.91186">
        <ele>197.52499389648</ele>
        <time>2010-10-16T11:55:01Z</time>
      </trkpt>
      <trkpt lat="45.11024" lon="4.9116">
        <ele>197.77499389648</ele>
        <time>2010-10-16T11:55:10Z</time>
      </trkpt>
      <trkpt lat="45.11073" lon="4.91131">
        <ele>197.89700317383</ele>
        <time>2010-10-16T11:55:18Z</time>
      </trkpt>
      <trkpt lat="45.11149" lon="4.91079">
        <ele>198.47599792481</ele>
        <time>2010-10-16T11:55:31Z</time>
      </trkpt>
      <trkpt lat="45.11201" lon="4.91038">
        <ele>198.2559967041</ele>
        <time>2010-10-16T11:55:40Z</time>
      </trkpt>
      <trkpt lat="45.11254" lon="4.90999">
        <ele>198.22599792481</ele>
        <time>2010-10-16T11:55:49Z</time>
      </trkpt>
      <trkpt lat="45.11307" lon="4.90967">
        <ele>199.69299316406</ele>
        <time>2010-10-16T11:55:58Z</time>
      </trkpt>
      <trkpt lat="45.11362" lon="4.90929">
        <ele>201.28700256348</ele>
        <time>2010-10-16T11:56:08Z</time>
      </trkpt>
      <trkpt lat="45.11407" lon="4.90878">
        <ele>201.62100219727</ele>
        <time>2010-10-16T11:56:17Z</time>
      </trkpt>
      <trkpt lat="45.11439" lon="4.9085">
        <ele>201.46499633789</ele>
        <time>2010-10-16T11:56:23Z</time>
      </trkpt>
      <trkpt lat="45.11482" lon="4.90832">
        <ele>201.52699279785</ele>
        <time>2010-10-16T11:56:30Z</time>
      </trkpt>
      <trkpt lat="45.11543" lon="4.9081">
        <ele>201.64999389648</ele>
        <time>2010-10-16T11:56:40Z</time>
      </trkpt>
      <trkpt lat="45.11584" lon="4.90786">
        <ele>202.78500366211</ele>
        <time>2010-10-16T11:56:47Z</time>
      </trkpt>
      <trkpt lat="45.11639" lon="4.90734">
        <ele>202.93400573731</ele>
        <time>2010-10-16T11:56:57Z</time>
      </trkpt>
      <trkpt lat="45.11666" lon="4.90692">
        <ele>203.56199645996</ele>
        <time>2010-10-16T11:57:03Z</time>
      </trkpt>
      <trkpt lat="45.1168" lon="4.9065">
        <ele>203.55499267578</ele>
        <time>2010-10-16T11:57:08Z</time>
      </trkpt>
      <trkpt lat="45.11689" lon="4.90593">
        <ele>203.27000427246</ele>
        <time>2010-10-16T11:57:14Z</time>
      </trkpt>
      <trkpt lat="45.11696" lon="4.90534">
        <ele>201.49499511719</ele>
        <time>2010-10-16T11:57:20Z</time>
      </trkpt>
      <trkpt lat="45.11708" lon="4.90485">
        <ele>200.17799377441</ele>
        <time>2010-10-16T11:57:25Z</time>
      </trkpt>
      <trkpt lat="45.11717" lon="4.90391">
        <ele>198.82499694824</ele>
        <time>2010-10-16T11:57:34Z</time>
      </trkpt>
      <trkpt lat="45.11731" lon="4.90354">
        <ele>197.50900268555</ele>
        <time>2010-10-16T11:57:38Z</time>
      </trkpt>
      <trkpt lat="45.11744" lon="4.90341">
        <ele>196.58299255371</ele>
        <time>2010-10-16T11:57:40Z</time>
      </trkpt>
      <trkpt lat="45.11791" lon="4.90311">
        <ele>196.31500244141</ele>
        <time>2010-10-16T11:57:47Z</time>
      </trkpt>
      <trkpt lat="45.11854" lon="4.9027">
        <ele>195.19299316406</ele>
        <time>2010-10-16T11:57:57Z</time>
      </trkpt>
      <trkpt lat="45.11888" lon="4.90245">
        <ele>194.625</ele>
        <time>2010-10-16T11:58:02Z</time>
      </trkpt>
      <trkpt lat="45.11927" lon="4.90215">
        <ele>194.31500244141</ele>
        <time>2010-10-16T11:58:08Z</time>
      </trkpt>
      <trkpt lat="45.11934" lon="4.9021">
        <ele>194.38299560547</ele>
        <time>2010-10-16T11:58:09Z</time>
      </trkpt>
      <trkpt lat="45.11969" lon="4.90175">
        <ele>194.46200561523</ele>
        <time>2010-10-16T11:58:15Z</time>
      </trkpt>
      <trkpt lat="45.11992" lon="4.90151">
        <ele>194.27099609375</ele>
        <time>2010-10-16T11:58:19Z</time>
      </trkpt>
      <trkpt lat="45.12007" lon="4.90129">
        <ele>193.67999267578</ele>
        <time>2010-10-16T11:58:22Z</time>
      </trkpt>
      <trkpt lat="45.12012" lon="4.90089">
        <ele>193.06100463867</ele>
        <time>2010-10-16T11:58:26Z</time>
      </trkpt>
      <trkpt lat="45.1201" lon="4.90078">
        <ele>192.78700256348</ele>
        <time>2010-10-16T11:58:27Z</time>
      </trkpt>
      <trkpt lat="45.11989" lon="4.90019">
        <ele>192.5</ele>
        <time>2010-10-16T11:58:33Z</time>
      </trkpt>
      <trkpt lat="45.11986" lon="4.90009">
        <ele>192.30999755859</ele>
        <time>2010-10-16T11:58:34Z</time>
      </trkpt>
      <trkpt lat="45.11959" lon="4.89939">
        <ele>191.45500183106</ele>
        <time>2010-10-16T11:58:41Z</time>
      </trkpt>
      <trkpt lat="45.11932" lon="4.89879">
        <ele>191.19200134277</ele>
        <time>2010-10-16T11:58:47Z</time>
      </trkpt>
      <trkpt lat="45.11909" lon="4.89828">
        <ele>191.90299987793</ele>
        <time>2010-10-16T11:58:53Z</time>
      </trkpt>
      <trkpt lat="45.11889" lon="4.89791">
        <ele>193.44799804688</ele>
        <time>2010-10-16T11:58:58Z</time>
      </trkpt>
      <trkpt lat="45.11882" lon="4.89758">
        <ele>194.85600280762</ele>
        <time>2010-10-16T11:59:02Z</time>
      </trkpt>
      <trkpt lat="45.11879" lon="4.89695">
        <ele>196.83700561523</ele>
        <time>2010-10-16T11:59:10Z</time>
      </trkpt>
      <trkpt lat="45.11875" lon="4.89646">
        <ele>196.70700073242</ele>
        <time>2010-10-16T11:59:17Z</time>
      </trkpt>
      <trkpt lat="45.11868" lon="4.89629">
        <ele>196.89900207519</ele>
        <time>2010-10-16T11:59:21Z</time>
      </trkpt>
      <trkpt lat="45.11866" lon="4.89607">
        <ele>196.6549987793</ele>
        <time>2010-10-16T11:59:25Z</time>
      </trkpt>
      <trkpt lat="45.11868" lon="4.89602">
        <ele>196.74899291992</ele>
        <time>2010-10-16T11:59:26Z</time>
      </trkpt>
      <trkpt lat="45.11878" lon="4.89585">
        <ele>196.64900207519</ele>
        <time>2010-10-16T11:59:30Z</time>
      </trkpt>
      <trkpt lat="45.11904" lon="4.89546">
        <ele>196.68899536133</ele>
        <time>2010-10-16T11:59:39Z</time>
      </trkpt>
      <trkpt lat="45.11926" lon="4.89517">
        <ele>196.55900573731</ele>
        <time>2010-10-16T11:59:46Z</time>
      </trkpt>
      <trkpt lat="45.1198" lon="4.89463">
        <ele>197.78100585938</ele>
        <time>2010-10-16T12:00:00Z</time>
      </trkpt>
      <trkpt lat="45.12022" lon="4.89438">
        <ele>197.97799682617</ele>
        <time>2010-10-16T12:00:09Z</time>
      </trkpt>
      <trkpt lat="45.12074" lon="4.89409">
        <ele>199.06900024414</ele>
        <time>2010-10-16T12:00:20Z</time>
      </trkpt>
      <trkpt lat="45.12114" lon="4.894">
        <ele>199.53700256348</ele>
        <time>2010-10-16T12:00:28Z</time>
      </trkpt>
      <trkpt lat="45.12139" lon="4.89398">
        <ele>200.63999938965</ele>
        <time>2010-10-16T12:00:33Z</time>
      </trkpt>
      <trkpt lat="45.12185" lon="4.89389">
        <ele>202.33700561523</ele>
        <time>2010-10-16T12:00:42Z</time>
      </trkpt>
      <trkpt lat="45.12225" lon="4.89376">
        <ele>202.22799682617</ele>
        <time>2010-10-16T12:00:49Z</time>
      </trkpt>
      <trkpt lat="45.1228" lon="4.89367">
        <ele>202.23899841309</ele>
        <time>2010-10-16T12:00:58Z</time>
      </trkpt>
      <trkpt lat="45.12331" lon="4.89343">
        <ele>201.7859954834</ele>
        <time>2010-10-16T12:01:07Z</time>
      </trkpt>
      <trkpt lat="45.12398" lon="4.89312">
        <ele>203.7440032959</ele>
        <time>2010-10-16T12:01:20Z</time>
      </trkpt>
      <trkpt lat="45.12459" lon="4.8928">
        <ele>204.46299743652</ele>
        <time>2010-10-16T12:01:32Z</time>
      </trkpt>
      <trkpt lat="45.12521" lon="4.89243">
        <ele>205.7440032959</ele>
        <time>2010-10-16T12:01:44Z</time>
      </trkpt>
      <trkpt lat="45.12579" lon="4.89207">
        <ele>207.0950012207</ele>
        <time>2010-10-16T12:01:55Z</time>
      </trkpt>
      <trkpt lat="45.12594" lon="4.89193">
        <ele>207.30900573731</ele>
        <time>2010-10-16T12:01:58Z</time>
      </trkpt>
      <trkpt lat="45.12638" lon="4.89135">
        <ele>208.11999511719</ele>
        <time>2010-10-16T12:02:08Z</time>
      </trkpt>
      <trkpt lat="45.12676" lon="4.89082">
        <ele>208.84899902344</ele>
        <time>2010-10-16T12:02:17Z</time>
      </trkpt>
      <trkpt lat="45.12686" lon="4.8906">
        <ele>209.33200073242</ele>
        <time>2010-10-16T12:02:20Z</time>
      </trkpt>
      <trkpt lat="45.12698" lon="4.89001">
        <ele>209.91499328613</ele>
        <time>2010-10-16T12:02:27Z</time>
      </trkpt>
      <trkpt lat="45.1271" lon="4.88915">
        <ele>210.82000732422</ele>
        <time>2010-10-16T12:02:37Z</time>
      </trkpt>
      <trkpt lat="45.12712" lon="4.8889">
        <ele>211.11199951172</ele>
        <time>2010-10-16T12:02:40Z</time>
      </trkpt>
      <trkpt lat="45.12705" lon="4.88831">
        <ele>211.75500488281</ele>
        <time>2010-10-16T12:02:47Z</time>
      </trkpt>
      <trkpt lat="45.12684" lon="4.88739">
        <ele>212.57899475098</ele>
        <time>2010-10-16T12:02:58Z</time>
      </trkpt>
      <trkpt lat="45.12662" lon="4.88666">
        <ele>213.99099731445</ele>
        <time>2010-10-16T12:03:07Z</time>
      </trkpt>
      <trkpt lat="45.12651" lon="4.8862">
        <ele>214.06500244141</ele>
        <time>2010-10-16T12:03:13Z</time>
      </trkpt>
      <trkpt lat="45.1265" lon="4.88611">
        <ele>214.1309967041</ele>
        <time>2010-10-16T12:03:14Z</time>
      </trkpt>
      <trkpt lat="45.12654" lon="4.88572">
        <ele>215.47200012207</ele>
        <time>2010-10-16T12:03:19Z</time>
      </trkpt>
      <trkpt lat="45.12668" lon="4.88549">
        <ele>216.10499572754</ele>
        <time>2010-10-16T12:03:23Z</time>
      </trkpt>
      <trkpt lat="45.12688" lon="4.88536">
        <ele>216.64799499512</ele>
        <time>2010-10-16T12:03:27Z</time>
      </trkpt>
      <trkpt lat="45.1274" lon="4.88514">
        <ele>217.85499572754</ele>
        <time>2010-10-16T12:03:37Z</time>
      </trkpt>
      <trkpt lat="45.12777" lon="4.88502">
        <ele>218.53399658203</ele>
        <time>2010-10-16T12:03:44Z</time>
      </trkpt>
      <trkpt lat="45.12794" lon="4.88501">
        <ele>218.69700622559</ele>
        <time>2010-10-16T12:03:47Z</time>
      </trkpt>
      <trkpt lat="45.12854" lon="4.8851">
        <ele>218.86599731445</ele>
        <time>2010-10-16T12:03:57Z</time>
      </trkpt>
      <trkpt lat="45.12878" lon="4.88514">
        <ele>218.55400085449</ele>
        <time>2010-10-16T12:04:01Z</time>
      </trkpt>
      <trkpt lat="45.1292" lon="4.88518">
        <ele>219.21899414062</ele>
        <time>2010-10-16T12:04:08Z</time>
      </trkpt>
      <trkpt lat="45.12993" lon="4.8853">
        <ele>220.36799621582</ele>
        <time>2010-10-16T12:04:20Z</time>
      </trkpt>
      <trkpt lat="45.13041" lon="4.88533">
        <ele>220.57000732422</ele>
        <time>2010-10-16T12:04:28Z</time>
      </trkpt>
      <trkpt lat="45.13081" lon="4.88522">
        <ele>222.10899353027</ele>
        <time>2010-10-16T12:04:35Z</time>
      </trkpt>
      <trkpt lat="45.13111" lon="4.88497">
        <ele>223.03399658203</ele>
        <time>2010-10-16T12:04:41Z</time>
      </trkpt>
      <trkpt lat="45.13145" lon="4.88478">
        <ele>223.66799926758</ele>
        <time>2010-10-16T12:04:47Z</time>
      </trkpt>
      <trkpt lat="45.13201" lon="4.88465">
        <ele>224.98500061035</ele>
        <time>2010-10-16T12:04:56Z</time>
      </trkpt>
      <trkpt lat="45.13219" lon="4.88458">
        <ele>225.55200195312</ele>
        <time>2010-10-16T12:04:59Z</time>
      </trkpt>
      <trkpt lat="45.13246" lon="4.88437">
        <ele>226.06599426269</ele>
        <time>2010-10-16T12:05:04Z</time>
      </trkpt>
      <trkpt lat="45.13258" lon="4.88408">
        <ele>226.05999755859</ele>
        <time>2010-10-16T12:05:08Z</time>
      </trkpt>
      <trkpt lat="45.13261" lon="4.88399">
        <ele>226.03199768066</ele>
        <time>2010-10-16T12:05:09Z</time>
      </trkpt>
      <trkpt lat="45.13274" lon="4.88324">
        <ele>226.72900390625</ele>
        <time>2010-10-16T12:05:18Z</time>
      </trkpt>
      <trkpt lat="45.13274" lon="4.88258">
        <ele>227.82299804688</ele>
        <time>2010-10-16T12:05:26Z</time>
      </trkpt>
      <trkpt lat="45.13285" lon="4.88212">
        <ele>228.80999755859</ele>
        <time>2010-10-16T12:05:32Z</time>
      </trkpt>
      <trkpt lat="45.13305" lon="4.88157">
        <ele>231.11700439453</ele>
        <time>2010-10-16T12:05:40Z</time>
      </trkpt>
      <trkpt lat="45.1331" lon="4.88144">
        <ele>231.55400085449</ele>
        <time>2010-10-16T12:05:42Z</time>
      </trkpt>
      <trkpt lat="45.13326" lon="4.88121">
        <ele>232.14399719238</ele>
        <time>2010-10-16T12:05:46Z</time>
      </trkpt>
      <trkpt lat="45.13359" lon="4.88087">
        <ele>232.42199707031</ele>
        <time>2010-10-16T12:05:53Z</time>
      </trkpt>
      <trkpt lat="45.13399" lon="4.88061">
        <ele>232.61199951172</ele>
        <time>2010-10-16T12:06:00Z</time>
      </trkpt>
      <trkpt lat="45.13447" lon="4.88046">
        <ele>233.14399719238</ele>
        <time>2010-10-16T12:06:08Z</time>
      </trkpt>
      <trkpt lat="45.13491" lon="4.88027">
        <ele>233.65699768066</ele>
        <time>2010-10-16T12:06:16Z</time>
      </trkpt>
      <trkpt lat="45.13518" lon="4.87999">
        <ele>234.88600158691</ele>
        <time>2010-10-16T12:06:22Z</time>
      </trkpt>
      <trkpt lat="45.1355" lon="4.87963">
        <ele>236.15600585938</ele>
        <time>2010-10-16T12:06:30Z</time>
      </trkpt>
      <trkpt lat="45.1357" lon="4.87937">
        <ele>236.98699951172</ele>
        <time>2010-10-16T12:06:35Z</time>
      </trkpt>
      <trkpt lat="45.13576" lon="4.87926">
        <ele>237.42199707031</ele>
        <time>2010-10-16T12:06:37Z</time>
      </trkpt>
      <trkpt lat="45.13587" lon="4.87893">
        <ele>238.64700317383</ele>
        <time>2010-10-16T12:06:42Z</time>
      </trkpt>
      <trkpt lat="45.13607" lon="4.87867">
        <ele>239.63800048828</ele>
        <time>2010-10-16T12:06:47Z</time>
      </trkpt>
      <trkpt lat="45.13617" lon="4.87859">
        <ele>240.18899536133</ele>
        <time>2010-10-16T12:06:49Z</time>
      </trkpt>
      <trkpt lat="45.13636" lon="4.87827">
        <ele>240.63900756836</ele>
        <time>2010-10-16T12:06:54Z</time>
      </trkpt>
      <trkpt lat="45.13639" lon="4.87819">
        <ele>240.80400085449</ele>
        <time>2010-10-16T12:06:55Z</time>
      </trkpt>
      <trkpt lat="45.1365" lon="4.87782">
        <ele>241.50999450684</ele>
        <time>2010-10-16T12:07:00Z</time>
      </trkpt>
      <trkpt lat="45.13656" lon="4.87765">
        <ele>241.84399414062</ele>
        <time>2010-10-16T12:07:02Z</time>
      </trkpt>
      <trkpt lat="45.13664" lon="4.87717">
        <ele>242.29100036621</ele>
        <time>2010-10-16T12:07:07Z</time>
      </trkpt>
      <trkpt lat="45.13661" lon="4.87687">
        <ele>242.69799804688</ele>
        <time>2010-10-16T12:07:10Z</time>
      </trkpt>
      <trkpt lat="45.13639" lon="4.87583">
        <ele>244.28300476074</ele>
        <time>2010-10-16T12:07:21Z</time>
      </trkpt>
      <trkpt lat="45.13636" lon="4.87574">
        <ele>244.44900512695</ele>
        <time>2010-10-16T12:07:22Z</time>
      </trkpt>
      <trkpt lat="45.13625" lon="4.87552">
        <ele>245.61199951172</ele>
        <time>2010-10-16T12:07:25Z</time>
      </trkpt>
      <trkpt lat="45.13598" lon="4.87528">
        <ele>247.31900024414</ele>
        <time>2010-10-16T12:07:30Z</time>
      </trkpt>
      <trkpt lat="45.1358" lon="4.87499">
        <ele>248.73599243164</ele>
        <time>2010-10-16T12:07:34Z</time>
      </trkpt>
      <trkpt lat="45.13564" lon="4.87456">
        <ele>251.03900146484</ele>
        <time>2010-10-16T12:07:39Z</time>
      </trkpt>
      <trkpt lat="45.1355" lon="4.87412">
        <ele>253.31799316406</ele>
        <time>2010-10-16T12:07:44Z</time>
      </trkpt>
      <trkpt lat="45.13541" lon="4.87376">
        <ele>254.54800415039</ele>
        <time>2010-10-16T12:07:48Z</time>
      </trkpt>
      <trkpt lat="45.13546" lon="4.87345">
        <ele>255.21200561523</ele>
        <time>2010-10-16T12:07:52Z</time>
      </trkpt>
      <trkpt lat="45.13557" lon="4.87345">
        <ele>256.0830078125</ele>
        <time>2010-10-16T12:07:54Z</time>
      </trkpt>
      <trkpt lat="45.13566" lon="4.87362">
        <ele>257.63198852539</ele>
        <time>2010-10-16T12:07:57Z</time>
      </trkpt>
      <trkpt lat="45.13568" lon="4.87398">
        <ele>259.08200073242</ele>
        <time>2010-10-16T12:08:02Z</time>
      </trkpt>
      <trkpt lat="45.13573" lon="4.87434">
        <ele>259.96899414062</ele>
        <time>2010-10-16T12:08:07Z</time>
      </trkpt>
      <trkpt lat="45.13579" lon="4.87447">
        <ele>260.4469909668</ele>
        <time>2010-10-16T12:08:09Z</time>
      </trkpt>
      <trkpt lat="45.13614" lon="4.87488">
        <ele>262.43600463867</ele>
        <time>2010-10-16T12:08:17Z</time>
      </trkpt>
      <trkpt lat="45.13629" lon="4.87498">
        <ele>263.07000732422</ele>
        <time>2010-10-16T12:08:20Z</time>
      </trkpt>
      <trkpt lat="45.13641" lon="4.87503">
        <ele>263.84399414062</ele>
        <time>2010-10-16T12:08:22Z</time>
      </trkpt>
      <trkpt lat="45.13676" lon="4.87503">
        <ele>265.78298950195</ele>
        <time>2010-10-16T12:08:28Z</time>
      </trkpt>
      <trkpt lat="45.137" lon="4.875">
        <ele>267.67401123047</ele>
        <time>2010-10-16T12:08:33Z</time>
      </trkpt>
      <trkpt lat="45.13735" lon="4.87492">
        <ele>269.68399047852</ele>
        <time>2010-10-16T12:08:41Z</time>
      </trkpt>
      <trkpt lat="45.13759" lon="4.87473">
        <ele>270.70401000977</ele>
        <time>2010-10-16T12:08:47Z</time>
      </trkpt>
      <trkpt lat="45.13778" lon="4.87445">
        <ele>269.45999145508</ele>
        <time>2010-10-16T12:08:52Z</time>
      </trkpt>
      <trkpt lat="45.13807" lon="4.874">
        <ele>267.39001464844</ele>
        <time>2010-10-16T12:08:58Z</time>
      </trkpt>
      <trkpt lat="45.13834" lon="4.87359">
        <ele>267.1549987793</ele>
        <time>2010-10-16T12:09:04Z</time>
      </trkpt>
      <trkpt lat="45.13864" lon="4.87316">
        <ele>268.56100463867</ele>
        <time>2010-10-16T12:09:11Z</time>
      </trkpt>
      <trkpt lat="45.13899" lon="4.87279">
        <ele>270.06600952148</ele>
        <time>2010-10-16T12:09:19Z</time>
      </trkpt>
      <trkpt lat="45.13924" lon="4.87257">
        <ele>271.67401123047</ele>
        <time>2010-10-16T12:09:25Z</time>
      </trkpt>
      <trkpt lat="45.13942" lon="4.87241">
        <ele>273.36999511719</ele>
        <time>2010-10-16T12:09:30Z</time>
      </trkpt>
      <trkpt lat="45.13954" lon="4.87231">
        <ele>274.34698486328</ele>
        <time>2010-10-16T12:09:35Z</time>
      </trkpt>
      <trkpt lat="45.13954" lon="4.8723">
        <ele>275.08801269531</ele>
        <time>2010-10-16T12:09:37Z</time>
      </trkpt>
      <trkpt lat="45.13956" lon="4.87229">
        <ele>274.74899291992</ele>
        <time>2010-10-16T12:10:22Z</time>
      </trkpt>
      <trkpt lat="45.13968" lon="4.87225">
        <ele>273.77899169922</ele>
        <time>2010-10-16T12:10:26Z</time>
      </trkpt>
      <trkpt lat="45.13982" lon="4.87225">
        <ele>272.76400756836</ele>
        <time>2010-10-16T12:10:29Z</time>
      </trkpt>
      <trkpt lat="45.14021" lon="4.8723">
        <ele>268.80700683594</ele>
        <time>2010-10-16T12:10:35Z</time>
      </trkpt>
      <trkpt lat="45.14037" lon="4.87231">
        <ele>267.86999511719</ele>
        <time>2010-10-16T12:10:37Z</time>
      </trkpt>
      <trkpt lat="45.14082" lon="4.87241">
        <ele>264.33099365234</ele>
        <time>2010-10-16T12:10:42Z</time>
      </trkpt>
      <trkpt lat="45.14125" lon="4.87277">
        <ele>260.12200927734</ele>
        <time>2010-10-16T12:10:47Z</time>
      </trkpt>
      <trkpt lat="45.14156" lon="4.87317">
        <ele>257.88198852539</ele>
        <time>2010-10-16T12:10:51Z</time>
      </trkpt>
      <trkpt lat="45.14204" lon="4.87351">
        <ele>254.0359954834</ele>
        <time>2010-10-16T12:10:56Z</time>
      </trkpt>
      <trkpt lat="45.1429" lon="4.87398">
        <ele>250.72300720215</ele>
        <time>2010-10-16T12:11:05Z</time>
      </trkpt>
      <trkpt lat="45.1433" lon="4.87416">
        <ele>248.80799865723</ele>
        <time>2010-10-16T12:11:09Z</time>
      </trkpt>
      <trkpt lat="45.14404" lon="4.87449">
        <ele>244.94200134277</ele>
        <time>2010-10-16T12:11:16Z</time>
      </trkpt>
      <trkpt lat="45.14414" lon="4.87453">
        <ele>244.66999816894</ele>
        <time>2010-10-16T12:11:17Z</time>
      </trkpt>
      <trkpt lat="45.14455" lon="4.87472">
        <ele>242.51100158691</ele>
        <time>2010-10-16T12:11:21Z</time>
      </trkpt>
      <trkpt lat="45.14474" lon="4.87494">
        <ele>242.10099792481</ele>
        <time>2010-10-16T12:11:24Z</time>
      </trkpt>
      <trkpt lat="45.14471" lon="4.87513">
        <ele>242.14300537109</ele>
        <time>2010-10-16T12:11:26Z</time>
      </trkpt>
      <trkpt lat="45.14458" lon="4.87523">
        <ele>241.58500671387</ele>
        <time>2010-10-16T12:11:28Z</time>
      </trkpt>
      <trkpt lat="45.14434" lon="4.87518">
        <ele>240.86599731445</ele>
        <time>2010-10-16T12:11:31Z</time>
      </trkpt>
      <trkpt lat="45.14392" lon="4.87502">
        <ele>239.09100341797</ele>
        <time>2010-10-16T12:11:36Z</time>
      </trkpt>
      <trkpt lat="45.14367" lon="4.87506">
        <ele>238.35899353027</ele>
        <time>2010-10-16T12:11:39Z</time>
      </trkpt>
      <trkpt lat="45.14359" lon="4.87525">
        <ele>237.20199584961</ele>
        <time>2010-10-16T12:11:41Z</time>
      </trkpt>
      <trkpt lat="45.14361" lon="4.87539">
        <ele>236.98100280762</ele>
        <time>2010-10-16T12:11:42Z</time>
      </trkpt>
      <trkpt lat="45.14372" lon="4.87558">
        <ele>236.71000671387</ele>
        <time>2010-10-16T12:11:44Z</time>
      </trkpt>
      <trkpt lat="45.14395" lon="4.87568">
        <ele>237.63999938965</ele>
        <time>2010-10-16T12:11:47Z</time>
      </trkpt>
      <trkpt lat="45.14429" lon="4.87571">
        <ele>237.45899963379</ele>
        <time>2010-10-16T12:11:51Z</time>
      </trkpt>
      <trkpt lat="45.14445" lon="4.87582">
        <ele>237.38600158691</ele>
        <time>2010-10-16T12:11:53Z</time>
      </trkpt>
      <trkpt lat="45.14492" lon="4.87615">
        <ele>237.46099853516</ele>
        <time>2010-10-16T12:11:59Z</time>
      </trkpt>
      <trkpt lat="45.14523" lon="4.87636">
        <ele>238.07800292969</ele>
        <time>2010-10-16T12:12:03Z</time>
      </trkpt>
      <trkpt lat="45.14545" lon="4.87651">
        <ele>238.95300292969</ele>
        <time>2010-10-16T12:12:06Z</time>
      </trkpt>
      <trkpt lat="45.14572" lon="4.87674">
        <ele>238.74499511719</ele>
        <time>2010-10-16T12:12:10Z</time>
      </trkpt>
      <trkpt lat="45.14602" lon="4.87681">
        <ele>238.59800720215</ele>
        <time>2010-10-16T12:12:14Z</time>
      </trkpt>
      <trkpt lat="45.1461" lon="4.87679">
        <ele>238.70399475098</ele>
        <time>2010-10-16T12:12:15Z</time>
      </trkpt>
      <trkpt lat="45.14655" lon="4.87663">
        <ele>239.28799438477</ele>
        <time>2010-10-16T12:12:21Z</time>
      </trkpt>
      <trkpt lat="45.14706" lon="4.87645">
        <ele>238.84899902344</ele>
        <time>2010-10-16T12:12:28Z</time>
      </trkpt>
      <trkpt lat="45.14739" lon="4.87653">
        <ele>239.48100280762</ele>
        <time>2010-10-16T12:12:33Z</time>
      </trkpt>
      <trkpt lat="45.14746" lon="4.87682">
        <ele>238.80499267578</ele>
        <time>2010-10-16T12:12:36Z</time>
      </trkpt>
      <trkpt lat="45.14737" lon="4.87712">
        <ele>238.47200012207</ele>
        <time>2010-10-16T12:12:39Z</time>
      </trkpt>
      <trkpt lat="45.14714" lon="4.87752">
        <ele>237.07299804688</ele>
        <time>2010-10-16T12:12:43Z</time>
      </trkpt>
      <trkpt lat="45.147" lon="4.8777">
        <ele>236.27200317383</ele>
        <time>2010-10-16T12:12:45Z</time>
      </trkpt>
      <trkpt lat="45.14658" lon="4.87812">
        <ele>234.17799377441</ele>
        <time>2010-10-16T12:12:50Z</time>
      </trkpt>
      <trkpt lat="45.1463" lon="4.87835">
        <ele>233.13299560547</ele>
        <time>2010-10-16T12:12:53Z</time>
      </trkpt>
      <trkpt lat="45.14615" lon="4.8787">
        <ele>231.79800415039</ele>
        <time>2010-10-16T12:12:56Z</time>
      </trkpt>
      <trkpt lat="45.14618" lon="4.87896">
        <ele>231.55099487305</ele>
        <time>2010-10-16T12:12:58Z</time>
      </trkpt>
      <trkpt lat="45.14629" lon="4.87915">
        <ele>231.95799255371</ele>
        <time>2010-10-16T12:13:00Z</time>
      </trkpt>
      <trkpt lat="45.14637" lon="4.87922">
        <ele>232.08200073242</ele>
        <time>2010-10-16T12:13:01Z</time>
      </trkpt>
      <trkpt lat="45.14685" lon="4.87961">
        <ele>234.59800720215</ele>
        <time>2010-10-16T12:13:08Z</time>
      </trkpt>
      <trkpt lat="45.14722" lon="4.8799">
        <ele>236.07499694824</ele>
        <time>2010-10-16T12:13:14Z</time>
      </trkpt>
      <trkpt lat="45.14739" lon="4.88001">
        <ele>236.92700195312</ele>
        <time>2010-10-16T12:13:17Z</time>
      </trkpt>
      <trkpt lat="45.1477" lon="4.88007">
        <ele>237.67500305176</ele>
        <time>2010-10-16T12:13:22Z</time>
      </trkpt>
      <trkpt lat="45.14835" lon="4.87994">
        <ele>239.57899475098</ele>
        <time>2010-10-16T12:13:32Z</time>
      </trkpt>
      <trkpt lat="45.14882" lon="4.87984">
        <ele>240.83999633789</ele>
        <time>2010-10-16T12:13:39Z</time>
      </trkpt>
      <trkpt lat="45.14938" lon="4.87963">
        <ele>241.08399963379</ele>
        <time>2010-10-16T12:13:47Z</time>
      </trkpt>
      <trkpt lat="45.14994" lon="4.87935">
        <ele>241.88999938965</ele>
        <time>2010-10-16T12:13:55Z</time>
      </trkpt>
      <trkpt lat="45.15046" lon="4.87907">
        <ele>242.9109954834</ele>
        <time>2010-10-16T12:14:03Z</time>
      </trkpt>
      <trkpt lat="45.15095" lon="4.87877">
        <ele>243.29800415039</ele>
        <time>2010-10-16T12:14:11Z</time>
      </trkpt>
      <trkpt lat="45.15155" lon="4.87835">
        <ele>244.19299316406</ele>
        <time>2010-10-16T12:14:21Z</time>
      </trkpt>
      <trkpt lat="45.15189" lon="4.87809">
        <ele>244.85800170898</ele>
        <time>2010-10-16T12:14:27Z</time>
      </trkpt>
      <trkpt lat="45.15226" lon="4.87759">
        <ele>245.06900024414</ele>
        <time>2010-10-16T12:14:35Z</time>
      </trkpt>
      <trkpt lat="45.15253" lon="4.87718">
        <ele>244.64399719238</ele>
        <time>2010-10-16T12:14:41Z</time>
      </trkpt>
      <trkpt lat="45.15276" lon="4.8768">
        <ele>243.42700195312</ele>
        <time>2010-10-16T12:14:46Z</time>
      </trkpt>
      <trkpt lat="45.15299" lon="4.8765">
        <ele>243.21800231934</ele>
        <time>2010-10-16T12:14:50Z</time>
      </trkpt>
      <trkpt lat="45.15343" lon="4.87613">
        <ele>244.45700073242</ele>
        <time>2010-10-16T12:14:57Z</time>
      </trkpt>
      <trkpt lat="45.15382" lon="4.87588">
        <ele>246.18099975586</ele>
        <time>2010-10-16T12:15:04Z</time>
      </trkpt>
      <trkpt lat="45.15422" lon="4.87586">
        <ele>246.27000427246</ele>
        <time>2010-10-16T12:15:10Z</time>
      </trkpt>
      <trkpt lat="45.15459" lon="4.8758">
        <ele>244.84899902344</ele>
        <time>2010-10-16T12:15:15Z</time>
      </trkpt>
      <trkpt lat="45.15517" lon="4.87555">
        <ele>243.80700683594</ele>
        <time>2010-10-16T12:15:23Z</time>
      </trkpt>
      <trkpt lat="45.15571" lon="4.87554">
        <ele>243.79600524902</ele>
        <time>2010-10-16T12:15:30Z</time>
      </trkpt>
      <trkpt lat="45.15638" lon="4.87558">
        <ele>244.34100341797</ele>
        <time>2010-10-16T12:15:39Z</time>
      </trkpt>
      <trkpt lat="45.15691" lon="4.87547">
        <ele>243.56799316406</ele>
        <time>2010-10-16T12:15:46Z</time>
      </trkpt>
      <trkpt lat="45.15755" lon="4.87532">
        <ele>241.71899414062</ele>
        <time>2010-10-16T12:15:54Z</time>
      </trkpt>
      <trkpt lat="45.15819" lon="4.87513">
        <ele>240.28199768066</ele>
        <time>2010-10-16T12:16:02Z</time>
      </trkpt>
      <trkpt lat="45.15857" lon="4.87501">
        <ele>239.2799987793</ele>
        <time>2010-10-16T12:16:07Z</time>
      </trkpt>
      <trkpt lat="45.15893" lon="4.87483">
        <ele>237.52499389648</ele>
        <time>2010-10-16T12:16:12Z</time>
      </trkpt>
      <trkpt lat="45.15924" lon="4.87464">
        <ele>234.83500671387</ele>
        <time>2010-10-16T12:16:16Z</time>
      </trkpt>
      <trkpt lat="45.15932" lon="4.87459">
        <ele>234.44000244141</ele>
        <time>2010-10-16T12:16:17Z</time>
      </trkpt>
      <trkpt lat="45.15958" lon="4.87445">
        <ele>232.73699951172</ele>
        <time>2010-10-16T12:16:20Z</time>
      </trkpt>
      <trkpt lat="45.15996" lon="4.87437">
        <ele>229.27099609375</ele>
        <time>2010-10-16T12:16:24Z</time>
      </trkpt>
      <trkpt lat="45.16046" lon="4.87439">
        <ele>224.93499755859</ele>
        <time>2010-10-16T12:16:29Z</time>
      </trkpt>
      <trkpt lat="45.16062" lon="4.87444">
        <ele>223.26300048828</ele>
        <time>2010-10-16T12:16:31Z</time>
      </trkpt>
      <trkpt lat="45.16086" lon="4.87443">
        <ele>221.50799560547</ele>
        <time>2010-10-16T12:16:34Z</time>
      </trkpt>
      <trkpt lat="45.16093" lon="4.87438">
        <ele>220.7380065918</ele>
        <time>2010-10-16T12:16:35Z</time>
      </trkpt>
      <trkpt lat="45.16124" lon="4.87411">
        <ele>218.25100708008</ele>
        <time>2010-10-16T12:16:39Z</time>
      </trkpt>
      <trkpt lat="45.16174" lon="4.87397">
        <ele>213.42599487305</ele>
        <time>2010-10-16T12:16:44Z</time>
      </trkpt>
      <trkpt lat="45.16207" lon="4.87395">
        <ele>210.84399414062</ele>
        <time>2010-10-16T12:16:47Z</time>
      </trkpt>
      <trkpt lat="45.16252" lon="4.87409">
        <ele>207.60600280762</ele>
        <time>2010-10-16T12:16:51Z</time>
      </trkpt>
      <trkpt lat="45.16263" lon="4.87417">
        <ele>206.42900085449</ele>
        <time>2010-10-16T12:16:52Z</time>
      </trkpt>
      <trkpt lat="45.16322" lon="4.87446">
        <ele>201.63999938965</ele>
        <time>2010-10-16T12:16:57Z</time>
      </trkpt>
      <trkpt lat="45.16336" lon="4.87448">
        <ele>200.67100524902</ele>
        <time>2010-10-16T12:16:58Z</time>
      </trkpt>
      <trkpt lat="45.16402" lon="4.87469">
        <ele>192.26699829102</ele>
        <time>2010-10-16T12:17:03Z</time>
      </trkpt>
      <trkpt lat="45.16459" lon="4.87486">
        <ele>187.64300537109</ele>
        <time>2010-10-16T12:17:07Z</time>
      </trkpt>
      <trkpt lat="45.16515" lon="4.87492">
        <ele>184.59199523926</ele>
        <time>2010-10-16T12:17:11Z</time>
      </trkpt>
      <trkpt lat="45.16528" lon="4.87492">
        <ele>183.82099914551</ele>
        <time>2010-10-16T12:17:12Z</time>
      </trkpt>
      <trkpt lat="45.16564" lon="4.87484">
        <ele>181.38499450684</ele>
        <time>2010-10-16T12:17:15Z</time>
      </trkpt>
      <trkpt lat="45.16591" lon="4.8746">
        <ele>179.66400146484</ele>
        <time>2010-10-16T12:17:18Z</time>
      </trkpt>
      <trkpt lat="45.16598" lon="4.87446">
        <ele>179.13299560547</ele>
        <time>2010-10-16T12:17:19Z</time>
      </trkpt>
      <trkpt lat="45.16633" lon="4.87402">
        <ele>175.56100463867</ele>
        <time>2010-10-16T12:17:23Z</time>
      </trkpt>
      <trkpt lat="45.16645" lon="4.874">
        <ele>173.92799377441</ele>
        <time>2010-10-16T12:17:24Z</time>
      </trkpt>
      <trkpt lat="45.16694" lon="4.87389">
        <ele>170.73100280762</ele>
        <time>2010-10-16T12:17:28Z</time>
      </trkpt>
      <trkpt lat="45.16746" lon="4.87371">
        <ele>168.31799316406</ele>
        <time>2010-10-16T12:17:33Z</time>
      </trkpt>
      <trkpt lat="45.16788" lon="4.87346">
        <ele>167.72900390625</ele>
        <time>2010-10-16T12:17:38Z</time>
      </trkpt>
      <trkpt lat="45.16811" lon="4.87329">
        <ele>166.86999511719</ele>
        <time>2010-10-16T12:17:41Z</time>
      </trkpt>
      <trkpt lat="45.16866" lon="4.87298">
        <ele>164.72999572754</ele>
        <time>2010-10-16T12:17:48Z</time>
      </trkpt>
      <trkpt lat="45.1691" lon="4.87272">
        <ele>163.20399475098</ele>
        <time>2010-10-16T12:17:54Z</time>
      </trkpt>
      <trkpt lat="45.16965" lon="4.8724">
        <ele>162.13200378418</ele>
        <time>2010-10-16T12:18:02Z</time>
      </trkpt>
      <trkpt lat="45.16993" lon="4.87223">
        <ele>162.40199279785</ele>
        <time>2010-10-16T12:18:07Z</time>
      </trkpt>
      <trkpt lat="45.16999" lon="4.87219">
        <ele>162.92500305176</ele>
        <time>2010-10-16T12:18:10Z</time>
      </trkpt>
      <trkpt lat="45.17001" lon="4.87217">
        <ele>163.04299926758</ele>
        <time>2010-10-16T12:18:11Z</time>
      </trkpt>
      <trkpt lat="45.17005" lon="4.87199">
        <ele>162.88000488281</ele>
        <time>2010-10-16T12:18:15Z</time>
      </trkpt>
      <trkpt lat="45.17014" lon="4.87164">
        <ele>162.99499511719</ele>
        <time>2010-10-16T12:18:21Z</time>
      </trkpt>
      <trkpt lat="45.17033" lon="4.87119">
        <ele>161.10499572754</ele>
        <time>2010-10-16T12:18:27Z</time>
      </trkpt>
      <trkpt lat="45.17065" lon="4.87045">
        <ele>160.61399841309</ele>
        <time>2010-10-16T12:18:36Z</time>
      </trkpt>
      <trkpt lat="45.17108" lon="4.86943">
        <ele>161.05999755859</ele>
        <time>2010-10-16T12:18:48Z</time>
      </trkpt>
      <trkpt lat="45.17135" lon="4.86878">
        <ele>162.11700439453</ele>
        <time>2010-10-16T12:18:56Z</time>
      </trkpt>
      <trkpt lat="45.17166" lon="4.86804">
        <ele>162.78500366211</ele>
        <time>2010-10-16T12:19:05Z</time>
      </trkpt>
      <trkpt lat="45.17189" lon="4.86747">
        <ele>163.22799682617</ele>
        <time>2010-10-16T12:19:12Z</time>
      </trkpt>
      <trkpt lat="45.17225" lon="4.86664">
        <ele>162.82499694824</ele>
        <time>2010-10-16T12:19:22Z</time>
      </trkpt>
      <trkpt lat="45.1726" lon="4.86579">
        <ele>161.42700195312</ele>
        <time>2010-10-16T12:19:31Z</time>
      </trkpt>
      <trkpt lat="45.17295" lon="4.86494">
        <ele>161.40600585938</ele>
        <time>2010-10-16T12:19:40Z</time>
      </trkpt>
      <trkpt lat="45.17329" lon="4.86419">
        <ele>159.99499511719</ele>
        <time>2010-10-16T12:19:48Z</time>
      </trkpt>
      <trkpt lat="45.17362" lon="4.86334">
        <ele>160.91600036621</ele>
        <time>2010-10-16T12:19:57Z</time>
      </trkpt>
      <trkpt lat="45.17398" lon="4.8625">
        <ele>160.2440032959</ele>
        <time>2010-10-16T12:20:06Z</time>
      </trkpt>
      <trkpt lat="45.17434" lon="4.86179">
        <ele>159.84100341797</ele>
        <time>2010-10-16T12:20:14Z</time>
      </trkpt>
      <trkpt lat="45.17482" lon="4.86094">
        <ele>159.20399475098</ele>
        <time>2010-10-16T12:20:24Z</time>
      </trkpt>
      <trkpt lat="45.17522" lon="4.86014">
        <ele>157.21800231934</ele>
        <time>2010-10-16T12:20:32Z</time>
      </trkpt>
      <trkpt lat="45.1757" lon="4.85912">
        <ele>154.80599975586</ele>
        <time>2010-10-16T12:20:42Z</time>
      </trkpt>
      <trkpt lat="45.17585" lon="4.85858">
        <ele>155.4700012207</ele>
        <time>2010-10-16T12:20:47Z</time>
      </trkpt>
      <trkpt lat="45.17599" lon="4.85797">
        <ele>156.42500305176</ele>
        <time>2010-10-16T12:20:53Z</time>
      </trkpt>
      <trkpt lat="45.1762" lon="4.85758">
        <ele>157.23599243164</ele>
        <time>2010-10-16T12:20:58Z</time>
      </trkpt>
      <trkpt lat="45.17637" lon="4.85744">
        <ele>158.16400146484</ele>
        <time>2010-10-16T12:21:01Z</time>
      </trkpt>
      <trkpt lat="45.17702" lon="4.85707">
        <ele>160.39799499512</ele>
        <time>2010-10-16T12:21:12Z</time>
      </trkpt>
      <trkpt lat="45.17735" lon="4.85681">
        <ele>160.99899291992</ele>
        <time>2010-10-16T12:21:18Z</time>
      </trkpt>
      <trkpt lat="45.17784" lon="4.85635">
        <ele>161.6369934082</ele>
        <time>2010-10-16T12:21:27Z</time>
      </trkpt>
      <trkpt lat="45.17817" lon="4.85602">
        <ele>162.4940032959</ele>
        <time>2010-10-16T12:21:33Z</time>
      </trkpt>
      <trkpt lat="45.17846" lon="4.85555">
        <ele>164.33200073242</ele>
        <time>2010-10-16T12:21:40Z</time>
      </trkpt>
      <trkpt lat="45.17871" lon="4.85507">
        <ele>165.58599853516</ele>
        <time>2010-10-16T12:21:47Z</time>
      </trkpt>
      <trkpt lat="45.17879" lon="4.85486">
        <ele>166.43299865723</ele>
        <time>2010-10-16T12:21:50Z</time>
      </trkpt>
      <trkpt lat="45.17884" lon="4.85456">
        <ele>167.33299255371</ele>
        <time>2010-10-16T12:21:54Z</time>
      </trkpt>
      <trkpt lat="45.17883" lon="4.8544">
        <ele>167.7859954834</ele>
        <time>2010-10-16T12:21:56Z</time>
      </trkpt>
      <trkpt lat="45.17869" lon="4.85368">
        <ele>167.59700012207</ele>
        <time>2010-10-16T12:22:04Z</time>
      </trkpt>
      <trkpt lat="45.17863" lon="4.8533">
        <ele>165.9940032959</ele>
        <time>2010-10-16T12:22:08Z</time>
      </trkpt>
      <trkpt lat="45.17861" lon="4.85312">
        <ele>164.90199279785</ele>
        <time>2010-10-16T12:22:10Z</time>
      </trkpt>
      <trkpt lat="45.17869" lon="4.85241">
        <ele>163.92500305176</ele>
        <time>2010-10-16T12:22:17Z</time>
      </trkpt>
      <trkpt lat="45.17874" lon="4.8522">
        <ele>163.56700134277</ele>
        <time>2010-10-16T12:22:19Z</time>
      </trkpt>
      <trkpt lat="45.17901" lon="4.85177">
        <ele>161.90400695801</ele>
        <time>2010-10-16T12:22:24Z</time>
      </trkpt>
      <trkpt lat="45.17937" lon="4.85128">
        <ele>160.23199462891</ele>
        <time>2010-10-16T12:22:30Z</time>
      </trkpt>
      <trkpt lat="45.17961" lon="4.85093">
        <ele>158.18699645996</ele>
        <time>2010-10-16T12:22:34Z</time>
      </trkpt>
      <trkpt lat="45.17972" lon="4.85073">
        <ele>157.27900695801</ele>
        <time>2010-10-16T12:22:36Z</time>
      </trkpt>
      <trkpt lat="45.17982" lon="4.85037">
        <ele>155.33299255371</ele>
        <time>2010-10-16T12:22:39Z</time>
      </trkpt>
      <trkpt lat="45.17984" lon="4.85024">
        <ele>154.89199829102</ele>
        <time>2010-10-16T12:22:40Z</time>
      </trkpt>
      <trkpt lat="45.17986" lon="4.84973">
        <ele>153.10299682617</ele>
        <time>2010-10-16T12:22:44Z</time>
      </trkpt>
      <trkpt lat="45.17987" lon="4.84937">
        <ele>154.43600463867</ele>
        <time>2010-10-16T12:22:48Z</time>
      </trkpt>
      <trkpt lat="45.17988" lon="4.84924">
        <ele>154.75799560547</ele>
        <time>2010-10-16T12:22:52Z</time>
      </trkpt>
      <trkpt lat="45.17988" lon="4.84919">
        <ele>154.80299377441</ele>
        <time>2010-10-16T12:22:53Z</time>
      </trkpt>
      <trkpt lat="45.17989" lon="4.84888">
        <ele>154.17300415039</ele>
        <time>2010-10-16T12:22:58Z</time>
      </trkpt>
      <trkpt lat="45.17992" lon="4.84837">
        <ele>153.49200439453</ele>
        <time>2010-10-16T12:23:04Z</time>
      </trkpt>
      <trkpt lat="45.17988" lon="4.84765">
        <ele>152.70300292969</ele>
        <time>2010-10-16T12:23:11Z</time>
      </trkpt>
      <trkpt lat="45.17976" lon="4.84709">
        <ele>151.51100158691</ele>
        <time>2010-10-16T12:23:16Z</time>
      </trkpt>
      <trkpt lat="45.17941" lon="4.84615">
        <ele>149.47099304199</ele>
        <time>2010-10-16T12:23:25Z</time>
      </trkpt>
      <trkpt lat="45.17907" lon="4.84525">
        <ele>149.07699584961</ele>
        <time>2010-10-16T12:23:34Z</time>
      </trkpt>
      <trkpt lat="45.1788" lon="4.84451">
        <ele>149.83399963379</ele>
        <time>2010-10-16T12:23:42Z</time>
      </trkpt>
      <trkpt lat="45.17868" lon="4.84393">
        <ele>149.96000671387</ele>
        <time>2010-10-16T12:23:48Z</time>
      </trkpt>
      <trkpt lat="45.17859" lon="4.84315">
        <ele>150.5890045166</ele>
        <time>2010-10-16T12:23:56Z</time>
      </trkpt>
      <trkpt lat="45.17859" lon="4.84306">
        <ele>150.96299743652</ele>
        <time>2010-10-16T12:23:57Z</time>
      </trkpt>
      <trkpt lat="45.17873" lon="4.84263">
        <ele>150.99099731445</ele>
        <time>2010-10-16T12:24:02Z</time>
      </trkpt>
      <trkpt lat="45.17902" lon="4.84203">
        <ele>149.7140045166</ele>
        <time>2010-10-16T12:24:09Z</time>
      </trkpt>
      <trkpt lat="45.17911" lon="4.84173">
        <ele>147.19200134277</ele>
        <time>2010-10-16T12:24:12Z</time>
      </trkpt>
      <trkpt lat="45.17913" lon="4.84164">
        <ele>147.19200134277</ele>
        <time>2010-10-16T12:24:13Z</time>
      </trkpt>
      <trkpt lat="45.17915" lon="4.84086">
        <ele>144.60200500488</ele>
        <time>2010-10-16T12:24:19Z</time>
      </trkpt>
      <trkpt lat="45.17912" lon="4.84071">
        <ele>143.89900207519</ele>
        <time>2010-10-16T12:24:20Z</time>
      </trkpt>
      <trkpt lat="45.17902" lon="4.84028">
        <ele>142.28799438477</ele>
        <time>2010-10-16T12:24:23Z</time>
      </trkpt>
      <trkpt lat="45.179" lon="4.83967">
        <ele>139.08200073242</ele>
        <time>2010-10-16T12:24:27Z</time>
      </trkpt>
      <trkpt lat="45.17911" lon="4.83909">
        <ele>137.38400268555</ele>
        <time>2010-10-16T12:24:31Z</time>
      </trkpt>
      <trkpt lat="45.17917" lon="4.83881">
        <ele>136.67500305176</ele>
        <time>2010-10-16T12:24:33Z</time>
      </trkpt>
      <trkpt lat="45.17938" lon="4.83804">
        <ele>135.22700500488</ele>
        <time>2010-10-16T12:24:39Z</time>
      </trkpt>
      <trkpt lat="45.17942" lon="4.83791">
        <ele>134.93400573731</ele>
        <time>2010-10-16T12:24:40Z</time>
      </trkpt>
      <trkpt lat="45.17968" lon="4.83717">
        <ele>133.68299865723</ele>
        <time>2010-10-16T12:24:46Z</time>
      </trkpt>
      <trkpt lat="45.17994" lon="4.83648">
        <ele>133.46000671387</ele>
        <time>2010-10-16T12:24:52Z</time>
      </trkpt>
      <trkpt lat="45.1801" lon="4.83617">
        <ele>133.28199768066</ele>
        <time>2010-10-16T12:24:55Z</time>
      </trkpt>
      <trkpt lat="45.18036" lon="4.83581">
        <ele>132.8809967041</ele>
        <time>2010-10-16T12:24:59Z</time>
      </trkpt>
      <trkpt lat="45.18088" lon="4.83529">
        <ele>133.67500305176</ele>
        <time>2010-10-16T12:25:06Z</time>
      </trkpt>
      <trkpt lat="45.18105" lon="4.83487">
        <ele>134.12600708008</ele>
        <time>2010-10-16T12:25:10Z</time>
      </trkpt>
      <trkpt lat="45.18102" lon="4.83452">
        <ele>134.38999938965</ele>
        <time>2010-10-16T12:25:13Z</time>
      </trkpt>
      <trkpt lat="45.18087" lon="4.83425">
        <ele>134.85000610352</ele>
        <time>2010-10-16T12:25:16Z</time>
      </trkpt>
      <trkpt lat="45.18081" lon="4.83417">
        <ele>135.06700134277</ele>
        <time>2010-10-16T12:25:17Z</time>
      </trkpt>
      <trkpt lat="45.1803" lon="4.83359">
        <ele>137.85800170898</ele>
        <time>2010-10-16T12:25:26Z</time>
      </trkpt>
      <trkpt lat="45.18007" lon="4.83322">
        <ele>138.85499572754</ele>
        <time>2010-10-16T12:25:31Z</time>
      </trkpt>
      <trkpt lat="45.17975" lon="4.83296">
        <ele>137.92500305176</ele>
        <time>2010-10-16T12:25:36Z</time>
      </trkpt>
      <trkpt lat="45.17952" lon="4.83299">
        <ele>137.08000183106</ele>
        <time>2010-10-16T12:25:39Z</time>
      </trkpt>
      <trkpt lat="45.17944" lon="4.83303">
        <ele>136.70700073242</ele>
        <time>2010-10-16T12:25:40Z</time>
      </trkpt>
      <trkpt lat="45.17919" lon="4.83317">
        <ele>135.32699584961</ele>
        <time>2010-10-16T12:25:43Z</time>
      </trkpt>
      <trkpt lat="45.17876" lon="4.83335">
        <ele>133.25300598144</ele>
        <time>2010-10-16T12:25:48Z</time>
      </trkpt>
      <trkpt lat="45.17831" lon="4.83337">
        <ele>132.12199401856</ele>
        <time>2010-10-16T12:25:53Z</time>
      </trkpt>
      <trkpt lat="45.17804" lon="4.83331">
        <ele>131.8390045166</ele>
        <time>2010-10-16T12:25:56Z</time>
      </trkpt>
      <trkpt lat="45.17776" lon="4.83306">
        <ele>132.01400756836</ele>
        <time>2010-10-16T12:26:00Z</time>
      </trkpt>
      <trkpt lat="45.17761" lon="4.83276">
        <ele>132.05400085449</ele>
        <time>2010-10-16T12:26:03Z</time>
      </trkpt>
      <trkpt lat="45.1773" lon="4.83181">
        <ele>130.47799682617</ele>
        <time>2010-10-16T12:26:11Z</time>
      </trkpt>
      <trkpt lat="45.17715" lon="4.83114">
        <ele>132.02699279785</ele>
        <time>2010-10-16T12:26:16Z</time>
      </trkpt>
      <trkpt lat="45.17706" lon="4.83039">
        <ele>132.10099792481</ele>
        <time>2010-10-16T12:26:22Z</time>
      </trkpt>
      <trkpt lat="45.17691" lon="4.82989">
        <ele>132.45599365234</ele>
        <time>2010-10-16T12:26:26Z</time>
      </trkpt>
      <trkpt lat="45.17667" lon="4.82964">
        <ele>132.64700317383</ele>
        <time>2010-10-16T12:26:29Z</time>
      </trkpt>
      <trkpt lat="45.17638" lon="4.8296">
        <ele>132.62399291992</ele>
        <time>2010-10-16T12:26:32Z</time>
      </trkpt>
      <trkpt lat="45.17619" lon="4.82967">
        <ele>132.50700378418</ele>
        <time>2010-10-16T12:26:34Z</time>
      </trkpt>
      <trkpt lat="45.17534" lon="4.83002">
        <ele>133.00300598144</ele>
        <time>2010-10-16T12:26:43Z</time>
      </trkpt>
      <trkpt lat="45.1749" lon="4.83016">
        <ele>133.80799865723</ele>
        <time>2010-10-16T12:26:48Z</time>
      </trkpt>
      <trkpt lat="45.17455" lon="4.8301">
        <ele>134.46499633789</ele>
        <time>2010-10-16T12:26:52Z</time>
      </trkpt>
      <trkpt lat="45.17438" lon="4.83">
        <ele>134.53999328613</ele>
        <time>2010-10-16T12:26:54Z</time>
      </trkpt>
      <trkpt lat="45.17391" lon="4.82958">
        <ele>134.54100036621</ele>
        <time>2010-10-16T12:27:00Z</time>
      </trkpt>
      <trkpt lat="45.17363" lon="4.82899">
        <ele>132.36500549316</ele>
        <time>2010-10-16T12:27:05Z</time>
      </trkpt>
      <trkpt lat="45.17362" lon="4.82853">
        <ele>130.43099975586</ele>
        <time>2010-10-16T12:27:08Z</time>
      </trkpt>
      <trkpt lat="45.17365" lon="4.82837">
        <ele>129.67300415039</ele>
        <time>2010-10-16T12:27:09Z</time>
      </trkpt>
      <trkpt lat="45.17372" lon="4.82806">
        <ele>129.05299377441</ele>
        <time>2010-10-16T12:27:11Z</time>
      </trkpt>
      <trkpt lat="45.17386" lon="4.82757">
        <ele>130.30900573731</ele>
        <time>2010-10-16T12:27:14Z</time>
      </trkpt>
      <trkpt lat="45.17409" lon="4.82693">
        <ele>128.18899536133</ele>
        <time>2010-10-16T12:27:18Z</time>
      </trkpt>
      <trkpt lat="45.1742" lon="4.82624">
        <ele>127.64900207519</ele>
        <time>2010-10-16T12:27:22Z</time>
      </trkpt>
      <trkpt lat="45.17409" lon="4.82578">
        <ele>126.54100036621</ele>
        <time>2010-10-16T12:27:25Z</time>
      </trkpt>
      <trkpt lat="45.17396" lon="4.82553">
        <ele>126.32199859619</ele>
        <time>2010-10-16T12:27:27Z</time>
      </trkpt>
      <trkpt lat="45.17359" lon="4.82498">
        <ele>123.29399871826</ele>
        <time>2010-10-16T12:27:32Z</time>
      </trkpt>
      <trkpt lat="45.1733" lon="4.82438">
        <ele>123.67700195312</ele>
        <time>2010-10-16T12:27:37Z</time>
      </trkpt>
      <trkpt lat="45.17311" lon="4.82395">
        <ele>124.15399932861</ele>
        <time>2010-10-16T12:27:41Z</time>
      </trkpt>
      <trkpt lat="45.17303" lon="4.82342">
        <ele>124.68199920654</ele>
        <time>2010-10-16T12:27:46Z</time>
      </trkpt>
      <trkpt lat="45.17308" lon="4.82302">
        <ele>124.90399932861</ele>
        <time>2010-10-16T12:27:50Z</time>
      </trkpt>
      <trkpt lat="45.17327" lon="4.82272">
        <ele>126.07499694824</ele>
        <time>2010-10-16T12:27:54Z</time>
      </trkpt>
      <trkpt lat="45.17339" lon="4.82262">
        <ele>126.06500244141</ele>
        <time>2010-10-16T12:27:56Z</time>
      </trkpt>
      <trkpt lat="45.17391" lon="4.82224">
        <ele>124.33000183106</ele>
        <time>2010-10-16T12:28:04Z</time>
      </trkpt>
      <trkpt lat="45.17454" lon="4.82178">
        <ele>122.51399993897</ele>
        <time>2010-10-16T12:28:13Z</time>
      </trkpt>
      <trkpt lat="45.17482" lon="4.82167">
        <ele>122.44499969482</ele>
        <time>2010-10-16T12:28:17Z</time>
      </trkpt>
      <trkpt lat="45.17506" lon="4.82148">
        <ele>121.82299804688</ele>
        <time>2010-10-16T12:28:21Z</time>
      </trkpt>
      <trkpt lat="45.17518" lon="4.82138">
        <ele>121.62999725342</ele>
        <time>2010-10-16T12:28:23Z</time>
      </trkpt>
      <trkpt lat="45.17544" lon="4.82107">
        <ele>120.93699645996</ele>
        <time>2010-10-16T12:28:27Z</time>
      </trkpt>
      <trkpt lat="45.1759" lon="4.82046">
        <ele>119.1669998169</ele>
        <time>2010-10-16T12:28:35Z</time>
      </trkpt>
      <trkpt lat="45.17621" lon="4.8198">
        <ele>118.75900268555</ele>
        <time>2010-10-16T12:28:42Z</time>
      </trkpt>
      <trkpt lat="45.17653" lon="4.81934">
        <ele>118.98600006103</ele>
        <time>2010-10-16T12:28:48Z</time>
      </trkpt>
      <trkpt lat="45.17664" lon="4.81922">
        <ele>119.14900207519</ele>
        <time>2010-10-16T12:28:50Z</time>
      </trkpt>
      <trkpt lat="45.17689" lon="4.81912">
        <ele>118.87799835205</ele>
        <time>2010-10-16T12:28:54Z</time>
      </trkpt>
      <trkpt lat="45.1769" lon="4.81895">
        <ele>118.83100128174</ele>
        <time>2010-10-16T12:28:56Z</time>
      </trkpt>
      <trkpt lat="45.17682" lon="4.81872">
        <ele>119.48300170898</ele>
        <time>2010-10-16T12:28:59Z</time>
      </trkpt>
      <trkpt lat="45.17685" lon="4.81855">
        <ele>118.45300292969</ele>
        <time>2010-10-16T12:29:01Z</time>
      </trkpt>
      <trkpt lat="45.17692" lon="4.8183">
        <ele>116.96600341797</ele>
        <time>2010-10-16T12:29:04Z</time>
      </trkpt>
      <trkpt lat="45.17713" lon="4.8176">
        <ele>117.43499755859</ele>
        <time>2010-10-16T12:29:12Z</time>
      </trkpt>
      <trkpt lat="45.17718" lon="4.81723">
        <ele>117.89800262451</ele>
        <time>2010-10-16T12:29:16Z</time>
      </trkpt>
      <trkpt lat="45.17717" lon="4.81713">
        <ele>117.625</ele>
        <time>2010-10-16T12:29:17Z</time>
      </trkpt>
      <trkpt lat="45.17716" lon="4.8164">
        <ele>116.61399841309</ele>
        <time>2010-10-16T12:29:24Z</time>
      </trkpt>
      <trkpt lat="45.17712" lon="4.81569">
        <ele>117.23999786377</ele>
        <time>2010-10-16T12:29:31Z</time>
      </trkpt>
      <trkpt lat="45.17721" lon="4.81533">
        <ele>117.91000366211</ele>
        <time>2010-10-16T12:29:35Z</time>
      </trkpt>
      <trkpt lat="45.17739" lon="4.81474">
        <ele>118.72499847412</ele>
        <time>2010-10-16T12:29:42Z</time>
      </trkpt>
      <trkpt lat="45.17741" lon="4.81466">
        <ele>118.92700195312</ele>
        <time>2010-10-16T12:29:43Z</time>
      </trkpt>
      <trkpt lat="45.17748" lon="4.81443">
        <ele>119.20099639893</ele>
        <time>2010-10-16T12:29:46Z</time>
      </trkpt>
      <trkpt lat="45.17765" lon="4.81424">
        <ele>119.71499633789</ele>
        <time>2010-10-16T12:29:50Z</time>
      </trkpt>
      <trkpt lat="45.17774" lon="4.81415">
        <ele>119.48999786377</ele>
        <time>2010-10-16T12:29:52Z</time>
      </trkpt>
      <trkpt lat="45.17777" lon="4.81386">
        <ele>119.41000366211</ele>
        <time>2010-10-16T12:29:56Z</time>
      </trkpt>
      <trkpt lat="45.17768" lon="4.81354">
        <ele>118.34899902344</ele>
        <time>2010-10-16T12:30:00Z</time>
      </trkpt>
      <trkpt lat="45.17773" lon="4.81339">
        <ele>117.84999847412</ele>
        <time>2010-10-16T12:30:02Z</time>
      </trkpt>
      <trkpt lat="45.17789" lon="4.81331">
        <ele>117.32900238037</ele>
        <time>2010-10-16T12:30:05Z</time>
      </trkpt>
      <trkpt lat="45.17815" lon="4.81326">
        <ele>117.95700073242</ele>
        <time>2010-10-16T12:30:10Z</time>
      </trkpt>
      <trkpt lat="45.17834" lon="4.81325">
        <ele>117.78299713135</ele>
        <time>2010-10-16T12:30:14Z</time>
      </trkpt>
      <trkpt lat="45.17878" lon="4.81342">
        <ele>116.98300170898</ele>
        <time>2010-10-16T12:30:22Z</time>
      </trkpt>
      <trkpt lat="45.1792" lon="4.8136">
        <ele>117.06999969482</ele>
        <time>2010-10-16T12:30:29Z</time>
      </trkpt>
      <trkpt lat="45.17971" lon="4.81375">
        <ele>116.84200286865</ele>
        <time>2010-10-16T12:30:37Z</time>
      </trkpt>
      <trkpt lat="45.18028" lon="4.81394">
        <ele>116.89800262451</ele>
        <time>2010-10-16T12:30:46Z</time>
      </trkpt>
      <trkpt lat="45.18088" lon="4.81406">
        <ele>117.09300231934</ele>
        <time>2010-10-16T12:30:55Z</time>
      </trkpt>
      <trkpt lat="45.18136" lon="4.8141">
        <ele>117.31700134277</ele>
        <time>2010-10-16T12:31:02Z</time>
      </trkpt>
      <trkpt lat="45.182" lon="4.81397">
        <ele>117.17500305176</ele>
        <time>2010-10-16T12:31:11Z</time>
      </trkpt>
      <trkpt lat="45.18255" lon="4.8139">
        <ele>117.40200042725</ele>
        <time>2010-10-16T12:31:19Z</time>
      </trkpt>
      <trkpt lat="45.18304" lon="4.81389">
        <ele>118.45999908447</ele>
        <time>2010-10-16T12:31:26Z</time>
      </trkpt>
      <trkpt lat="45.18348" lon="4.81383">
        <ele>120.04699707031</ele>
        <time>2010-10-16T12:31:33Z</time>
      </trkpt>
      <trkpt lat="45.18375" lon="4.81379">
        <ele>122.23999786377</ele>
        <time>2010-10-16T12:31:38Z</time>
      </trkpt>
      <trkpt lat="45.18414" lon="4.81386">
        <ele>124.85299682617</ele>
        <time>2010-10-16T12:31:46Z</time>
      </trkpt>
      <trkpt lat="45.18427" lon="4.81395">
        <ele>125.12200164795</ele>
        <time>2010-10-16T12:31:49Z</time>
      </trkpt>
      <trkpt lat="45.18443" lon="4.81387">
        <ele>125.12200164795</ele>
        <time>2010-10-16T12:31:53Z</time>
      </trkpt>
      <trkpt lat="45.18441" lon="4.81362">
        <ele>125.52799987793</ele>
        <time>2010-10-16T12:31:56Z</time>
      </trkpt>
      <trkpt lat="45.18438" lon="4.81355">
        <ele>125.51999664307</ele>
        <time>2010-10-16T12:31:57Z</time>
      </trkpt>
      <trkpt lat="45.18423" lon="4.81279">
        <ele>127.65799713135</ele>
        <time>2010-10-16T12:32:07Z</time>
      </trkpt>
      <trkpt lat="45.18408" lon="4.81204">
        <ele>128.81300354004</ele>
        <time>2010-10-16T12:32:17Z</time>
      </trkpt>
      <trkpt lat="45.18398" lon="4.81154">
        <ele>128.94400024414</ele>
        <time>2010-10-16T12:32:23Z</time>
      </trkpt>
      <trkpt lat="45.18388" lon="4.81099">
        <ele>127.49199676514</ele>
        <time>2010-10-16T12:32:29Z</time>
      </trkpt>
      <trkpt lat="45.1837" lon="4.81001">
        <ele>124.40699768066</ele>
        <time>2010-10-16T12:32:39Z</time>
      </trkpt>
      <trkpt lat="45.18364" lon="4.80927">
        <ele>122.46399688721</ele>
        <time>2010-10-16T12:32:46Z</time>
      </trkpt>
      <trkpt lat="45.18365" lon="4.80894">
        <ele>121.64099884033</ele>
        <time>2010-10-16T12:32:49Z</time>
      </trkpt>
      <trkpt lat="45.18372" lon="4.80851">
        <ele>120.51399993897</ele>
        <time>2010-10-16T12:32:53Z</time>
      </trkpt>
      <trkpt lat="45.18377" lon="4.8083">
        <ele>119.797996521</ele>
        <time>2010-10-16T12:32:55Z</time>
      </trkpt>
      <trkpt lat="45.18382" lon="4.8081">
        <ele>119.59300231934</ele>
        <time>2010-10-16T12:32:57Z</time>
      </trkpt>
      <trkpt lat="45.18403" lon="4.80787">
        <ele>118.7379989624</ele>
        <time>2010-10-16T12:33:01Z</time>
      </trkpt>
      <trkpt lat="45.18423" lon="4.80795">
        <ele>117.85399627685</ele>
        <time>2010-10-16T12:33:04Z</time>
      </trkpt>
      <trkpt lat="45.18457" lon="4.80817">
        <ele>116.28600311279</ele>
        <time>2010-10-16T12:33:09Z</time>
      </trkpt>
      <trkpt lat="45.18491" lon="4.8082">
        <ele>116.27200317383</ele>
        <time>2010-10-16T12:33:14Z</time>
      </trkpt>
      <trkpt lat="45.18537" lon="4.80814">
        <ele>115.89399719238</ele>
        <time>2010-10-16T12:33:21Z</time>
      </trkpt>
      <trkpt lat="45.18582" lon="4.80805">
        <ele>115.88500213623</ele>
        <time>2010-10-16T12:33:28Z</time>
      </trkpt>
      <trkpt lat="45.18618" lon="4.8079">
        <ele>115.80000305176</ele>
        <time>2010-10-16T12:33:34Z</time>
      </trkpt>
      <trkpt lat="45.18645" lon="4.80768">
        <ele>115.95099639893</ele>
        <time>2010-10-16T12:33:39Z</time>
      </trkpt>
      <trkpt lat="45.18665" lon="4.8075">
        <ele>116.86100006103</ele>
        <time>2010-10-16T12:33:43Z</time>
      </trkpt>
      <trkpt lat="45.18676" lon="4.80722">
        <ele>116.44100189209</ele>
        <time>2010-10-16T12:33:47Z</time>
      </trkpt>
      <trkpt lat="45.18676" lon="4.80704">
        <ele>116.47899627685</ele>
        <time>2010-10-16T12:33:49Z</time>
      </trkpt>
      <trkpt lat="45.18673" lon="4.80608">
        <ele>116.42600250244</ele>
        <time>2010-10-16T12:34:00Z</time>
      </trkpt>
      <trkpt lat="45.18671" lon="4.80495">
        <ele>117.01100158691</ele>
        <time>2010-10-16T12:34:13Z</time>
      </trkpt>
      <trkpt lat="45.18669" lon="4.80428">
        <ele>117.1190032959</ele>
        <time>2010-10-16T12:34:21Z</time>
      </trkpt>
      <trkpt lat="45.18668" lon="4.80378">
        <ele>117.36599731445</ele>
        <time>2010-10-16T12:34:27Z</time>
      </trkpt>
      <trkpt lat="45.18667" lon="4.8031">
        <ele>118.03199768066</ele>
        <time>2010-10-16T12:34:35Z</time>
      </trkpt>
      <trkpt lat="45.18667" lon="4.80246">
        <ele>118.54599761963</ele>
        <time>2010-10-16T12:34:43Z</time>
      </trkpt>
      <trkpt lat="45.18667" lon="4.80176">
        <ele>118.51000213623</ele>
        <time>2010-10-16T12:34:52Z</time>
      </trkpt>
      <trkpt lat="45.18673" lon="4.8015">
        <ele>119.01000213623</ele>
        <time>2010-10-16T12:34:56Z</time>
      </trkpt>
      <trkpt lat="45.1867" lon="4.8013">
        <ele>120.26000213623</ele>
        <time>2010-10-16T12:34:59Z</time>
      </trkpt>
      <trkpt lat="45.18672" lon="4.80113">
        <ele>121.0120010376</ele>
        <time>2010-10-16T12:35:02Z</time>
      </trkpt>
      <trkpt lat="45.18672" lon="4.80075">
        <ele>121.47399902344</ele>
        <time>2010-10-16T12:35:08Z</time>
      </trkpt>
      <trkpt lat="45.18671" lon="4.80034">
        <ele>121.93699645996</ele>
        <time>2010-10-16T12:35:14Z</time>
      </trkpt>
      <trkpt lat="45.1867" lon="4.79985">
        <ele>122.46199798584</ele>
        <time>2010-10-16T12:35:22Z</time>
      </trkpt>
      <trkpt lat="45.18669" lon="4.79957">
        <ele>123.17700195312</ele>
        <time>2010-10-16T12:35:29Z</time>
      </trkpt>
      <trkpt lat="45.18668" lon="4.79943">
        <ele>123.57299804688</ele>
        <time>2010-10-16T12:35:36Z</time>
      </trkpt>
      <trkpt lat="45.18668" lon="4.79942">
        <ele>123.59300231934</ele>
        <time>2010-10-16T12:35:38Z</time>
      </trkpt>
      <trkpt lat="45.1867" lon="4.79927">
        <ele>123.49600219727</ele>
        <time>2010-10-16T12:35:51Z</time>
      </trkpt>
      <trkpt lat="45.18665" lon="4.79898">
        <ele>123.60299682617</ele>
        <time>2010-10-16T12:35:56Z</time>
      </trkpt>
      <trkpt lat="45.18665" lon="4.7987">
        <ele>123.63999938965</ele>
        <time>2010-10-16T12:36:01Z</time>
      </trkpt>
      <trkpt lat="45.18664" lon="4.79833">
        <ele>125.03099822998</ele>
        <time>2010-10-16T12:36:07Z</time>
      </trkpt>
      <trkpt lat="45.18663" lon="4.79814">
        <ele>125.31500244141</ele>
        <time>2010-10-16T12:36:10Z</time>
      </trkpt>
      <trkpt lat="45.18665" lon="4.79764">
        <ele>125.71399688721</ele>
        <time>2010-10-16T12:36:18Z</time>
      </trkpt>
      <trkpt lat="45.18668" lon="4.7973">
        <ele>126.66200256348</ele>
        <time>2010-10-16T12:36:23Z</time>
      </trkpt>
      <trkpt lat="45.18668" lon="4.79724">
        <ele>127.14099884033</ele>
        <time>2010-10-16T12:36:24Z</time>
      </trkpt>
      <trkpt lat="45.18671" lon="4.79678">
        <ele>128.74099731445</ele>
        <time>2010-10-16T12:36:32Z</time>
      </trkpt>
      <trkpt lat="45.18673" lon="4.7966">
        <ele>129.48599243164</ele>
        <time>2010-10-16T12:36:35Z</time>
      </trkpt>
      <trkpt lat="45.18675" lon="4.79631">
        <ele>130.39399719238</ele>
        <time>2010-10-16T12:36:40Z</time>
      </trkpt>
      <trkpt lat="45.18677" lon="4.79601">
        <ele>131.32600402832</ele>
        <time>2010-10-16T12:36:46Z</time>
      </trkpt>
      <trkpt lat="45.18679" lon="4.79565">
        <ele>132.54200744629</ele>
        <time>2010-10-16T12:36:53Z</time>
      </trkpt>
      <trkpt lat="45.18677" lon="4.79533">
        <ele>133.60099792481</ele>
        <time>2010-10-16T12:36:59Z</time>
      </trkpt>
      <trkpt lat="45.18667" lon="4.79505">
        <ele>134.87199401856</ele>
        <time>2010-10-16T12:37:05Z</time>
      </trkpt>
      <trkpt lat="45.18665" lon="4.79501">
        <ele>135.06500244141</ele>
        <time>2010-10-16T12:37:06Z</time>
      </trkpt>
      <trkpt lat="45.18625" lon="4.79463">
        <ele>137.21499633789</ele>
        <time>2010-10-16T12:37:17Z</time>
      </trkpt>
      <trkpt lat="45.18597" lon="4.79437">
        <ele>139.69700622559</ele>
        <time>2010-10-16T12:37:25Z</time>
      </trkpt>
      <trkpt lat="45.18573" lon="4.79415">
        <ele>141.45500183106</ele>
        <time>2010-10-16T12:37:32Z</time>
      </trkpt>
      <trkpt lat="45.1854" lon="4.79384">
        <ele>143.6309967041</ele>
        <time>2010-10-16T12:37:42Z</time>
      </trkpt>
      <trkpt lat="45.1851" lon="4.79356">
        <ele>145.60800170898</ele>
        <time>2010-10-16T12:37:51Z</time>
      </trkpt>
      <trkpt lat="45.18475" lon="4.7933">
        <ele>147.88299560547</ele>
        <time>2010-10-16T12:38:01Z</time>
      </trkpt>
      <trkpt lat="45.18441" lon="4.7931">
        <ele>149.86599731445</ele>
        <time>2010-10-16T12:38:10Z</time>
      </trkpt>
      <trkpt lat="45.18419" lon="4.79285">
        <ele>151.5119934082</ele>
        <time>2010-10-16T12:38:17Z</time>
      </trkpt>
      <trkpt lat="45.18394" lon="4.79247">
        <ele>153.41200256348</ele>
        <time>2010-10-16T12:38:26Z</time>
      </trkpt>
      <trkpt lat="45.18378" lon="4.79228">
        <ele>154.68899536133</ele>
        <time>2010-10-16T12:38:31Z</time>
      </trkpt>
      <trkpt lat="45.18351" lon="4.79202">
        <ele>156.49099731445</ele>
        <time>2010-10-16T12:38:39Z</time>
      </trkpt>
      <trkpt lat="45.1832" lon="4.79171">
        <ele>158.85000610352</ele>
        <time>2010-10-16T12:38:49Z</time>
      </trkpt>
      <trkpt lat="45.18299" lon="4.7914">
        <ele>160.73599243164</ele>
        <time>2010-10-16T12:38:57Z</time>
      </trkpt>
      <trkpt lat="45.1829" lon="4.79117">
        <ele>161.80299377441</ele>
        <time>2010-10-16T12:39:02Z</time>
      </trkpt>
      <trkpt lat="45.1828" lon="4.79085">
        <ele>163.52699279785</ele>
        <time>2010-10-16T12:39:09Z</time>
      </trkpt>
      <trkpt lat="45.18269" lon="4.79056">
        <ele>164.77799987793</ele>
        <time>2010-10-16T12:39:15Z</time>
      </trkpt>
      <trkpt lat="45.18257" lon="4.7903">
        <ele>165.90299987793</ele>
        <time>2010-10-16T12:39:20Z</time>
      </trkpt>
      <trkpt lat="45.18252" lon="4.7902">
        <ele>166.36999511719</ele>
        <time>2010-10-16T12:39:22Z</time>
      </trkpt>
      <trkpt lat="45.18229" lon="4.79004">
        <ele>166.94099426269</ele>
        <time>2010-10-16T12:39:28Z</time>
      </trkpt>
      <trkpt lat="45.1821" lon="4.7901">
        <ele>168.4109954834</ele>
        <time>2010-10-16T12:39:33Z</time>
      </trkpt>
      <trkpt lat="45.18203" lon="4.79">
        <ele>169.375</ele>
        <time>2010-10-16T12:39:36Z</time>
      </trkpt>
      <trkpt lat="45.18201" lon="4.78965">
        <ele>170.78399658203</ele>
        <time>2010-10-16T12:39:43Z</time>
      </trkpt>
      <trkpt lat="45.18202" lon="4.78935">
        <ele>173.04200744629</ele>
        <time>2010-10-16T12:39:49Z</time>
      </trkpt>
      <trkpt lat="45.18199" lon="4.789">
        <ele>174.97700500488</ele>
        <time>2010-10-16T12:39:56Z</time>
      </trkpt>
      <trkpt lat="45.182" lon="4.78874">
        <ele>176.77699279785</ele>
        <time>2010-10-16T12:40:02Z</time>
      </trkpt>
      <trkpt lat="45.18198" lon="4.78856">
        <ele>178.27400207519</ele>
        <time>2010-10-16T12:40:07Z</time>
      </trkpt>
      <trkpt lat="45.18193" lon="4.78834">
        <ele>179.10899353027</ele>
        <time>2010-10-16T12:40:11Z</time>
      </trkpt>
      <trkpt lat="45.1819" lon="4.78799">
        <ele>180.69299316406</ele>
        <time>2010-10-16T12:40:17Z</time>
      </trkpt>
      <trkpt lat="45.1819" lon="4.7875">
        <ele>182.1369934082</ele>
        <time>2010-10-16T12:40:25Z</time>
      </trkpt>
      <trkpt lat="45.18191" lon="4.78712">
        <ele>183.88600158691</ele>
        <time>2010-10-16T12:40:32Z</time>
      </trkpt>
      <trkpt lat="45.18192" lon="4.78707">
        <ele>184.01699829102</ele>
        <time>2010-10-16T12:40:33Z</time>
      </trkpt>
      <trkpt lat="45.18204" lon="4.78693">
        <ele>183.9940032959</ele>
        <time>2010-10-16T12:40:37Z</time>
      </trkpt>
      <trkpt lat="45.18221" lon="4.78699">
        <ele>184.64799499512</ele>
        <time>2010-10-16T12:40:41Z</time>
      </trkpt>
      <trkpt lat="45.18226" lon="4.7872">
        <ele>185.85099792481</ele>
        <time>2010-10-16T12:40:45Z</time>
      </trkpt>
      <trkpt lat="45.18226" lon="4.78725">
        <ele>186.20599365234</ele>
        <time>2010-10-16T12:40:46Z</time>
      </trkpt>
      <trkpt lat="45.1823" lon="4.78767">
        <ele>188.55900573731</ele>
        <time>2010-10-16T12:40:55Z</time>
      </trkpt>
      <trkpt lat="45.1824" lon="4.78807">
        <ele>191.29100036621</ele>
        <time>2010-10-16T12:41:04Z</time>
      </trkpt>
      <trkpt lat="45.18253" lon="4.78844">
        <ele>193.69299316406</ele>
        <time>2010-10-16T12:41:12Z</time>
      </trkpt>
      <trkpt lat="45.18262" lon="4.78885">
        <ele>196.08999633789</ele>
        <time>2010-10-16T12:41:20Z</time>
      </trkpt>
      <trkpt lat="45.18279" lon="4.78934">
        <ele>198.94500732422</ele>
        <time>2010-10-16T12:41:30Z</time>
      </trkpt>
      <trkpt lat="45.18293" lon="4.78977">
        <ele>201.48100280762</ele>
        <time>2010-10-16T12:41:39Z</time>
      </trkpt>
      <trkpt lat="45.18309" lon="4.79007">
        <ele>203.22300720215</ele>
        <time>2010-10-16T12:41:46Z</time>
      </trkpt>
      <trkpt lat="45.18331" lon="4.79036">
        <ele>205.99600219727</ele>
        <time>2010-10-16T12:41:54Z</time>
      </trkpt>
      <trkpt lat="45.18351" lon="4.79055">
        <ele>208.65199279785</ele>
        <time>2010-10-16T12:42:01Z</time>
      </trkpt>
      <trkpt lat="45.18375" lon="4.79076">
        <ele>211.16900634766</ele>
        <time>2010-10-16T12:42:09Z</time>
      </trkpt>
      <trkpt lat="45.18399" lon="4.79103">
        <ele>211.7799987793</ele>
        <time>2010-10-16T12:42:17Z</time>
      </trkpt>
      <trkpt lat="45.1842" lon="4.79111">
        <ele>213.86999511719</ele>
        <time>2010-10-16T12:42:23Z</time>
      </trkpt>
      <trkpt lat="45.18438" lon="4.79121">
        <ele>215.19400024414</ele>
        <time>2010-10-16T12:42:29Z</time>
      </trkpt>
      <trkpt lat="45.18459" lon="4.79121">
        <ele>216.82099914551</ele>
        <time>2010-10-16T12:42:35Z</time>
      </trkpt>
      <trkpt lat="45.18471" lon="4.79108">
        <ele>216.97099304199</ele>
        <time>2010-10-16T12:42:39Z</time>
      </trkpt>
      <trkpt lat="45.18495" lon="4.79067">
        <ele>218.41700744629</ele>
        <time>2010-10-16T12:42:48Z</time>
      </trkpt>
      <trkpt lat="45.18504" lon="4.79043">
        <ele>219.72799682617</ele>
        <time>2010-10-16T12:42:53Z</time>
      </trkpt>
      <trkpt lat="45.18501" lon="4.79022">
        <ele>221.44099426269</ele>
        <time>2010-10-16T12:42:58Z</time>
      </trkpt>
      <trkpt lat="45.18496" lon="4.79001">
        <ele>223.39199829102</ele>
        <time>2010-10-16T12:43:04Z</time>
      </trkpt>
      <trkpt lat="45.18489" lon="4.7897">
        <ele>224.96000671387</ele>
        <time>2010-10-16T12:43:11Z</time>
      </trkpt>
      <trkpt lat="45.18489" lon="4.78966">
        <ele>225.29400634766</ele>
        <time>2010-10-16T12:43:12Z</time>
      </trkpt>
      <trkpt lat="45.18499" lon="4.7895">
        <ele>225.84300231934</ele>
        <time>2010-10-16T12:43:16Z</time>
      </trkpt>
      <trkpt lat="45.18502" lon="4.78949">
        <ele>225.99600219727</ele>
        <time>2010-10-16T12:43:17Z</time>
      </trkpt>
      <trkpt lat="45.18519" lon="4.78928">
        <ele>228.38400268555</ele>
        <time>2010-10-16T12:43:23Z</time>
      </trkpt>
      <trkpt lat="45.18519" lon="4.78922">
        <ele>228.86500549316</ele>
        <time>2010-10-16T12:43:24Z</time>
      </trkpt>
      <trkpt lat="45.18517" lon="4.78905">
        <ele>230.20700073242</ele>
        <time>2010-10-16T12:43:27Z</time>
      </trkpt>
      <trkpt lat="45.1851" lon="4.78876">
        <ele>232.54600524902</ele>
        <time>2010-10-16T12:43:33Z</time>
      </trkpt>
      <trkpt lat="45.18511" lon="4.78861">
        <ele>233.78199768066</ele>
        <time>2010-10-16T12:43:36Z</time>
      </trkpt>
      <trkpt lat="45.1852" lon="4.7883">
        <ele>235.89799499512</ele>
        <time>2010-10-16T12:43:43Z</time>
      </trkpt>
      <trkpt lat="45.18525" lon="4.78816">
        <ele>236.66000366211</ele>
        <time>2010-10-16T12:43:46Z</time>
      </trkpt>
      <trkpt lat="45.1854" lon="4.78814">
        <ele>236.96099853516</ele>
        <time>2010-10-16T12:43:50Z</time>
      </trkpt>
      <trkpt lat="45.18561" lon="4.78836">
        <ele>237.75100708008</ele>
        <time>2010-10-16T12:43:56Z</time>
      </trkpt>
      <trkpt lat="45.18576" lon="4.78841">
        <ele>239.00100708008</ele>
        <time>2010-10-16T12:44:00Z</time>
      </trkpt>
      <trkpt lat="45.18583" lon="4.78836">
        <ele>239.81199645996</ele>
        <time>2010-10-16T12:44:02Z</time>
      </trkpt>
      <trkpt lat="45.18615" lon="4.78818">
        <ele>243.06700134277</ele>
        <time>2010-10-16T12:44:11Z</time>
      </trkpt>
      <trkpt lat="45.1863" lon="4.78819">
        <ele>244.01899719238</ele>
        <time>2010-10-16T12:44:15Z</time>
      </trkpt>
      <trkpt lat="45.18643" lon="4.78832">
        <ele>245.15400695801</ele>
        <time>2010-10-16T12:44:19Z</time>
      </trkpt>
      <trkpt lat="45.18645" lon="4.78844">
        <ele>246.2799987793</ele>
        <time>2010-10-16T12:44:21Z</time>
      </trkpt>
      <trkpt lat="45.18647" lon="4.78856">
        <ele>246.84899902344</ele>
        <time>2010-10-16T12:44:23Z</time>
      </trkpt>
      <trkpt lat="45.18659" lon="4.78877">
        <ele>248.38200378418</ele>
        <time>2010-10-16T12:44:28Z</time>
      </trkpt>
      <trkpt lat="45.18669" lon="4.78899">
        <ele>250.16799926758</ele>
        <time>2010-10-16T12:44:33Z</time>
      </trkpt>
      <trkpt lat="45.18676" lon="4.78924">
        <ele>251.87300109863</ele>
        <time>2010-10-16T12:44:38Z</time>
      </trkpt>
      <trkpt lat="45.18698" lon="4.78954">
        <ele>254.50799560547</ele>
        <time>2010-10-16T12:44:46Z</time>
      </trkpt>
      <trkpt lat="45.18729" lon="4.78963">
        <ele>257.11898803711</ele>
        <time>2010-10-16T12:44:55Z</time>
      </trkpt>
      <trkpt lat="45.18747" lon="4.78967">
        <ele>258.32501220703</ele>
        <time>2010-10-16T12:45:01Z</time>
      </trkpt>
      <trkpt lat="45.18772" lon="4.78967">
        <ele>260.42199707031</ele>
        <time>2010-10-16T12:45:09Z</time>
      </trkpt>
      <trkpt lat="45.18797" lon="4.78954">
        <ele>262.44400024414</ele>
        <time>2010-10-16T12:45:17Z</time>
      </trkpt>
      <trkpt lat="45.18815" lon="4.78932">
        <ele>264.69400024414</ele>
        <time>2010-10-16T12:45:25Z</time>
      </trkpt>
      <trkpt lat="45.18835" lon="4.78914">
        <ele>266.84399414062</ele>
        <time>2010-10-16T12:45:33Z</time>
      </trkpt>
      <trkpt lat="45.18853" lon="4.78908">
        <ele>267.94900512695</ele>
        <time>2010-10-16T12:45:38Z</time>
      </trkpt>
      <trkpt lat="45.18865" lon="4.78893">
        <ele>269.92199707031</ele>
        <time>2010-10-16T12:45:42Z</time>
      </trkpt>
      <trkpt lat="45.1887" lon="4.78872">
        <ele>270.68499755859</ele>
        <time>2010-10-16T12:45:46Z</time>
      </trkpt>
      <trkpt lat="45.18862" lon="4.78866">
        <ele>272.19400024414</ele>
        <time>2010-10-16T12:45:50Z</time>
      </trkpt>
      <trkpt lat="45.18859" lon="4.78874">
        <ele>272.62701416016</ele>
        <time>2010-10-16T12:45:52Z</time>
      </trkpt>
      <trkpt lat="45.18848" lon="4.78891">
        <ele>274.34399414062</ele>
        <time>2010-10-16T12:45:57Z</time>
      </trkpt>
      <trkpt lat="45.18832" lon="4.7889">
        <ele>275.56799316406</ele>
        <time>2010-10-16T12:46:02Z</time>
      </trkpt>
      <trkpt lat="45.18805" lon="4.78877">
        <ele>277.88101196289</ele>
        <time>2010-10-16T12:46:11Z</time>
      </trkpt>
      <trkpt lat="45.1879" lon="4.78867">
        <ele>279.12399291992</ele>
        <time>2010-10-16T12:46:16Z</time>
      </trkpt>
      <trkpt lat="45.18782" lon="4.78849">
        <ele>280.86801147461</ele>
        <time>2010-10-16T12:46:21Z</time>
      </trkpt>
      <trkpt lat="45.18781" lon="4.78824">
        <ele>282.88101196289</ele>
        <time>2010-10-16T12:46:27Z</time>
      </trkpt>
      <trkpt lat="45.18777" lon="4.78786">
        <ele>285.79598999023</ele>
        <time>2010-10-16T12:46:37Z</time>
      </trkpt>
      <trkpt lat="45.18774" lon="4.78748">
        <ele>287.44799804688</ele>
        <time>2010-10-16T12:46:46Z</time>
      </trkpt>
      <trkpt lat="45.1877" lon="4.78721">
        <ele>288.39001464844</ele>
        <time>2010-10-16T12:46:52Z</time>
      </trkpt>
      <trkpt lat="45.18764" lon="4.78698">
        <ele>290.08700561523</ele>
        <time>2010-10-16T12:46:58Z</time>
      </trkpt>
      <trkpt lat="45.18753" lon="4.78657">
        <ele>293</ele>
        <time>2010-10-16T12:47:09Z</time>
      </trkpt>
      <trkpt lat="45.1875" lon="4.78627">
        <ele>294.40600585938</ele>
        <time>2010-10-16T12:47:16Z</time>
      </trkpt>
      <trkpt lat="45.1875" lon="4.78593">
        <ele>295.04998779297</ele>
        <time>2010-10-16T12:47:23Z</time>
      </trkpt>
      <trkpt lat="45.18741" lon="4.78547">
        <ele>295.1130065918</ele>
        <time>2010-10-16T12:47:31Z</time>
      </trkpt>
      <trkpt lat="45.18727" lon="4.78491">
        <ele>295.95901489258</ele>
        <time>2010-10-16T12:47:40Z</time>
      </trkpt>
      <trkpt lat="45.18715" lon="4.78444">
        <ele>297.99301147461</ele>
        <time>2010-10-16T12:47:48Z</time>
      </trkpt>
      <trkpt lat="45.187" lon="4.78407">
        <ele>298.87399291992</ele>
        <time>2010-10-16T12:47:55Z</time>
      </trkpt>
      <trkpt lat="45.18687" lon="4.78362">
        <ele>299.41799926758</ele>
        <time>2010-10-16T12:48:02Z</time>
      </trkpt>
      <trkpt lat="45.18669" lon="4.78301">
        <ele>299.81100463867</ele>
        <time>2010-10-16T12:48:11Z</time>
      </trkpt>
      <trkpt lat="45.18658" lon="4.78241">
        <ele>301.18899536133</ele>
        <time>2010-10-16T12:48:19Z</time>
      </trkpt>
      <trkpt lat="45.1865" lon="4.78186">
        <ele>302.81799316406</ele>
        <time>2010-10-16T12:48:27Z</time>
      </trkpt>
      <trkpt lat="45.18639" lon="4.78141">
        <ele>304.10198974609</ele>
        <time>2010-10-16T12:48:34Z</time>
      </trkpt>
      <trkpt lat="45.18618" lon="4.78077">
        <ele>308.45401000977</ele>
        <time>2010-10-16T12:48:44Z</time>
      </trkpt>
      <trkpt lat="45.18616" lon="4.7807">
        <ele>308.73901367188</ele>
        <time>2010-10-16T12:48:45Z</time>
      </trkpt>
      <trkpt lat="45.18609" lon="4.78046">
        <ele>311.04800415039</ele>
        <time>2010-10-16T12:48:49Z</time>
      </trkpt>
      <trkpt lat="45.18603" lon="4.7803">
        <ele>312.74798583984</ele>
        <time>2010-10-16T12:48:52Z</time>
      </trkpt>
      <trkpt lat="45.18581" lon="4.77995">
        <ele>315.64498901367</ele>
        <time>2010-10-16T12:49:00Z</time>
      </trkpt>
      <trkpt lat="45.18562" lon="4.7796">
        <ele>317.93301391602</ele>
        <time>2010-10-16T12:49:08Z</time>
      </trkpt>
      <trkpt lat="45.18545" lon="4.77928">
        <ele>320.16101074219</ele>
        <time>2010-10-16T12:49:16Z</time>
      </trkpt>
      <trkpt lat="45.18533" lon="4.77916">
        <ele>321.58801269531</ele>
        <time>2010-10-16T12:49:21Z</time>
      </trkpt>
      <trkpt lat="45.18533" lon="4.77902">
        <ele>322.63000488281</ele>
        <time>2010-10-16T12:49:25Z</time>
      </trkpt>
      <trkpt lat="45.1854" lon="4.77905">
        <ele>323.3869934082</ele>
        <time>2010-10-16T12:49:28Z</time>
      </trkpt>
      <trkpt lat="45.18542" lon="4.77908">
        <ele>323.60501098633</ele>
        <time>2010-10-16T12:49:29Z</time>
      </trkpt>
      <trkpt lat="45.18561" lon="4.77923">
        <ele>324.99200439453</ele>
        <time>2010-10-16T12:49:36Z</time>
      </trkpt>
      <trkpt lat="45.1858" lon="4.77937">
        <ele>326.6969909668</ele>
        <time>2010-10-16T12:49:43Z</time>
      </trkpt>
      <trkpt lat="45.18594" lon="4.77951">
        <ele>328.31298828125</ele>
        <time>2010-10-16T12:49:49Z</time>
      </trkpt>
      <trkpt lat="45.18613" lon="4.7796">
        <ele>330.07400512695</ele>
        <time>2010-10-16T12:49:56Z</time>
      </trkpt>
      <trkpt lat="45.18621" lon="4.77951">
        <ele>331.80899047852</ele>
        <time>2010-10-16T12:49:59Z</time>
      </trkpt>
      <trkpt lat="45.18622" lon="4.77947">
        <ele>332.07501220703</ele>
        <time>2010-10-16T12:50:00Z</time>
      </trkpt>
      <trkpt lat="45.18625" lon="4.77919">
        <ele>334.38500976562</ele>
        <time>2010-10-16T12:50:06Z</time>
      </trkpt>
      <trkpt lat="45.18626" lon="4.77911">
        <ele>335.25399780273</ele>
        <time>2010-10-16T12:50:08Z</time>
      </trkpt>
      <trkpt lat="45.18632" lon="4.77876">
        <ele>338.25</ele>
        <time>2010-10-16T12:50:17Z</time>
      </trkpt>
      <trkpt lat="45.18635" lon="4.77843">
        <ele>339.90100097656</ele>
        <time>2010-10-16T12:50:25Z</time>
      </trkpt>
      <trkpt lat="45.18639" lon="4.77807">
        <ele>341.51901245117</ele>
        <time>2010-10-16T12:50:33Z</time>
      </trkpt>
      <trkpt lat="45.18641" lon="4.77771">
        <ele>342.97399902344</ele>
        <time>2010-10-16T12:50:41Z</time>
      </trkpt>
      <trkpt lat="45.18642" lon="4.7773">
        <ele>344.49200439453</ele>
        <time>2010-10-16T12:50:50Z</time>
      </trkpt>
      <trkpt lat="45.18637" lon="4.77704">
        <ele>345.56201171875</ele>
        <time>2010-10-16T12:50:56Z</time>
      </trkpt>
      <trkpt lat="45.18628" lon="4.77673">
        <ele>347.40701293945</ele>
        <time>2010-10-16T12:51:04Z</time>
      </trkpt>
      <trkpt lat="45.18615" lon="4.77634">
        <ele>349.62298583984</ele>
        <time>2010-10-16T12:51:14Z</time>
      </trkpt>
      <trkpt lat="45.18605" lon="4.77601">
        <ele>351.75100708008</ele>
        <time>2010-10-16T12:51:23Z</time>
      </trkpt>
      <trkpt lat="45.18598" lon="4.77578">
        <ele>353.43701171875</ele>
        <time>2010-10-16T12:51:30Z</time>
      </trkpt>
      <trkpt lat="45.18592" lon="4.77557">
        <ele>355.4700012207</ele>
        <time>2010-10-16T12:51:37Z</time>
      </trkpt>
      <trkpt lat="45.18583" lon="4.77532">
        <ele>356.74099731445</ele>
        <time>2010-10-16T12:51:44Z</time>
      </trkpt>
      <trkpt lat="45.18575" lon="4.77515">
        <ele>357.66799926758</ele>
        <time>2010-10-16T12:51:50Z</time>
      </trkpt>
      <trkpt lat="45.18575" lon="4.77508">
        <ele>358.10800170898</ele>
        <time>2010-10-16T12:51:52Z</time>
      </trkpt>
      <trkpt lat="45.18579" lon="4.77498">
        <ele>358.69000244141</ele>
        <time>2010-10-16T12:51:56Z</time>
      </trkpt>
      <trkpt lat="45.1859" lon="4.7748">
        <ele>359.50601196289</ele>
        <time>2010-10-16T12:52:03Z</time>
      </trkpt>
      <trkpt lat="45.18596" lon="4.77467">
        <ele>360.29000854492</ele>
        <time>2010-10-16T12:52:07Z</time>
      </trkpt>
      <trkpt lat="45.18612" lon="4.77436">
        <ele>361.04501342773</ele>
        <time>2010-10-16T12:52:16Z</time>
      </trkpt>
      <trkpt lat="45.18624" lon="4.77404">
        <ele>362.21200561523</ele>
        <time>2010-10-16T12:52:25Z</time>
      </trkpt>
      <trkpt lat="45.18629" lon="4.77371">
        <ele>362.77600097656</ele>
        <time>2010-10-16T12:52:32Z</time>
      </trkpt>
      <trkpt lat="45.18634" lon="4.77316">
        <ele>363.38800048828</ele>
        <time>2010-10-16T12:52:42Z</time>
      </trkpt>
      <trkpt lat="45.18636" lon="4.77274">
        <ele>364.38000488281</ele>
        <time>2010-10-16T12:52:50Z</time>
      </trkpt>
      <trkpt lat="45.18639" lon="4.77229">
        <ele>365.97399902344</ele>
        <time>2010-10-16T12:52:59Z</time>
      </trkpt>
      <trkpt lat="45.18637" lon="4.77195">
        <ele>367.5710144043</ele>
        <time>2010-10-16T12:53:06Z</time>
      </trkpt>
      <trkpt lat="45.18634" lon="4.77151">
        <ele>368.5710144043</ele>
        <time>2010-10-16T12:53:15Z</time>
      </trkpt>
      <trkpt lat="45.18635" lon="4.77112">
        <ele>368.84899902344</ele>
        <time>2010-10-16T12:53:22Z</time>
      </trkpt>
      <trkpt lat="45.18642" lon="4.77082">
        <ele>368.90200805664</ele>
        <time>2010-10-16T12:53:29Z</time>
      </trkpt>
      <trkpt lat="45.18648" lon="4.77061">
        <ele>368.43099975586</ele>
        <time>2010-10-16T12:53:34Z</time>
      </trkpt>
      <trkpt lat="45.18657" lon="4.77037">
        <ele>367.9580078125</ele>
        <time>2010-10-16T12:53:40Z</time>
      </trkpt>
      <trkpt lat="45.18661" lon="4.77029">
        <ele>367.62399291992</ele>
        <time>2010-10-16T12:53:42Z</time>
      </trkpt>
      <trkpt lat="45.1867" lon="4.7701">
        <ele>366.7619934082</ele>
        <time>2010-10-16T12:53:46Z</time>
      </trkpt>
      <trkpt lat="45.18661" lon="4.76989">
        <ele>365.39401245117</ele>
        <time>2010-10-16T12:53:50Z</time>
      </trkpt>
      <trkpt lat="45.18641" lon="4.76979">
        <ele>365.14099121094</ele>
        <time>2010-10-16T12:53:54Z</time>
      </trkpt>
      <trkpt lat="45.18609" lon="4.76975">
        <ele>365.76400756836</ele>
        <time>2010-10-16T12:54:01Z</time>
      </trkpt>
      <trkpt lat="45.1857" lon="4.7697">
        <ele>367.45901489258</ele>
        <time>2010-10-16T12:54:10Z</time>
      </trkpt>
      <trkpt lat="45.18535" lon="4.76969">
        <ele>368.39300537109</ele>
        <time>2010-10-16T12:54:18Z</time>
      </trkpt>
      <trkpt lat="45.185" lon="4.76968">
        <ele>369.27600097656</ele>
        <time>2010-10-16T12:54:25Z</time>
      </trkpt>
      <trkpt lat="45.18456" lon="4.76967">
        <ele>369.06201171875</ele>
        <time>2010-10-16T12:54:33Z</time>
      </trkpt>
      <trkpt lat="45.18431" lon="4.76967">
        <ele>368.65301513672</ele>
        <time>2010-10-16T12:54:37Z</time>
      </trkpt>
      <trkpt lat="45.18409" lon="4.76951">
        <ele>367.9700012207</ele>
        <time>2010-10-16T12:54:41Z</time>
      </trkpt>
      <trkpt lat="45.18406" lon="4.76935">
        <ele>367.88198852539</ele>
        <time>2010-10-16T12:54:43Z</time>
      </trkpt>
      <trkpt lat="45.18396" lon="4.76847">
        <ele>368.89199829102</ele>
        <time>2010-10-16T12:54:53Z</time>
      </trkpt>
      <trkpt lat="45.18375" lon="4.7677">
        <ele>369.52899169922</ele>
        <time>2010-10-16T12:55:02Z</time>
      </trkpt>
      <trkpt lat="45.18357" lon="4.76704">
        <ele>370.27200317383</ele>
        <time>2010-10-16T12:55:10Z</time>
      </trkpt>
      <trkpt lat="45.18348" lon="4.7663">
        <ele>371.26501464844</ele>
        <time>2010-10-16T12:55:19Z</time>
      </trkpt>
      <trkpt lat="45.18345" lon="4.76563">
        <ele>370.90701293945</ele>
        <time>2010-10-16T12:55:27Z</time>
      </trkpt>
      <trkpt lat="45.18335" lon="4.76518">
        <ele>369.15399169922</ele>
        <time>2010-10-16T12:55:32Z</time>
      </trkpt>
      <trkpt lat="45.1834" lon="4.76486">
        <ele>367.20300292969</ele>
        <time>2010-10-16T12:55:36Z</time>
      </trkpt>
      <trkpt lat="45.18352" lon="4.76474">
        <ele>365.4289855957</ele>
        <time>2010-10-16T12:55:38Z</time>
      </trkpt>
      <trkpt lat="45.18366" lon="4.76462">
        <ele>364.07000732422</ele>
        <time>2010-10-16T12:55:40Z</time>
      </trkpt>
      <trkpt lat="45.18422" lon="4.76432">
        <ele>358.34600830078</ele>
        <time>2010-10-16T12:55:46Z</time>
      </trkpt>
      <trkpt lat="45.18438" lon="4.76423">
        <ele>357.02801513672</ele>
        <time>2010-10-16T12:55:48Z</time>
      </trkpt>
      <trkpt lat="45.1845" lon="4.76398">
        <ele>355.38500976562</ele>
        <time>2010-10-16T12:55:51Z</time>
      </trkpt>
      <trkpt lat="45.18444" lon="4.76374">
        <ele>352.95901489258</ele>
        <time>2010-10-16T12:55:53Z</time>
      </trkpt>
      <trkpt lat="45.18436" lon="4.76351">
        <ele>352.12298583984</ele>
        <time>2010-10-16T12:55:55Z</time>
      </trkpt>
      <trkpt lat="45.18423" lon="4.76309">
        <ele>352.24301147461</ele>
        <time>2010-10-16T12:55:59Z</time>
      </trkpt>
      <trkpt lat="45.18399" lon="4.76271">
        <ele>353.60299682617</ele>
        <time>2010-10-16T12:56:04Z</time>
      </trkpt>
      <trkpt lat="45.18394" lon="4.76265">
        <ele>353.88299560547</ele>
        <time>2010-10-16T12:56:05Z</time>
      </trkpt>
      <trkpt lat="45.18366" lon="4.76243">
        <ele>355.01098632812</ele>
        <time>2010-10-16T12:56:10Z</time>
      </trkpt>
      <trkpt lat="45.18341" lon="4.76205">
        <ele>356.05899047852</ele>
        <time>2010-10-16T12:56:16Z</time>
      </trkpt>
      <trkpt lat="45.18314" lon="4.76149">
        <ele>354.56698608398</ele>
        <time>2010-10-16T12:56:23Z</time>
      </trkpt>
      <trkpt lat="45.1831" lon="4.76141">
        <ele>354.33700561523</ele>
        <time>2010-10-16T12:56:24Z</time>
      </trkpt>
      <trkpt lat="45.18273" lon="4.76091">
        <ele>350.53399658203</ele>
        <time>2010-10-16T12:56:31Z</time>
      </trkpt>
      <trkpt lat="45.18268" lon="4.76084">
        <ele>350.24200439453</ele>
        <time>2010-10-16T12:56:32Z</time>
      </trkpt>
      <trkpt lat="45.1824" lon="4.76073">
        <ele>347.77200317383</ele>
        <time>2010-10-16T12:56:36Z</time>
      </trkpt>
      <trkpt lat="45.18194" lon="4.76082">
        <ele>348.73400878906</ele>
        <time>2010-10-16T12:56:43Z</time>
      </trkpt>
      <trkpt lat="45.18156" lon="4.76082">
        <ele>347.91799926758</ele>
        <time>2010-10-16T12:56:48Z</time>
      </trkpt>
      <trkpt lat="45.18122" lon="4.76074">
        <ele>348.60101318359</ele>
        <time>2010-10-16T12:56:53Z</time>
      </trkpt>
      <trkpt lat="45.18079" lon="4.76059">
        <ele>348.92001342773</ele>
        <time>2010-10-16T12:57:00Z</time>
      </trkpt>
      <trkpt lat="45.1805" lon="4.76046">
        <ele>349.90301513672</ele>
        <time>2010-10-16T12:57:06Z</time>
      </trkpt>
      <trkpt lat="45.18019" lon="4.76036">
        <ele>351.86199951172</ele>
        <time>2010-10-16T12:57:12Z</time>
      </trkpt>
      <trkpt lat="45.18003" lon="4.76028">
        <ele>352.35198974609</ele>
        <time>2010-10-16T12:57:15Z</time>
      </trkpt>
      <trkpt lat="45.17998" lon="4.76024">
        <ele>352.6369934082</ele>
        <time>2010-10-16T12:57:16Z</time>
      </trkpt>
      <trkpt lat="45.17985" lon="4.7601">
        <ele>353.44799804688</ele>
        <time>2010-10-16T12:57:19Z</time>
      </trkpt>
      <trkpt lat="45.17971" lon="4.75985">
        <ele>354.97198486328</ele>
        <time>2010-10-16T12:57:24Z</time>
      </trkpt>
      <trkpt lat="45.17953" lon="4.75961">
        <ele>358.14898681641</ele>
        <time>2010-10-16T12:57:31Z</time>
      </trkpt>
      <trkpt lat="45.17951" lon="4.7596">
        <ele>358.37600708008</ele>
        <time>2010-10-16T12:57:32Z</time>
      </trkpt>
      <trkpt lat="45.17934" lon="4.75956">
        <ele>360.64300537109</ele>
        <time>2010-10-16T12:57:38Z</time>
      </trkpt>
      <trkpt lat="45.17914" lon="4.75958">
        <ele>363.08200073242</ele>
        <time>2010-10-16T12:57:46Z</time>
      </trkpt>
      <trkpt lat="45.17893" lon="4.75963">
        <ele>364.33700561523</ele>
        <time>2010-10-16T12:57:53Z</time>
      </trkpt>
      <trkpt lat="45.17871" lon="4.7597">
        <ele>364.56100463867</ele>
        <time>2010-10-16T12:57:59Z</time>
      </trkpt>
      <trkpt lat="45.17863" lon="4.75974">
        <ele>364.79901123047</ele>
        <time>2010-10-16T12:58:01Z</time>
      </trkpt>
      <trkpt lat="45.17834" lon="4.75986">
        <ele>366.37100219727</ele>
        <time>2010-10-16T12:58:09Z</time>
      </trkpt>
      <trkpt lat="45.17794" lon="4.75997">
        <ele>367.71200561523</ele>
        <time>2010-10-16T12:58:19Z</time>
      </trkpt>
      <trkpt lat="45.1779" lon="4.75998">
        <ele>367.92498779297</ele>
        <time>2010-10-16T12:58:20Z</time>
      </trkpt>
      <trkpt lat="45.17782" lon="4.76001">
        <ele>368.16000366211</ele>
        <time>2010-10-16T12:58:22Z</time>
      </trkpt>
      <trkpt lat="45.17766" lon="4.76019">
        <ele>368.02801513672</ele>
        <time>2010-10-16T12:58:27Z</time>
      </trkpt>
      <trkpt lat="45.17762" lon="4.76023">
        <ele>367.95700073242</ele>
        <time>2010-10-16T12:58:28Z</time>
      </trkpt>
      <trkpt lat="45.17733" lon="4.76045">
        <ele>365.93600463867</ele>
        <time>2010-10-16T12:58:34Z</time>
      </trkpt>
      <trkpt lat="45.1772" lon="4.76051">
        <ele>364.76098632812</ele>
        <time>2010-10-16T12:58:36Z</time>
      </trkpt>
      <trkpt lat="45.17693" lon="4.76058">
        <ele>362.8219909668</ele>
        <time>2010-10-16T12:58:40Z</time>
      </trkpt>
      <trkpt lat="45.17676" lon="4.76077">
        <ele>362.0419921875</ele>
        <time>2010-10-16T12:58:44Z</time>
      </trkpt>
      <trkpt lat="45.17684" lon="4.76089">
        <ele>361.9289855957</ele>
        <time>2010-10-16T12:58:46Z</time>
      </trkpt>
      <trkpt lat="45.17715" lon="4.76117">
        <ele>363.75799560547</ele>
        <time>2010-10-16T12:58:54Z</time>
      </trkpt>
      <trkpt lat="45.17737" lon="4.7613">
        <ele>365.58801269531</ele>
        <time>2010-10-16T12:59:00Z</time>
      </trkpt>
      <trkpt lat="45.1775" lon="4.76148">
        <ele>367.37100219727</ele>
        <time>2010-10-16T12:59:05Z</time>
      </trkpt>
      <trkpt lat="45.17746" lon="4.76171">
        <ele>369.15200805664</ele>
        <time>2010-10-16T12:59:10Z</time>
      </trkpt>
      <trkpt lat="45.17744" lon="4.76175">
        <ele>369.4289855957</ele>
        <time>2010-10-16T12:59:11Z</time>
      </trkpt>
      <trkpt lat="45.17736" lon="4.76195">
        <ele>371.82901000977</ele>
        <time>2010-10-16T12:59:16Z</time>
      </trkpt>
      <trkpt lat="45.17723" lon="4.76226">
        <ele>374.9460144043</ele>
        <time>2010-10-16T12:59:24Z</time>
      </trkpt>
      <trkpt lat="45.17711" lon="4.76243">
        <ele>377.73400878906</ele>
        <time>2010-10-16T12:59:30Z</time>
      </trkpt>
      <trkpt lat="45.17692" lon="4.76251">
        <ele>380.26901245117</ele>
        <time>2010-10-16T12:59:37Z</time>
      </trkpt>
      <trkpt lat="45.17675" lon="4.76253">
        <ele>382.18099975586</ele>
        <time>2010-10-16T12:59:43Z</time>
      </trkpt>
      <trkpt lat="45.17657" lon="4.76253">
        <ele>384.57699584961</ele>
        <time>2010-10-16T12:59:49Z</time>
      </trkpt>
      <trkpt lat="45.17646" lon="4.76253">
        <ele>386.40399169922</ele>
        <time>2010-10-16T12:59:53Z</time>
      </trkpt>
      <trkpt lat="45.17628" lon="4.76251">
        <ele>389.06799316406</ele>
        <time>2010-10-16T13:00:00Z</time>
      </trkpt>
      <trkpt lat="45.17614" lon="4.76251">
        <ele>390.87399291992</ele>
        <time>2010-10-16T13:00:06Z</time>
      </trkpt>
      <trkpt lat="45.17599" lon="4.76253">
        <ele>392.58999633789</ele>
        <time>2010-10-16T13:00:12Z</time>
      </trkpt>
      <trkpt lat="45.17584" lon="4.76261">
        <ele>394.3210144043</ele>
        <time>2010-10-16T13:00:19Z</time>
      </trkpt>
      <trkpt lat="45.17566" lon="4.76276">
        <ele>395.68899536133</ele>
        <time>2010-10-16T13:00:27Z</time>
      </trkpt>
      <trkpt lat="45.17556" lon="4.76289">
        <ele>396.40798950195</ele>
        <time>2010-10-16T13:00:32Z</time>
      </trkpt>
      <trkpt lat="45.17544" lon="4.7631">
        <ele>397.31900024414</ele>
        <time>2010-10-16T13:00:39Z</time>
      </trkpt>
      <trkpt lat="45.17532" lon="4.76329">
        <ele>397.08999633789</ele>
        <time>2010-10-16T13:00:44Z</time>
      </trkpt>
      <trkpt lat="45.17508" lon="4.76346">
        <ele>396.76098632812</ele>
        <time>2010-10-16T13:00:50Z</time>
      </trkpt>
      <trkpt lat="45.17487" lon="4.76343">
        <ele>396.85101318359</ele>
        <time>2010-10-16T13:00:55Z</time>
      </trkpt>
      <trkpt lat="45.17467" lon="4.7633">
        <ele>397.71701049805</ele>
        <time>2010-10-16T13:01:01Z</time>
      </trkpt>
      <trkpt lat="45.1745" lon="4.7632">
        <ele>398.52600097656</ele>
        <time>2010-10-16T13:01:06Z</time>
      </trkpt>
      <trkpt lat="45.17429" lon="4.76311">
        <ele>399.90399169922</ele>
        <time>2010-10-16T13:01:12Z</time>
      </trkpt>
      <trkpt lat="45.17398" lon="4.76298">
        <ele>401.10000610352</ele>
        <time>2010-10-16T13:01:20Z</time>
      </trkpt>
      <trkpt lat="45.17359" lon="4.76279">
        <ele>402.78298950195</ele>
        <time>2010-10-16T13:01:29Z</time>
      </trkpt>
      <trkpt lat="45.17313" lon="4.76258">
        <ele>404.39801025391</ele>
        <time>2010-10-16T13:01:38Z</time>
      </trkpt>
      <trkpt lat="45.17274" lon="4.76233">
        <ele>405.26998901367</ele>
        <time>2010-10-16T13:01:46Z</time>
      </trkpt>
      <trkpt lat="45.1724" lon="4.7622">
        <ele>405.74700927734</ele>
        <time>2010-10-16T13:01:52Z</time>
      </trkpt>
      <trkpt lat="45.17191" lon="4.76208">
        <ele>405.74301147461</ele>
        <time>2010-10-16T13:02:00Z</time>
      </trkpt>
      <trkpt lat="45.17128" lon="4.76198">
        <ele>407.03900146484</ele>
        <time>2010-10-16T13:02:10Z</time>
      </trkpt>
      <trkpt lat="45.17104" lon="4.76191">
        <ele>407.36199951172</ele>
        <time>2010-10-16T13:02:14Z</time>
      </trkpt>
      <trkpt lat="45.17078" lon="4.76183">
        <ele>407.28298950195</ele>
        <time>2010-10-16T13:02:18Z</time>
      </trkpt>
      <trkpt lat="45.17022" lon="4.76166">
        <ele>405.85299682617</ele>
        <time>2010-10-16T13:02:26Z</time>
      </trkpt>
      <trkpt lat="45.16986" lon="4.76152">
        <ele>404.84698486328</ele>
        <time>2010-10-16T13:02:31Z</time>
      </trkpt>
      <trkpt lat="45.16964" lon="4.76151">
        <ele>404.10699462891</ele>
        <time>2010-10-16T13:02:35Z</time>
      </trkpt>
      <trkpt lat="45.16958" lon="4.76151">
        <ele>404.17700195312</ele>
        <time>2010-10-16T13:02:39Z</time>
      </trkpt>
      <trkpt lat="45.16958" lon="4.7615">
        <ele>404.08599853516</ele>
        <time>2010-10-16T13:02:40Z</time>
      </trkpt>
      <trkpt lat="45.16957" lon="4.76156">
        <ele>403.94198608398</ele>
        <time>2010-10-16T13:03:54Z</time>
      </trkpt>
      <trkpt lat="45.16955" lon="4.76156">
        <ele>403.98199462891</ele>
        <time>2010-10-16T13:03:55Z</time>
      </trkpt>
      <trkpt lat="45.16946" lon="4.76154">
        <ele>404.43798828125</ele>
        <time>2010-10-16T13:04:01Z</time>
      </trkpt>
      <trkpt lat="45.16934" lon="4.7615">
        <ele>405.2919921875</ele>
        <time>2010-10-16T13:04:07Z</time>
      </trkpt>
      <trkpt lat="45.16918" lon="4.76145">
        <ele>406.37799072266</ele>
        <time>2010-10-16T13:04:13Z</time>
      </trkpt>
      <trkpt lat="45.16896" lon="4.76137">
        <ele>407.41101074219</ele>
        <time>2010-10-16T13:04:20Z</time>
      </trkpt>
      <trkpt lat="45.16872" lon="4.76126">
        <ele>408.44400024414</ele>
        <time>2010-10-16T13:04:26Z</time>
      </trkpt>
      <trkpt lat="45.16868" lon="4.76124">
        <ele>408.56600952148</ele>
        <time>2010-10-16T13:04:27Z</time>
      </trkpt>
      <trkpt lat="45.16845" lon="4.76108">
        <ele>409.6969909668</ele>
        <time>2010-10-16T13:04:33Z</time>
      </trkpt>
      <trkpt lat="45.16811" lon="4.76076">
        <ele>410.53698730469</ele>
        <time>2010-10-16T13:04:42Z</time>
      </trkpt>
      <trkpt lat="45.16779" lon="4.76046">
        <ele>411.30200195312</ele>
        <time>2010-10-16T13:04:50Z</time>
      </trkpt>
      <trkpt lat="45.16748" lon="4.76017">
        <ele>411.46899414062</ele>
        <time>2010-10-16T13:04:57Z</time>
      </trkpt>
      <trkpt lat="45.16709" lon="4.75976">
        <ele>411.48699951172</ele>
        <time>2010-10-16T13:05:05Z</time>
      </trkpt>
      <trkpt lat="45.16691" lon="4.75948">
        <ele>412.31298828125</ele>
        <time>2010-10-16T13:05:10Z</time>
      </trkpt>
      <trkpt lat="45.16676" lon="4.75946">
        <ele>412.76400756836</ele>
        <time>2010-10-16T13:05:14Z</time>
      </trkpt>
      <trkpt lat="45.16661" lon="4.75956">
        <ele>412.28601074219</ele>
        <time>2010-10-16T13:05:18Z</time>
      </trkpt>
      <trkpt lat="45.16636" lon="4.75961">
        <ele>410.75399780273</ele>
        <time>2010-10-16T13:05:23Z</time>
      </trkpt>
      <trkpt lat="45.16577" lon="4.75938">
        <ele>410.78500366211</ele>
        <time>2010-10-16T13:05:34Z</time>
      </trkpt>
      <trkpt lat="45.16544" lon="4.75925">
        <ele>412.25500488281</ele>
        <time>2010-10-16T13:05:41Z</time>
      </trkpt>
      <trkpt lat="45.16515" lon="4.75909">
        <ele>411.26699829102</ele>
        <time>2010-10-16T13:05:47Z</time>
      </trkpt>
      <trkpt lat="45.16483" lon="4.75892">
        <ele>408.55599975586</ele>
        <time>2010-10-16T13:05:52Z</time>
      </trkpt>
      <trkpt lat="45.16441" lon="4.75876">
        <ele>405.29699707031</ele>
        <time>2010-10-16T13:05:57Z</time>
      </trkpt>
      <trkpt lat="45.16431" lon="4.75872">
        <ele>405.03698730469</ele>
        <time>2010-10-16T13:05:58Z</time>
      </trkpt>
      <trkpt lat="45.16396" lon="4.7586">
        <ele>403.8330078125</ele>
        <time>2010-10-16T13:06:02Z</time>
      </trkpt>
      <trkpt lat="45.16354" lon="4.75861">
        <ele>403.55700683594</ele>
        <time>2010-10-16T13:06:07Z</time>
      </trkpt>
      <trkpt lat="45.16325" lon="4.75875">
        <ele>406.98400878906</ele>
        <time>2010-10-16T13:06:12Z</time>
      </trkpt>
      <trkpt lat="45.16303" lon="4.75887">
        <ele>409.40100097656</ele>
        <time>2010-10-16T13:06:17Z</time>
      </trkpt>
      <trkpt lat="45.16291" lon="4.75893">
        <ele>410.65200805664</ele>
        <time>2010-10-16T13:06:20Z</time>
      </trkpt>
      <trkpt lat="45.1627" lon="4.75906">
        <ele>412.62200927734</ele>
        <time>2010-10-16T13:06:26Z</time>
      </trkpt>
      <trkpt lat="45.16252" lon="4.75918">
        <ele>414.09600830078</ele>
        <time>2010-10-16T13:06:31Z</time>
      </trkpt>
      <trkpt lat="45.16248" lon="4.75921">
        <ele>414.32998657227</ele>
        <time>2010-10-16T13:06:32Z</time>
      </trkpt>
      <trkpt lat="45.16228" lon="4.75936">
        <ele>415.0119934082</ele>
        <time>2010-10-16T13:06:37Z</time>
      </trkpt>
      <trkpt lat="45.16206" lon="4.75952">
        <ele>415.22198486328</ele>
        <time>2010-10-16T13:06:42Z</time>
      </trkpt>
      <trkpt lat="45.16166" lon="4.75982">
        <ele>415.51300048828</ele>
        <time>2010-10-16T13:06:50Z</time>
      </trkpt>
      <trkpt lat="45.16115" lon="4.76025">
        <ele>416.50698852539</ele>
        <time>2010-10-16T13:07:01Z</time>
      </trkpt>
      <trkpt lat="45.16075" lon="4.76053">
        <ele>418.29400634766</ele>
        <time>2010-10-16T13:07:10Z</time>
      </trkpt>
      <trkpt lat="45.16056" lon="4.76062">
        <ele>419.51699829102</ele>
        <time>2010-10-16T13:07:14Z</time>
      </trkpt>
      <trkpt lat="45.16043" lon="4.76066">
        <ele>420.85299682617</ele>
        <time>2010-10-16T13:07:17Z</time>
      </trkpt>
      <trkpt lat="45.1602" lon="4.76067">
        <ele>422.71099853516</ele>
        <time>2010-10-16T13:07:23Z</time>
      </trkpt>
      <trkpt lat="45.15996" lon="4.76064">
        <ele>423.55999755859</ele>
        <time>2010-10-16T13:07:29Z</time>
      </trkpt>
      <trkpt lat="45.15963" lon="4.76057">
        <ele>423.75</ele>
        <time>2010-10-16T13:07:37Z</time>
      </trkpt>
      <trkpt lat="45.15936" lon="4.76053">
        <ele>423.7080078125</ele>
        <time>2010-10-16T13:07:44Z</time>
      </trkpt>
      <trkpt lat="45.1592" lon="4.76054">
        <ele>423.62298583984</ele>
        <time>2010-10-16T13:07:48Z</time>
      </trkpt>
      <trkpt lat="45.15903" lon="4.76063">
        <ele>423.50799560547</ele>
        <time>2010-10-16T13:07:53Z</time>
      </trkpt>
      <trkpt lat="45.15899" lon="4.76068">
        <ele>423.5830078125</ele>
        <time>2010-10-16T13:07:55Z</time>
      </trkpt>
      <trkpt lat="45.15894" lon="4.76075">
        <ele>423.68499755859</ele>
        <time>2010-10-16T13:07:57Z</time>
      </trkpt>
      <trkpt lat="45.15892" lon="4.76078">
        <ele>423.71301269531</ele>
        <time>2010-10-16T13:07:58Z</time>
      </trkpt>
      <trkpt lat="45.15874" lon="4.7609">
        <ele>423.8219909668</ele>
        <time>2010-10-16T13:08:04Z</time>
      </trkpt>
      <trkpt lat="45.15859" lon="4.76092">
        <ele>423.62799072266</ele>
        <time>2010-10-16T13:08:08Z</time>
      </trkpt>
      <trkpt lat="45.15855" lon="4.76093">
        <ele>423.61999511719</ele>
        <time>2010-10-16T13:08:09Z</time>
      </trkpt>
      <trkpt lat="45.15838" lon="4.76102">
        <ele>423.47900390625</ele>
        <time>2010-10-16T13:08:14Z</time>
      </trkpt>
      <trkpt lat="45.15836" lon="4.76119">
        <ele>423.70300292969</ele>
        <time>2010-10-16T13:08:17Z</time>
      </trkpt>
      <trkpt lat="45.15838" lon="4.76158">
        <ele>423.62298583984</ele>
        <time>2010-10-16T13:08:24Z</time>
      </trkpt>
      <trkpt lat="45.15831" lon="4.76194">
        <ele>423.21301269531</ele>
        <time>2010-10-16T13:08:30Z</time>
      </trkpt>
      <trkpt lat="45.15825" lon="4.76239">
        <ele>421.0539855957</ele>
        <time>2010-10-16T13:08:36Z</time>
      </trkpt>
      <trkpt lat="45.15819" lon="4.76254">
        <ele>420.85501098633</ele>
        <time>2010-10-16T13:08:40Z</time>
      </trkpt>
      <trkpt lat="45.1581" lon="4.76261">
        <ele>420.54901123047</ele>
        <time>2010-10-16T13:08:43Z</time>
      </trkpt>
      <trkpt lat="45.15792" lon="4.76261">
        <ele>419.56201171875</ele>
        <time>2010-10-16T13:08:47Z</time>
      </trkpt>
      <trkpt lat="45.15776" lon="4.7626">
        <ele>419.36700439453</ele>
        <time>2010-10-16T13:08:52Z</time>
      </trkpt>
      <trkpt lat="45.15762" lon="4.76253">
        <ele>419.35900878906</ele>
        <time>2010-10-16T13:08:58Z</time>
      </trkpt>
      <trkpt lat="45.15757" lon="4.76248">
        <ele>419.35800170898</ele>
        <time>2010-10-16T13:09:04Z</time>
      </trkpt>
      <trkpt lat="45.15753" lon="4.7623">
        <ele>419.29400634766</ele>
        <time>2010-10-16T13:09:10Z</time>
      </trkpt>
      <trkpt lat="45.15752" lon="4.76228">
        <ele>419.43301391602</ele>
        <time>2010-10-16T13:09:11Z</time>
      </trkpt>
      <trkpt lat="45.15736" lon="4.76224">
        <ele>418.88101196289</ele>
        <time>2010-10-16T13:09:18Z</time>
      </trkpt>
      <trkpt lat="45.1573" lon="4.76224">
        <ele>417.97500610352</ele>
        <time>2010-10-16T13:09:23Z</time>
      </trkpt>
      <trkpt lat="45.1572" lon="4.76222">
        <ele>417.29699707031</ele>
        <time>2010-10-16T13:09:28Z</time>
      </trkpt>
      <trkpt lat="45.15712" lon="4.76222">
        <ele>416.37799072266</ele>
        <time>2010-10-16T13:09:30Z</time>
      </trkpt>
      <trkpt lat="45.1568" lon="4.76224">
        <ele>413.2200012207</ele>
        <time>2010-10-16T13:09:35Z</time>
      </trkpt>
      <trkpt lat="45.15665" lon="4.76228">
        <ele>412.62100219727</ele>
        <time>2010-10-16T13:09:38Z</time>
      </trkpt>
      <trkpt lat="45.15658" lon="4.76231">
        <ele>411.31799316406</ele>
        <time>2010-10-16T13:09:40Z</time>
      </trkpt>
      <trkpt lat="45.15651" lon="4.76235">
        <ele>411.31799316406</ele>
        <time>2010-10-16T13:09:42Z</time>
      </trkpt>
      <trkpt lat="45.15627" lon="4.76264">
        <ele>403.3330078125</ele>
        <time>2010-10-16T13:09:47Z</time>
      </trkpt>
      <trkpt lat="45.15616" lon="4.76313">
        <ele>398.10699462891</ele>
        <time>2010-10-16T13:09:51Z</time>
      </trkpt>
      <trkpt lat="45.15619" lon="4.76337">
        <ele>398.15200805664</ele>
        <time>2010-10-16T13:09:53Z</time>
      </trkpt>
      <trkpt lat="45.15624" lon="4.76366">
        <ele>399.22299194336</ele>
        <time>2010-10-16T13:09:56Z</time>
      </trkpt>
      <trkpt lat="45.15625" lon="4.76392">
        <ele>401.56399536133</ele>
        <time>2010-10-16T13:10:00Z</time>
      </trkpt>
      <trkpt lat="45.1562" lon="4.76415">
        <ele>402.66299438477</ele>
        <time>2010-10-16T13:10:04Z</time>
      </trkpt>
      <trkpt lat="45.15616" lon="4.76426">
        <ele>403.00900268555</ele>
        <time>2010-10-16T13:10:06Z</time>
      </trkpt>
      <trkpt lat="45.156" lon="4.7646">
        <ele>403.14401245117</ele>
        <time>2010-10-16T13:10:12Z</time>
      </trkpt>
      <trkpt lat="45.15584" lon="4.76515">
        <ele>403.43600463867</ele>
        <time>2010-10-16T13:10:20Z</time>
      </trkpt>
      <trkpt lat="45.15576" lon="4.76543">
        <ele>404.53500366211</ele>
        <time>2010-10-16T13:10:24Z</time>
      </trkpt>
      <trkpt lat="45.15574" lon="4.76556">
        <ele>405.45199584961</ele>
        <time>2010-10-16T13:10:26Z</time>
      </trkpt>
      <trkpt lat="45.15558" lon="4.76598">
        <ele>402.20401000977</ele>
        <time>2010-10-16T13:10:31Z</time>
      </trkpt>
      <trkpt lat="45.15549" lon="4.7662">
        <ele>399.71398925781</ele>
        <time>2010-10-16T13:10:33Z</time>
      </trkpt>
      <trkpt lat="45.15517" lon="4.76697">
        <ele>397.9880065918</ele>
        <time>2010-10-16T13:10:40Z</time>
      </trkpt>
      <trkpt lat="45.15497" lon="4.76741">
        <ele>398.75299072266</ele>
        <time>2010-10-16T13:10:45Z</time>
      </trkpt>
      <trkpt lat="45.15468" lon="4.76805">
        <ele>399.89099121094</ele>
        <time>2010-10-16T13:10:53Z</time>
      </trkpt>
      <trkpt lat="45.15464" lon="4.76812">
        <ele>400.01000976562</ele>
        <time>2010-10-16T13:10:54Z</time>
      </trkpt>
      <trkpt lat="45.15446" lon="4.7685">
        <ele>398.50399780273</ele>
        <time>2010-10-16T13:11:00Z</time>
      </trkpt>
      <trkpt lat="45.1544" lon="4.76869">
        <ele>397.26800537109</ele>
        <time>2010-10-16T13:11:05Z</time>
      </trkpt>
      <trkpt lat="45.1544" lon="4.76873">
        <ele>397.62298583984</ele>
        <time>2010-10-16T13:11:09Z</time>
      </trkpt>
      <trkpt lat="45.15443" lon="4.7687">
        <ele>397.5719909668</ele>
        <time>2010-10-16T13:11:25Z</time>
      </trkpt>
      <trkpt lat="45.15443" lon="4.76868">
        <ele>397.55599975586</ele>
        <time>2010-10-16T13:11:26Z</time>
      </trkpt>
      <trkpt lat="45.15443" lon="4.76862">
        <ele>397.53900146484</ele>
        <time>2010-10-16T13:11:29Z</time>
      </trkpt>
      <trkpt lat="45.15438" lon="4.76856">
        <ele>398.14401245117</ele>
        <time>2010-10-16T13:11:34Z</time>
      </trkpt>
      <trkpt lat="45.15435" lon="4.76847">
        <ele>398.73498535156</ele>
        <time>2010-10-16T13:11:39Z</time>
      </trkpt>
      <trkpt lat="45.15434" lon="4.76845">
        <ele>398.90100097656</ele>
        <time>2010-10-16T13:11:40Z</time>
      </trkpt>
      <trkpt lat="45.15425" lon="4.76828">
        <ele>400.58801269531</ele>
        <time>2010-10-16T13:11:47Z</time>
      </trkpt>
      <trkpt lat="45.15416" lon="4.7681">
        <ele>401.31799316406</ele>
        <time>2010-10-16T13:11:53Z</time>
      </trkpt>
      <trkpt lat="45.15403" lon="4.76784">
        <ele>403.32501220703</ele>
        <time>2010-10-16T13:12:00Z</time>
      </trkpt>
      <trkpt lat="45.15391" lon="4.76758">
        <ele>405.1969909668</ele>
        <time>2010-10-16T13:12:07Z</time>
      </trkpt>
      <trkpt lat="45.15379" lon="4.76729">
        <ele>407.26901245117</ele>
        <time>2010-10-16T13:12:15Z</time>
      </trkpt>
      <trkpt lat="45.15366" lon="4.7669">
        <ele>410.28601074219</ele>
        <time>2010-10-16T13:12:25Z</time>
      </trkpt>
      <trkpt lat="45.15361" lon="4.76657">
        <ele>412.6780090332</ele>
        <time>2010-10-16T13:12:33Z</time>
      </trkpt>
      <trkpt lat="45.1536" lon="4.76648">
        <ele>413.1780090332</ele>
        <time>2010-10-16T13:12:35Z</time>
      </trkpt>
      <trkpt lat="45.15354" lon="4.76611">
        <ele>415.35501098633</ele>
        <time>2010-10-16T13:12:43Z</time>
      </trkpt>
      <trkpt lat="45.15347" lon="4.76571">
        <ele>417.41299438477</ele>
        <time>2010-10-16T13:12:52Z</time>
      </trkpt>
      <trkpt lat="45.1534" lon="4.76521">
        <ele>420.05999755859</ele>
        <time>2010-10-16T13:13:03Z</time>
      </trkpt>
      <trkpt lat="45.15335" lon="4.76484">
        <ele>422.10501098633</ele>
        <time>2010-10-16T13:13:11Z</time>
      </trkpt>
      <trkpt lat="45.15336" lon="4.7645">
        <ele>423.43301391602</ele>
        <time>2010-10-16T13:13:18Z</time>
      </trkpt>
      <trkpt lat="45.15347" lon="4.76421">
        <ele>425.40100097656</ele>
        <time>2010-10-16T13:13:25Z</time>
      </trkpt>
      <trkpt lat="45.15346" lon="4.76402">
        <ele>426.23098754883</ele>
        <time>2010-10-16T13:13:29Z</time>
      </trkpt>
      <trkpt lat="45.15338" lon="4.76368">
        <ele>427.60198974609</ele>
        <time>2010-10-16T13:13:36Z</time>
      </trkpt>
      <trkpt lat="45.15329" lon="4.76331">
        <ele>428.34201049805</ele>
        <time>2010-10-16T13:13:43Z</time>
      </trkpt>
      <trkpt lat="45.15318" lon="4.76268">
        <ele>429.64801025391</ele>
        <time>2010-10-16T13:13:54Z</time>
      </trkpt>
      <trkpt lat="45.15315" lon="4.76216">
        <ele>431.35101318359</ele>
        <time>2010-10-16T13:14:03Z</time>
      </trkpt>
      <trkpt lat="45.15314" lon="4.76162">
        <ele>433.39498901367</ele>
        <time>2010-10-16T13:14:12Z</time>
      </trkpt>
      <trkpt lat="45.15311" lon="4.76131">
        <ele>434.40701293945</ele>
        <time>2010-10-16T13:14:17Z</time>
      </trkpt>
      <trkpt lat="45.15314" lon="4.76109">
        <ele>435.85800170898</ele>
        <time>2010-10-16T13:14:21Z</time>
      </trkpt>
      <trkpt lat="45.15329" lon="4.7607">
        <ele>437.61999511719</ele>
        <time>2010-10-16T13:14:28Z</time>
      </trkpt>
      <trkpt lat="45.15348" lon="4.76034">
        <ele>437.83200073242</ele>
        <time>2010-10-16T13:14:35Z</time>
      </trkpt>
      <trkpt lat="45.15361" lon="4.76012">
        <ele>437.79598999023</ele>
        <time>2010-10-16T13:14:39Z</time>
      </trkpt>
      <trkpt lat="45.15368" lon="4.76001">
        <ele>437.7799987793</ele>
        <time>2010-10-16T13:14:41Z</time>
      </trkpt>
      <trkpt lat="45.15387" lon="4.75973">
        <ele>438.48300170898</ele>
        <time>2010-10-16T13:14:47Z</time>
      </trkpt>
      <trkpt lat="45.1541" lon="4.75941">
        <ele>437.40100097656</ele>
        <time>2010-10-16T13:14:53Z</time>
      </trkpt>
      <trkpt lat="45.15419" lon="4.75929">
        <ele>436.76599121094</ele>
        <time>2010-10-16T13:14:55Z</time>
      </trkpt>
      <trkpt lat="45.1545" lon="4.75912">
        <ele>434.81201171875</ele>
        <time>2010-10-16T13:15:00Z</time>
      </trkpt>
      <trkpt lat="45.15468" lon="4.75915">
        <ele>434.82598876953</ele>
        <time>2010-10-16T13:15:03Z</time>
      </trkpt>
      <trkpt lat="45.1549" lon="4.75926">
        <ele>433.19100952148</ele>
        <time>2010-10-16T13:15:07Z</time>
      </trkpt>
      <trkpt lat="45.15503" lon="4.75932">
        <ele>432.32800292969</ele>
        <time>2010-10-16T13:15:09Z</time>
      </trkpt>
      <trkpt lat="45.15525" lon="4.75939">
        <ele>429.43600463867</ele>
        <time>2010-10-16T13:15:12Z</time>
      </trkpt>
      <trkpt lat="45.15557" lon="4.75946">
        <ele>427.52499389648</ele>
        <time>2010-10-16T13:15:16Z</time>
      </trkpt>
      <trkpt lat="45.15599" lon="4.75948">
        <ele>425.62899780273</ele>
        <time>2010-10-16T13:15:21Z</time>
      </trkpt>
      <trkpt lat="45.15607" lon="4.75948">
        <ele>425.35000610352</ele>
        <time>2010-10-16T13:15:22Z</time>
      </trkpt>
      <trkpt lat="45.15624" lon="4.75948">
        <ele>424.93600463867</ele>
        <time>2010-10-16T13:15:24Z</time>
      </trkpt>
      <trkpt lat="45.15675" lon="4.75951">
        <ele>422.7380065918</ele>
        <time>2010-10-16T13:15:30Z</time>
      </trkpt>
      <trkpt lat="45.15691" lon="4.75956">
        <ele>422.25</ele>
        <time>2010-10-16T13:15:32Z</time>
      </trkpt>
      <trkpt lat="45.1571" lon="4.75976">
        <ele>422.52899169922</ele>
        <time>2010-10-16T13:15:36Z</time>
      </trkpt>
      <trkpt lat="45.15714" lon="4.75991">
        <ele>422.23199462891</ele>
        <time>2010-10-16T13:15:38Z</time>
      </trkpt>
      <trkpt lat="45.15718" lon="4.76024">
        <ele>422.28100585938</ele>
        <time>2010-10-16T13:15:42Z</time>
      </trkpt>
      <trkpt lat="45.1573" lon="4.76052">
        <ele>422.21301269531</ele>
        <time>2010-10-16T13:15:46Z</time>
      </trkpt>
      <trkpt lat="45.1575" lon="4.76061">
        <ele>422.43099975586</ele>
        <time>2010-10-16T13:15:50Z</time>
      </trkpt>
      <trkpt lat="45.15768" lon="4.76077">
        <ele>422.40798950195</ele>
        <time>2010-10-16T13:15:54Z</time>
      </trkpt>
      <trkpt lat="45.15775" lon="4.76103">
        <ele>422.69500732422</ele>
        <time>2010-10-16T13:15:58Z</time>
      </trkpt>
      <trkpt lat="45.15775" lon="4.76109">
        <ele>422.85800170898</ele>
        <time>2010-10-16T13:15:59Z</time>
      </trkpt>
      <trkpt lat="45.15776" lon="4.7612">
        <ele>422.92999267578</ele>
        <time>2010-10-16T13:16:01Z</time>
      </trkpt>
      <trkpt lat="45.15792" lon="4.76123">
        <ele>423.43899536133</ele>
        <time>2010-10-16T13:16:05Z</time>
      </trkpt>
      <trkpt lat="45.15812" lon="4.76127">
        <ele>423.11898803711</ele>
        <time>2010-10-16T13:16:09Z</time>
      </trkpt>
      <trkpt lat="45.15831" lon="4.76128">
        <ele>423.25900268555</ele>
        <time>2010-10-16T13:16:14Z</time>
      </trkpt>
      <trkpt lat="45.15842" lon="4.76113">
        <ele>422.75201416016</ele>
        <time>2010-10-16T13:16:18Z</time>
      </trkpt>
      <trkpt lat="45.15843" lon="4.76108">
        <ele>422.68798828125</ele>
        <time>2010-10-16T13:16:19Z</time>
      </trkpt>
      <trkpt lat="45.15844" lon="4.76067">
        <ele>423.36401367188</ele>
        <time>2010-10-16T13:16:26Z</time>
      </trkpt>
      <trkpt lat="45.15843" lon="4.76025">
        <ele>424.04501342773</ele>
        <time>2010-10-16T13:16:33Z</time>
      </trkpt>
      <trkpt lat="45.15844" lon="4.75968">
        <ele>423.99398803711</ele>
        <time>2010-10-16T13:16:42Z</time>
      </trkpt>
      <trkpt lat="45.15845" lon="4.75935">
        <ele>424.74200439453</ele>
        <time>2010-10-16T13:16:47Z</time>
      </trkpt>
      <trkpt lat="45.15858" lon="4.75902">
        <ele>425.49700927734</ele>
        <time>2010-10-16T13:16:53Z</time>
      </trkpt>
      <trkpt lat="45.15888" lon="4.75868">
        <ele>427.28500366211</ele>
        <time>2010-10-16T13:17:02Z</time>
      </trkpt>
      <trkpt lat="45.1591" lon="4.75847">
        <ele>428.57699584961</ele>
        <time>2010-10-16T13:17:08Z</time>
      </trkpt>
      <trkpt lat="45.1594" lon="4.75817">
        <ele>429.82901000977</ele>
        <time>2010-10-16T13:17:16Z</time>
      </trkpt>
      <trkpt lat="45.15958" lon="4.75796">
        <ele>430.79699707031</ele>
        <time>2010-10-16T13:17:21Z</time>
      </trkpt>
      <trkpt lat="45.15981" lon="4.75759">
        <ele>432.68499755859</ele>
        <time>2010-10-16T13:17:29Z</time>
      </trkpt>
      <trkpt lat="45.15988" lon="4.75743">
        <ele>432.86099243164</ele>
        <time>2010-10-16T13:17:32Z</time>
      </trkpt>
      <trkpt lat="45.16" lon="4.75709">
        <ele>433.29800415039</ele>
        <time>2010-10-16T13:17:38Z</time>
      </trkpt>
      <trkpt lat="45.16011" lon="4.75652">
        <ele>430.73999023438</ele>
        <time>2010-10-16T13:17:45Z</time>
      </trkpt>
      <trkpt lat="45.16014" lon="4.75621">
        <ele>429.36499023438</ele>
        <time>2010-10-16T13:17:48Z</time>
      </trkpt>
      <trkpt lat="45.16016" lon="4.75609">
        <ele>429.0830078125</ele>
        <time>2010-10-16T13:17:49Z</time>
      </trkpt>
      <trkpt lat="45.16034" lon="4.75555">
        <ele>426.1969909668</ele>
        <time>2010-10-16T13:17:54Z</time>
      </trkpt>
      <trkpt lat="45.16039" lon="4.75545">
        <ele>425.93399047852</ele>
        <time>2010-10-16T13:17:55Z</time>
      </trkpt>
      <trkpt lat="45.16058" lon="4.75506">
        <ele>425.53799438477</ele>
        <time>2010-10-16T13:17:59Z</time>
      </trkpt>
      <trkpt lat="45.16093" lon="4.75466">
        <ele>425.14599609375</ele>
        <time>2010-10-16T13:18:05Z</time>
      </trkpt>
      <trkpt lat="45.16137" lon="4.75418">
        <ele>426.8630065918</ele>
        <time>2010-10-16T13:18:13Z</time>
      </trkpt>
      <trkpt lat="45.16149" lon="4.75399">
        <ele>428.10998535156</ele>
        <time>2010-10-16T13:18:16Z</time>
      </trkpt>
      <trkpt lat="45.16166" lon="4.75366">
        <ele>429.73199462891</ele>
        <time>2010-10-16T13:18:21Z</time>
      </trkpt>
      <trkpt lat="45.16187" lon="4.75329">
        <ele>430.45901489258</ele>
        <time>2010-10-16T13:18:27Z</time>
      </trkpt>
      <trkpt lat="45.16203" lon="4.75298">
        <ele>430.25900268555</ele>
        <time>2010-10-16T13:18:32Z</time>
      </trkpt>
      <trkpt lat="45.16211" lon="4.75288">
        <ele>430.08200073242</ele>
        <time>2010-10-16T13:18:34Z</time>
      </trkpt>
      <trkpt lat="45.16246" lon="4.75262">
        <ele>430.24899291992</ele>
        <time>2010-10-16T13:18:41Z</time>
      </trkpt>
      <trkpt lat="45.16278" lon="4.7524">
        <ele>431.43798828125</ele>
        <time>2010-10-16T13:18:48Z</time>
      </trkpt>
      <trkpt lat="45.1632" lon="4.75213">
        <ele>432.41400146484</ele>
        <time>2010-10-16T13:18:57Z</time>
      </trkpt>
      <trkpt lat="45.16367" lon="4.75182">
        <ele>432.76300048828</ele>
        <time>2010-10-16T13:19:06Z</time>
      </trkpt>
      <trkpt lat="45.16377" lon="4.75175">
        <ele>432.95498657227</ele>
        <time>2010-10-16T13:19:08Z</time>
      </trkpt>
      <trkpt lat="45.16397" lon="4.75177">
        <ele>433.01098632812</ele>
        <time>2010-10-16T13:19:12Z</time>
      </trkpt>
      <trkpt lat="45.16407" lon="4.75194">
        <ele>432.22900390625</ele>
        <time>2010-10-16T13:19:15Z</time>
      </trkpt>
      <trkpt lat="45.16437" lon="4.7526">
        <ele>432.3039855957</ele>
        <time>2010-10-16T13:19:25Z</time>
      </trkpt>
      <trkpt lat="45.16462" lon="4.75309">
        <ele>431.15200805664</ele>
        <time>2010-10-16T13:19:32Z</time>
      </trkpt>
      <trkpt lat="45.16473" lon="4.75332">
        <ele>429.92999267578</ele>
        <time>2010-10-16T13:19:35Z</time>
      </trkpt>
      <trkpt lat="45.165" lon="4.75387">
        <ele>429.6130065918</ele>
        <time>2010-10-16T13:19:42Z</time>
      </trkpt>
      <trkpt lat="45.16521" lon="4.75428">
        <ele>427.21200561523</ele>
        <time>2010-10-16T13:19:47Z</time>
      </trkpt>
      <trkpt lat="45.16544" lon="4.75477">
        <ele>425.89401245117</ele>
        <time>2010-10-16T13:19:53Z</time>
      </trkpt>
      <trkpt lat="45.16558" lon="4.75512">
        <ele>424.88900756836</ele>
        <time>2010-10-16T13:19:57Z</time>
      </trkpt>
      <trkpt lat="45.16592" lon="4.75589">
        <ele>422.46099853516</ele>
        <time>2010-10-16T13:20:05Z</time>
      </trkpt>
      <trkpt lat="45.16605" lon="4.7562">
        <ele>422.45999145508</ele>
        <time>2010-10-16T13:20:08Z</time>
      </trkpt>
      <trkpt lat="45.16627" lon="4.75669">
        <ele>419.10900878906</ele>
        <time>2010-10-16T13:20:13Z</time>
      </trkpt>
      <trkpt lat="45.16659" lon="4.75743">
        <ele>416.07400512695</ele>
        <time>2010-10-16T13:20:20Z</time>
      </trkpt>
      <trkpt lat="45.16669" lon="4.75793">
        <ele>415.75100708008</ele>
        <time>2010-10-16T13:20:24Z</time>
      </trkpt>
      <trkpt lat="45.16678" lon="4.75879">
        <ele>414.21899414062</ele>
        <time>2010-10-16T13:20:31Z</time>
      </trkpt>
      <trkpt lat="45.16683" lon="4.75918">
        <ele>412.22100830078</ele>
        <time>2010-10-16T13:20:34Z</time>
      </trkpt>
      <trkpt lat="45.16689" lon="4.75943">
        <ele>411.51300048828</ele>
        <time>2010-10-16T13:20:36Z</time>
      </trkpt>
      <trkpt lat="45.16705" lon="4.75976">
        <ele>410.20498657227</ele>
        <time>2010-10-16T13:20:39Z</time>
      </trkpt>
      <trkpt lat="45.16712" lon="4.75986">
        <ele>409.50601196289</ele>
        <time>2010-10-16T13:20:40Z</time>
      </trkpt>
      <trkpt lat="45.16753" lon="4.7603">
        <ele>409.6960144043</ele>
        <time>2010-10-16T13:20:46Z</time>
      </trkpt>
      <trkpt lat="45.16797" lon="4.76072">
        <ele>409.74398803711</ele>
        <time>2010-10-16T13:20:53Z</time>
      </trkpt>
      <trkpt lat="45.16843" lon="4.76114">
        <ele>408.83200073242</ele>
        <time>2010-10-16T13:21:00Z</time>
      </trkpt>
      <trkpt lat="45.16889" lon="4.76142">
        <ele>406.4049987793</ele>
        <time>2010-10-16T13:21:06Z</time>
      </trkpt>
      <trkpt lat="45.16941" lon="4.76159">
        <ele>402.85101318359</ele>
        <time>2010-10-16T13:21:12Z</time>
      </trkpt>
      <trkpt lat="45.16961" lon="4.7616">
        <ele>401.1960144043</ele>
        <time>2010-10-16T13:21:14Z</time>
      </trkpt>
      <trkpt lat="45.16988" lon="4.76175">
        <ele>399.56399536133</ele>
        <time>2010-10-16T13:21:17Z</time>
      </trkpt>
      <trkpt lat="45.17004" lon="4.7619">
        <ele>399.26998901367</ele>
        <time>2010-10-16T13:21:19Z</time>
      </trkpt>
      <trkpt lat="45.17044" lon="4.76252">
        <ele>394.93701171875</ele>
        <time>2010-10-16T13:21:25Z</time>
      </trkpt>
      <trkpt lat="45.17054" lon="4.76275">
        <ele>394.19000244141</ele>
        <time>2010-10-16T13:21:27Z</time>
      </trkpt>
      <trkpt lat="45.1708" lon="4.76369">
        <ele>394.36199951172</ele>
        <time>2010-10-16T13:21:35Z</time>
      </trkpt>
      <trkpt lat="45.17098" lon="4.76428">
        <ele>393.11700439453</ele>
        <time>2010-10-16T13:21:40Z</time>
      </trkpt>
      <trkpt lat="45.17109" lon="4.76464">
        <ele>391.20901489258</ele>
        <time>2010-10-16T13:21:43Z</time>
      </trkpt>
      <trkpt lat="45.17126" lon="4.76545">
        <ele>389.86801147461</ele>
        <time>2010-10-16T13:21:49Z</time>
      </trkpt>
      <trkpt lat="45.17127" lon="4.766">
        <ele>389.09399414062</ele>
        <time>2010-10-16T13:21:53Z</time>
      </trkpt>
      <trkpt lat="45.17122" lon="4.7664">
        <ele>388.72100830078</ele>
        <time>2010-10-16T13:21:56Z</time>
      </trkpt>
      <trkpt lat="45.17106" lon="4.76689">
        <ele>387.78298950195</ele>
        <time>2010-10-16T13:22:00Z</time>
      </trkpt>
      <trkpt lat="45.17087" lon="4.7672">
        <ele>387.51098632812</ele>
        <time>2010-10-16T13:22:03Z</time>
      </trkpt>
      <trkpt lat="45.17047" lon="4.76758">
        <ele>387.40899658203</ele>
        <time>2010-10-16T13:22:08Z</time>
      </trkpt>
      <trkpt lat="45.16959" lon="4.76827">
        <ele>385.4700012207</ele>
        <time>2010-10-16T13:22:18Z</time>
      </trkpt>
      <trkpt lat="45.16943" lon="4.76842">
        <ele>385.27200317383</ele>
        <time>2010-10-16T13:22:20Z</time>
      </trkpt>
      <trkpt lat="45.16917" lon="4.76885">
        <ele>384.50698852539</ele>
        <time>2010-10-16T13:22:24Z</time>
      </trkpt>
      <trkpt lat="45.16908" lon="4.76926">
        <ele>382.14401245117</ele>
        <time>2010-10-16T13:22:27Z</time>
      </trkpt>
      <trkpt lat="45.16913" lon="4.76969">
        <ele>380.9169921875</ele>
        <time>2010-10-16T13:22:30Z</time>
      </trkpt>
      <trkpt lat="45.16918" lon="4.76982">
        <ele>380.46301269531</ele>
        <time>2010-10-16T13:22:31Z</time>
      </trkpt>
      <trkpt lat="45.16951" lon="4.77061">
        <ele>375.35198974609</ele>
        <time>2010-10-16T13:22:37Z</time>
      </trkpt>
      <trkpt lat="45.16973" lon="4.7712">
        <ele>372.85400390625</ele>
        <time>2010-10-16T13:22:42Z</time>
      </trkpt>
      <trkpt lat="45.16988" lon="4.7716">
        <ele>372.13299560547</ele>
        <time>2010-10-16T13:22:46Z</time>
      </trkpt>
      <trkpt lat="45.16991" lon="4.77189">
        <ele>371.55499267578</ele>
        <time>2010-10-16T13:22:50Z</time>
      </trkpt>
      <trkpt lat="45.16989" lon="4.77195">
        <ele>371.65798950195</ele>
        <time>2010-10-16T13:22:51Z</time>
      </trkpt>
      <trkpt lat="45.16983" lon="4.77208">
        <ele>371.9169921875</ele>
        <time>2010-10-16T13:22:53Z</time>
      </trkpt>
      <trkpt lat="45.16964" lon="4.77251">
        <ele>371.68600463867</ele>
        <time>2010-10-16T13:23:00Z</time>
      </trkpt>
      <trkpt lat="45.16951" lon="4.77275">
        <ele>371.5710144043</ele>
        <time>2010-10-16T13:23:04Z</time>
      </trkpt>
      <trkpt lat="45.16935" lon="4.77318">
        <ele>370.4049987793</ele>
        <time>2010-10-16T13:23:10Z</time>
      </trkpt>
      <trkpt lat="45.1692" lon="4.77372">
        <ele>370.43899536133</ele>
        <time>2010-10-16T13:23:17Z</time>
      </trkpt>
      <trkpt lat="45.16916" lon="4.77388">
        <ele>370.25900268555</ele>
        <time>2010-10-16T13:23:19Z</time>
      </trkpt>
      <trkpt lat="45.16907" lon="4.77438">
        <ele>370.875</ele>
        <time>2010-10-16T13:23:26Z</time>
      </trkpt>
      <trkpt lat="45.16906" lon="4.77445">
        <ele>370.99398803711</ele>
        <time>2010-10-16T13:23:27Z</time>
      </trkpt>
      <trkpt lat="45.16901" lon="4.77471">
        <ele>371.83099365234</ele>
        <time>2010-10-16T13:23:31Z</time>
      </trkpt>
      <trkpt lat="45.16899" lon="4.7749">
        <ele>372.49398803711</ele>
        <time>2010-10-16T13:23:34Z</time>
      </trkpt>
      <trkpt lat="45.16891" lon="4.77531">
        <ele>372.8210144043</ele>
        <time>2010-10-16T13:23:40Z</time>
      </trkpt>
      <trkpt lat="45.16884" lon="4.77553">
        <ele>372.67700195312</ele>
        <time>2010-10-16T13:23:43Z</time>
      </trkpt>
      <trkpt lat="45.16877" lon="4.77566">
        <ele>373.00698852539</ele>
        <time>2010-10-16T13:23:45Z</time>
      </trkpt>
      <trkpt lat="45.16855" lon="4.77594">
        <ele>374.19299316406</ele>
        <time>2010-10-16T13:23:50Z</time>
      </trkpt>
      <trkpt lat="45.1685" lon="4.77599">
        <ele>374.33499145508</ele>
        <time>2010-10-16T13:23:51Z</time>
      </trkpt>
      <trkpt lat="45.16824" lon="4.77625">
        <ele>374.16198730469</ele>
        <time>2010-10-16T13:23:56Z</time>
      </trkpt>
      <trkpt lat="45.16786" lon="4.77657">
        <ele>372.53698730469</ele>
        <time>2010-10-16T13:24:02Z</time>
      </trkpt>
      <trkpt lat="45.16739" lon="4.77702">
        <ele>371.78399658203</ele>
        <time>2010-10-16T13:24:09Z</time>
      </trkpt>
      <trkpt lat="45.167" lon="4.77739">
        <ele>372.23699951172</ele>
        <time>2010-10-16T13:24:15Z</time>
      </trkpt>
      <trkpt lat="45.16662" lon="4.77775">
        <ele>372.51599121094</ele>
        <time>2010-10-16T13:24:21Z</time>
      </trkpt>
      <trkpt lat="45.16637" lon="4.77809">
        <ele>372.94299316406</ele>
        <time>2010-10-16T13:24:26Z</time>
      </trkpt>
      <trkpt lat="45.16623" lon="4.77853">
        <ele>373.09899902344</ele>
        <time>2010-10-16T13:24:31Z</time>
      </trkpt>
      <trkpt lat="45.16618" lon="4.77902">
        <ele>371.83801269531</ele>
        <time>2010-10-16T13:24:36Z</time>
      </trkpt>
      <trkpt lat="45.16616" lon="4.77945">
        <ele>371.16000366211</ele>
        <time>2010-10-16T13:24:40Z</time>
      </trkpt>
      <trkpt lat="45.16605" lon="4.78002">
        <ele>369.66900634766</ele>
        <time>2010-10-16T13:24:45Z</time>
      </trkpt>
      <trkpt lat="45.16581" lon="4.78053">
        <ele>369.8219909668</ele>
        <time>2010-10-16T13:24:50Z</time>
      </trkpt>
      <trkpt lat="45.16544" lon="4.78094">
        <ele>372.29901123047</ele>
        <time>2010-10-16T13:24:56Z</time>
      </trkpt>
      <trkpt lat="45.16534" lon="4.78105">
        <ele>373.2619934082</ele>
        <time>2010-10-16T13:24:58Z</time>
      </trkpt>
      <trkpt lat="45.16503" lon="4.7813">
        <ele>374.76998901367</ele>
        <time>2010-10-16T13:25:04Z</time>
      </trkpt>
      <trkpt lat="45.16464" lon="4.78157">
        <ele>373.31201171875</ele>
        <time>2010-10-16T13:25:10Z</time>
      </trkpt>
      <trkpt lat="45.16419" lon="4.78186">
        <ele>371.14199829102</ele>
        <time>2010-10-16T13:25:16Z</time>
      </trkpt>
      <trkpt lat="45.16382" lon="4.78206">
        <ele>370.80999755859</ele>
        <time>2010-10-16T13:25:21Z</time>
      </trkpt>
      <trkpt lat="45.16344" lon="4.78221">
        <ele>369.67599487305</ele>
        <time>2010-10-16T13:25:26Z</time>
      </trkpt>
      <trkpt lat="45.16303" lon="4.78235">
        <ele>368.70599365234</ele>
        <time>2010-10-16T13:25:31Z</time>
      </trkpt>
      <trkpt lat="45.16247" lon="4.78252">
        <ele>369.67199707031</ele>
        <time>2010-10-16T13:25:38Z</time>
      </trkpt>
      <trkpt lat="45.16208" lon="4.78259">
        <ele>369.35299682617</ele>
        <time>2010-10-16T13:25:43Z</time>
      </trkpt>
      <trkpt lat="45.16148" lon="4.78281">
        <ele>366.21499633789</ele>
        <time>2010-10-16T13:25:50Z</time>
      </trkpt>
      <trkpt lat="45.16112" lon="4.78294">
        <ele>365.23599243164</ele>
        <time>2010-10-16T13:25:54Z</time>
      </trkpt>
      <trkpt lat="45.16058" lon="4.78313">
        <ele>363.85101318359</ele>
        <time>2010-10-16T13:26:00Z</time>
      </trkpt>
      <trkpt lat="45.16008" lon="4.78338">
        <ele>364.57299804688</ele>
        <time>2010-10-16T13:26:06Z</time>
      </trkpt>
      <trkpt lat="45.15965" lon="4.78373">
        <ele>365.36700439453</ele>
        <time>2010-10-16T13:26:12Z</time>
      </trkpt>
      <trkpt lat="45.15945" lon="4.7839">
        <ele>366.02398681641</ele>
        <time>2010-10-16T13:26:15Z</time>
      </trkpt>
      <trkpt lat="45.15919" lon="4.78425">
        <ele>366.79501342773</ele>
        <time>2010-10-16T13:26:20Z</time>
      </trkpt>
      <trkpt lat="45.15905" lon="4.7847">
        <ele>367.20999145508</ele>
        <time>2010-10-16T13:26:25Z</time>
      </trkpt>
      <trkpt lat="45.15898" lon="4.78522">
        <ele>367.42498779297</ele>
        <time>2010-10-16T13:26:30Z</time>
      </trkpt>
      <trkpt lat="45.15889" lon="4.78586">
        <ele>368.03298950195</ele>
        <time>2010-10-16T13:26:36Z</time>
      </trkpt>
      <trkpt lat="45.15876" lon="4.78666">
        <ele>369.56698608398</ele>
        <time>2010-10-16T13:26:44Z</time>
      </trkpt>
      <trkpt lat="45.15867" lon="4.7871">
        <ele>369.49398803711</ele>
        <time>2010-10-16T13:26:49Z</time>
      </trkpt>
      <trkpt lat="45.15864" lon="4.7872">
        <ele>369.26300048828</ele>
        <time>2010-10-16T13:26:50Z</time>
      </trkpt>
      <trkpt lat="45.15832" lon="4.78788">
        <ele>366.40600585938</ele>
        <time>2010-10-16T13:26:57Z</time>
      </trkpt>
      <trkpt lat="45.15818" lon="4.78831">
        <ele>367.00299072266</ele>
        <time>2010-10-16T13:27:01Z</time>
      </trkpt>
      <trkpt lat="45.15811" lon="4.78898">
        <ele>367.00299072266</ele>
        <time>2010-10-16T13:27:07Z</time>
      </trkpt>
      <trkpt lat="45.15806" lon="4.78968">
        <ele>367.76000976562</ele>
        <time>2010-10-16T13:27:14Z</time>
      </trkpt>
      <trkpt lat="45.15804" lon="4.79018">
        <ele>370.97198486328</ele>
        <time>2010-10-16T13:27:20Z</time>
      </trkpt>
      <trkpt lat="45.15804" lon="4.79032">
        <ele>371.97698974609</ele>
        <time>2010-10-16T13:27:22Z</time>
      </trkpt>
      <trkpt lat="45.15809" lon="4.79078">
        <ele>373.66198730469</ele>
        <time>2010-10-16T13:27:29Z</time>
      </trkpt>
      <trkpt lat="45.15814" lon="4.79108">
        <ele>372.40200805664</ele>
        <time>2010-10-16T13:27:33Z</time>
      </trkpt>
      <trkpt lat="45.15827" lon="4.79139">
        <ele>370.39898681641</ele>
        <time>2010-10-16T13:27:37Z</time>
      </trkpt>
      <trkpt lat="45.15866" lon="4.79186">
        <ele>366.29998779297</ele>
        <time>2010-10-16T13:27:44Z</time>
      </trkpt>
      <trkpt lat="45.15885" lon="4.79206">
        <ele>365.33200073242</ele>
        <time>2010-10-16T13:27:47Z</time>
      </trkpt>
      <trkpt lat="45.15901" lon="4.7923">
        <ele>363.60101318359</ele>
        <time>2010-10-16T13:27:50Z</time>
      </trkpt>
      <trkpt lat="45.15905" lon="4.7924">
        <ele>362.98300170898</ele>
        <time>2010-10-16T13:27:51Z</time>
      </trkpt>
      <trkpt lat="45.15924" lon="4.79292">
        <ele>361.59799194336</ele>
        <time>2010-10-16T13:27:56Z</time>
      </trkpt>
      <trkpt lat="45.15931" lon="4.79312">
        <ele>361.24899291992</ele>
        <time>2010-10-16T13:27:58Z</time>
      </trkpt>
      <trkpt lat="45.15944" lon="4.79374">
        <ele>361.10400390625</ele>
        <time>2010-10-16T13:28:04Z</time>
      </trkpt>
      <trkpt lat="45.15952" lon="4.79413">
        <ele>360.9880065918</ele>
        <time>2010-10-16T13:28:08Z</time>
      </trkpt>
      <trkpt lat="45.15956" lon="4.79439">
        <ele>361.49499511719</ele>
        <time>2010-10-16T13:28:11Z</time>
      </trkpt>
      <trkpt lat="45.15971" lon="4.79516">
        <ele>359.7080078125</ele>
        <time>2010-10-16T13:28:19Z</time>
      </trkpt>
      <trkpt lat="45.1598" lon="4.79549">
        <ele>359.62100219727</ele>
        <time>2010-10-16T13:28:22Z</time>
      </trkpt>
      <trkpt lat="45.16003" lon="4.79604">
        <ele>357.80099487305</ele>
        <time>2010-10-16T13:28:27Z</time>
      </trkpt>
      <trkpt lat="45.16018" lon="4.79634">
        <ele>357.25799560547</ele>
        <time>2010-10-16T13:28:30Z</time>
      </trkpt>
      <trkpt lat="45.16035" lon="4.797">
        <ele>357.18798828125</ele>
        <time>2010-10-16T13:28:36Z</time>
      </trkpt>
      <trkpt lat="45.16038" lon="4.79711">
        <ele>356.97900390625</ele>
        <time>2010-10-16T13:28:37Z</time>
      </trkpt>
      <trkpt lat="45.16056" lon="4.79774">
        <ele>354.04501342773</ele>
        <time>2010-10-16T13:28:42Z</time>
      </trkpt>
      <trkpt lat="45.16072" lon="4.79829">
        <ele>352.10900878906</ele>
        <time>2010-10-16T13:28:46Z</time>
      </trkpt>
      <trkpt lat="45.1609" lon="4.79892">
        <ele>350.95498657227</ele>
        <time>2010-10-16T13:28:51Z</time>
      </trkpt>
      <trkpt lat="45.16099" lon="4.79951">
        <ele>349.13598632812</ele>
        <time>2010-10-16T13:28:56Z</time>
      </trkpt>
      <trkpt lat="45.16101" lon="4.79972">
        <ele>348.88400268555</ele>
        <time>2010-10-16T13:28:58Z</time>
      </trkpt>
      <trkpt lat="45.16116" lon="4.80014">
        <ele>346.94799804688</ele>
        <time>2010-10-16T13:29:02Z</time>
      </trkpt>
      <trkpt lat="45.1613" lon="4.80041">
        <ele>344.76098632812</ele>
        <time>2010-10-16T13:29:05Z</time>
      </trkpt>
      <trkpt lat="45.16131" lon="4.80077">
        <ele>342.41198730469</ele>
        <time>2010-10-16T13:29:09Z</time>
      </trkpt>
      <trkpt lat="45.16123" lon="4.80095">
        <ele>341.58898925781</ele>
        <time>2010-10-16T13:29:11Z</time>
      </trkpt>
      <trkpt lat="45.1611" lon="4.80108">
        <ele>340.62701416016</ele>
        <time>2010-10-16T13:29:13Z</time>
      </trkpt>
      <trkpt lat="45.16088" lon="4.80126">
        <ele>339.0419921875</ele>
        <time>2010-10-16T13:29:16Z</time>
      </trkpt>
      <trkpt lat="45.16073" lon="4.80144">
        <ele>337.73999023438</ele>
        <time>2010-10-16T13:29:18Z</time>
      </trkpt>
      <trkpt lat="45.16061" lon="4.80164">
        <ele>336.91799926758</ele>
        <time>2010-10-16T13:29:20Z</time>
      </trkpt>
      <trkpt lat="45.16054" lon="4.80173">
        <ele>336.38500976562</ele>
        <time>2010-10-16T13:29:21Z</time>
      </trkpt>
      <trkpt lat="45.16016" lon="4.80211">
        <ele>332.29998779297</ele>
        <time>2010-10-16T13:29:26Z</time>
      </trkpt>
      <trkpt lat="45.1598" lon="4.80241">
        <ele>329.54299926758</ele>
        <time>2010-10-16T13:29:30Z</time>
      </trkpt>
      <trkpt lat="45.1595" lon="4.80264">
        <ele>327.39801025391</ele>
        <time>2010-10-16T13:29:34Z</time>
      </trkpt>
      <trkpt lat="45.15945" lon="4.80267">
        <ele>327.19198608398</ele>
        <time>2010-10-16T13:29:35Z</time>
      </trkpt>
      <trkpt lat="45.15941" lon="4.80287">
        <ele>326.65600585938</ele>
        <time>2010-10-16T13:29:39Z</time>
      </trkpt>
      <trkpt lat="45.15951" lon="4.8029">
        <ele>325.34298706055</ele>
        <time>2010-10-16T13:29:41Z</time>
      </trkpt>
      <trkpt lat="45.15993" lon="4.80289">
        <ele>320.87200927734</ele>
        <time>2010-10-16T13:29:47Z</time>
      </trkpt>
      <trkpt lat="45.16037" lon="4.80292">
        <ele>316.61499023438</ele>
        <time>2010-10-16T13:29:52Z</time>
      </trkpt>
      <trkpt lat="45.16082" lon="4.80294">
        <ele>314.03500366211</ele>
        <time>2010-10-16T13:29:57Z</time>
      </trkpt>
      <trkpt lat="45.16098" lon="4.80305">
        <ele>312.30899047852</ele>
        <time>2010-10-16T13:30:00Z</time>
      </trkpt>
      <trkpt lat="45.16102" lon="4.80323">
        <ele>311.26599121094</ele>
        <time>2010-10-16T13:30:02Z</time>
      </trkpt>
      <trkpt lat="45.16102" lon="4.80333">
        <ele>310.77200317383</ele>
        <time>2010-10-16T13:30:03Z</time>
      </trkpt>
      <trkpt lat="45.16103" lon="4.80354">
        <ele>310.18301391602</ele>
        <time>2010-10-16T13:30:05Z</time>
      </trkpt>
      <trkpt lat="45.16115" lon="4.80392">
        <ele>309.31698608398</ele>
        <time>2010-10-16T13:30:09Z</time>
      </trkpt>
      <trkpt lat="45.16121" lon="4.80399">
        <ele>308.98300170898</ele>
        <time>2010-10-16T13:30:10Z</time>
      </trkpt>
      <trkpt lat="45.16139" lon="4.80425">
        <ele>308.16400146484</ele>
        <time>2010-10-16T13:30:15Z</time>
      </trkpt>
      <trkpt lat="45.16137" lon="4.80444">
        <ele>307.05200195312</ele>
        <time>2010-10-16T13:30:19Z</time>
      </trkpt>
      <trkpt lat="45.16132" lon="4.80465">
        <ele>305.5</ele>
        <time>2010-10-16T13:30:25Z</time>
      </trkpt>
      <trkpt lat="45.1613" lon="4.80476">
        <ele>304.93399047852</ele>
        <time>2010-10-16T13:30:28Z</time>
      </trkpt>
      <trkpt lat="45.16116" lon="4.80505">
        <ele>303.14801025391</ele>
        <time>2010-10-16T13:30:33Z</time>
      </trkpt>
      <trkpt lat="45.16102" lon="4.80525">
        <ele>301.51400756836</ele>
        <time>2010-10-16T13:30:36Z</time>
      </trkpt>
      <trkpt lat="45.16078" lon="4.80556">
        <ele>298.71798706055</ele>
        <time>2010-10-16T13:30:40Z</time>
      </trkpt>
      <trkpt lat="45.1604" lon="4.80592">
        <ele>294.15899658203</ele>
        <time>2010-10-16T13:30:45Z</time>
      </trkpt>
      <trkpt lat="45.16024" lon="4.80606">
        <ele>292.23300170898</ele>
        <time>2010-10-16T13:30:47Z</time>
      </trkpt>
      <trkpt lat="45.16009" lon="4.80618">
        <ele>290.88800048828</ele>
        <time>2010-10-16T13:30:49Z</time>
      </trkpt>
      <trkpt lat="45.16" lon="4.80632">
        <ele>289.8030090332</ele>
        <time>2010-10-16T13:30:51Z</time>
      </trkpt>
      <trkpt lat="45.16003" lon="4.80645">
        <ele>289.80801391602</ele>
        <time>2010-10-16T13:30:53Z</time>
      </trkpt>
      <trkpt lat="45.16015" lon="4.80643">
        <ele>289.5530090332</ele>
        <time>2010-10-16T13:30:55Z</time>
      </trkpt>
      <trkpt lat="45.16025" lon="4.80632">
        <ele>289.12200927734</ele>
        <time>2010-10-16T13:30:57Z</time>
      </trkpt>
      <trkpt lat="45.16048" lon="4.80612">
        <ele>287.10900878906</ele>
        <time>2010-10-16T13:31:01Z</time>
      </trkpt>
      <trkpt lat="45.16055" lon="4.80608">
        <ele>286.92498779297</ele>
        <time>2010-10-16T13:31:02Z</time>
      </trkpt>
      <trkpt lat="45.16089" lon="4.80587">
        <ele>285.25799560547</ele>
        <time>2010-10-16T13:31:07Z</time>
      </trkpt>
      <trkpt lat="45.16125" lon="4.80546">
        <ele>282.60501098633</ele>
        <time>2010-10-16T13:31:13Z</time>
      </trkpt>
      <trkpt lat="45.16156" lon="4.80519">
        <ele>279.77499389648</ele>
        <time>2010-10-16T13:31:17Z</time>
      </trkpt>
      <trkpt lat="45.1619" lon="4.80481">
        <ele>276.57800292969</ele>
        <time>2010-10-16T13:31:22Z</time>
      </trkpt>
      <trkpt lat="45.16227" lon="4.80447">
        <ele>272.83099365234</ele>
        <time>2010-10-16T13:31:27Z</time>
      </trkpt>
      <trkpt lat="45.16238" lon="4.80416">
        <ele>270.19100952148</ele>
        <time>2010-10-16T13:31:30Z</time>
      </trkpt>
      <trkpt lat="45.16233" lon="4.80394">
        <ele>269.18099975586</ele>
        <time>2010-10-16T13:31:32Z</time>
      </trkpt>
      <trkpt lat="45.16234" lon="4.80351">
        <ele>267.73300170898</ele>
        <time>2010-10-16T13:31:36Z</time>
      </trkpt>
      <trkpt lat="45.16238" lon="4.80342">
        <ele>267.11700439453</ele>
        <time>2010-10-16T13:31:37Z</time>
      </trkpt>
      <trkpt lat="45.16268" lon="4.80305">
        <ele>264.26098632812</ele>
        <time>2010-10-16T13:31:42Z</time>
      </trkpt>
      <trkpt lat="45.16283" lon="4.80313">
        <ele>262.98400878906</ele>
        <time>2010-10-16T13:31:44Z</time>
      </trkpt>
      <trkpt lat="45.16293" lon="4.80329">
        <ele>261.91198730469</ele>
        <time>2010-10-16T13:31:46Z</time>
      </trkpt>
      <trkpt lat="45.16327" lon="4.80358">
        <ele>259.99499511719</ele>
        <time>2010-10-16T13:31:51Z</time>
      </trkpt>
      <trkpt lat="45.16344" lon="4.80362">
        <ele>258.76098632812</ele>
        <time>2010-10-16T13:31:53Z</time>
      </trkpt>
      <trkpt lat="45.16393" lon="4.80384">
        <ele>254.83700561523</ele>
        <time>2010-10-16T13:31:59Z</time>
      </trkpt>
      <trkpt lat="45.164" lon="4.80386">
        <ele>253.71699523926</ele>
        <time>2010-10-16T13:32:00Z</time>
      </trkpt>
      <trkpt lat="45.16432" lon="4.80379">
        <ele>251.36500549316</ele>
        <time>2010-10-16T13:32:04Z</time>
      </trkpt>
      <trkpt lat="45.16457" lon="4.80364">
        <ele>248.98199462891</ele>
        <time>2010-10-16T13:32:07Z</time>
      </trkpt>
      <trkpt lat="45.16494" lon="4.80352">
        <ele>246.51699829102</ele>
        <time>2010-10-16T13:32:11Z</time>
      </trkpt>
      <trkpt lat="45.16522" lon="4.80345">
        <ele>245.82899475098</ele>
        <time>2010-10-16T13:32:14Z</time>
      </trkpt>
      <trkpt lat="45.16559" lon="4.8035">
        <ele>244.25999450684</ele>
        <time>2010-10-16T13:32:18Z</time>
      </trkpt>
      <trkpt lat="45.1659" lon="4.80367">
        <ele>240.44500732422</ele>
        <time>2010-10-16T13:32:22Z</time>
      </trkpt>
      <trkpt lat="45.16616" lon="4.80362">
        <ele>238.05099487305</ele>
        <time>2010-10-16T13:32:25Z</time>
      </trkpt>
      <trkpt lat="45.1666" lon="4.80337">
        <ele>234.19999694824</ele>
        <time>2010-10-16T13:32:30Z</time>
      </trkpt>
      <trkpt lat="45.16674" lon="4.80309">
        <ele>233.94700622559</ele>
        <time>2010-10-16T13:32:34Z</time>
      </trkpt>
      <trkpt lat="45.16673" lon="4.80292">
        <ele>233.32200622559</ele>
        <time>2010-10-16T13:32:36Z</time>
      </trkpt>
      <trkpt lat="45.16666" lon="4.80262">
        <ele>231.82200622559</ele>
        <time>2010-10-16T13:32:39Z</time>
      </trkpt>
      <trkpt lat="45.16658" lon="4.80241">
        <ele>231.02699279785</ele>
        <time>2010-10-16T13:32:41Z</time>
      </trkpt>
      <trkpt lat="45.16637" lon="4.80201">
        <ele>228.24299621582</ele>
        <time>2010-10-16T13:32:45Z</time>
      </trkpt>
      <trkpt lat="45.16635" lon="4.80163">
        <ele>226.34199523926</ele>
        <time>2010-10-16T13:32:49Z</time>
      </trkpt>
      <trkpt lat="45.16654" lon="4.80166">
        <ele>225.09300231934</ele>
        <time>2010-10-16T13:32:51Z</time>
      </trkpt>
      <trkpt lat="45.16663" lon="4.8017">
        <ele>224.34700012207</ele>
        <time>2010-10-16T13:32:52Z</time>
      </trkpt>
      <trkpt lat="45.16678" lon="4.80179">
        <ele>222.97399902344</ele>
        <time>2010-10-16T13:32:54Z</time>
      </trkpt>
      <trkpt lat="45.16725" lon="4.80193">
        <ele>219.22099304199</ele>
        <time>2010-10-16T13:32:59Z</time>
      </trkpt>
      <trkpt lat="45.16762" lon="4.80206">
        <ele>216.72300720215</ele>
        <time>2010-10-16T13:33:03Z</time>
      </trkpt>
      <trkpt lat="45.16799" lon="4.80201">
        <ele>213.56500244141</ele>
        <time>2010-10-16T13:33:07Z</time>
      </trkpt>
      <trkpt lat="45.16816" lon="4.80196">
        <ele>212.95399475098</ele>
        <time>2010-10-16T13:33:09Z</time>
      </trkpt>
      <trkpt lat="45.16833" lon="4.80204">
        <ele>211.55200195312</ele>
        <time>2010-10-16T13:33:11Z</time>
      </trkpt>
      <trkpt lat="45.16841" lon="4.8021">
        <ele>210.61700439453</ele>
        <time>2010-10-16T13:33:12Z</time>
      </trkpt>
      <trkpt lat="45.16882" lon="4.80253">
        <ele>206</ele>
        <time>2010-10-16T13:33:17Z</time>
      </trkpt>
      <trkpt lat="45.16918" lon="4.80273">
        <ele>202.10299682617</ele>
        <time>2010-10-16T13:33:21Z</time>
      </trkpt>
      <trkpt lat="45.16961" lon="4.80281">
        <ele>198.93899536133</ele>
        <time>2010-10-16T13:33:25Z</time>
      </trkpt>
      <trkpt lat="45.17008" lon="4.80281">
        <ele>192.82000732422</ele>
        <time>2010-10-16T13:33:29Z</time>
      </trkpt>
      <trkpt lat="45.17081" lon="4.8028">
        <ele>185.83000183106</ele>
        <time>2010-10-16T13:33:35Z</time>
      </trkpt>
      <trkpt lat="45.17092" lon="4.80281">
        <ele>185.15600585938</ele>
        <time>2010-10-16T13:33:36Z</time>
      </trkpt>
      <trkpt lat="45.1712" lon="4.80268">
        <ele>183.82299804688</ele>
        <time>2010-10-16T13:33:39Z</time>
      </trkpt>
      <trkpt lat="45.17126" lon="4.80246">
        <ele>182.53399658203</ele>
        <time>2010-10-16T13:33:41Z</time>
      </trkpt>
      <trkpt lat="45.17119" lon="4.80221">
        <ele>181.42100524902</ele>
        <time>2010-10-16T13:33:43Z</time>
      </trkpt>
      <trkpt lat="45.17112" lon="4.80213">
        <ele>180.7140045166</ele>
        <time>2010-10-16T13:33:44Z</time>
      </trkpt>
      <trkpt lat="45.17088" lon="4.80188">
        <ele>178.78999328613</ele>
        <time>2010-10-16T13:33:47Z</time>
      </trkpt>
      <trkpt lat="45.1708" lon="4.80165">
        <ele>178.12100219727</ele>
        <time>2010-10-16T13:33:50Z</time>
      </trkpt>
      <trkpt lat="45.1709" lon="4.80164">
        <ele>176.875</ele>
        <time>2010-10-16T13:33:52Z</time>
      </trkpt>
      <trkpt lat="45.17099" lon="4.80177">
        <ele>175.02200317383</ele>
        <time>2010-10-16T13:33:54Z</time>
      </trkpt>
      <trkpt lat="45.1711" lon="4.80194">
        <ele>173.25500488281</ele>
        <time>2010-10-16T13:33:56Z</time>
      </trkpt>
      <trkpt lat="45.17133" lon="4.80216">
        <ele>169.42900085449</ele>
        <time>2010-10-16T13:33:59Z</time>
      </trkpt>
      <trkpt lat="45.17168" lon="4.80273">
        <ele>163.97799682617</ele>
        <time>2010-10-16T13:34:04Z</time>
      </trkpt>
      <trkpt lat="45.17181" lon="4.80299">
        <ele>161.72200012207</ele>
        <time>2010-10-16T13:34:06Z</time>
      </trkpt>
      <trkpt lat="45.17189" lon="4.80335">
        <ele>159.59399414062</ele>
        <time>2010-10-16T13:34:09Z</time>
      </trkpt>
      <trkpt lat="45.17179" lon="4.80357">
        <ele>158.06199645996</ele>
        <time>2010-10-16T13:34:11Z</time>
      </trkpt>
      <trkpt lat="45.17171" lon="4.80365">
        <ele>157.16299438477</ele>
        <time>2010-10-16T13:34:12Z</time>
      </trkpt>
      <trkpt lat="45.17152" lon="4.80379">
        <ele>155.41499328613</ele>
        <time>2010-10-16T13:34:14Z</time>
      </trkpt>
      <trkpt lat="45.17124" lon="4.80408">
        <ele>151.90100097656</ele>
        <time>2010-10-16T13:34:17Z</time>
      </trkpt>
      <trkpt lat="45.17068" lon="4.80441">
        <ele>147.61199951172</ele>
        <time>2010-10-16T13:34:22Z</time>
      </trkpt>
      <trkpt lat="45.17057" lon="4.80442">
        <ele>146.90299987793</ele>
        <time>2010-10-16T13:34:23Z</time>
      </trkpt>
      <trkpt lat="45.16997" lon="4.80459">
        <ele>143.68699645996</ele>
        <time>2010-10-16T13:34:28Z</time>
      </trkpt>
      <trkpt lat="45.16922" lon="4.80477">
        <ele>138.02000427246</ele>
        <time>2010-10-16T13:34:34Z</time>
      </trkpt>
      <trkpt lat="45.16911" lon="4.80478">
        <ele>137.39399719238</ele>
        <time>2010-10-16T13:34:35Z</time>
      </trkpt>
      <trkpt lat="45.16886" lon="4.80493">
        <ele>135.29899597168</ele>
        <time>2010-10-16T13:34:38Z</time>
      </trkpt>
      <trkpt lat="45.16879" lon="4.80518">
        <ele>132.87199401856</ele>
        <time>2010-10-16T13:34:40Z</time>
      </trkpt>
      <trkpt lat="45.16866" lon="4.80553">
        <ele>130.63499450684</ele>
        <time>2010-10-16T13:34:43Z</time>
      </trkpt>
      <trkpt lat="45.16842" lon="4.80568">
        <ele>129.55599975586</ele>
        <time>2010-10-16T13:34:46Z</time>
      </trkpt>
      <trkpt lat="45.16833" lon="4.80578">
        <ele>129.53500366211</ele>
        <time>2010-10-16T13:34:48Z</time>
      </trkpt>
      <trkpt lat="45.16832" lon="4.80583">
        <ele>129.52099609375</ele>
        <time>2010-10-16T13:34:49Z</time>
      </trkpt>
      <trkpt lat="45.16831" lon="4.8059">
        <ele>129.28199768066</ele>
        <time>2010-10-16T13:34:51Z</time>
      </trkpt>
      <trkpt lat="45.16832" lon="4.80594">
        <ele>128.78999328613</ele>
        <time>2010-10-16T13:34:56Z</time>
      </trkpt>
      <trkpt lat="45.16835" lon="4.80596">
        <ele>128.71699523926</ele>
        <time>2010-10-16T13:36:43Z</time>
      </trkpt>
      <trkpt lat="45.16836" lon="4.80598">
        <ele>128.70599365234</ele>
        <time>2010-10-16T13:36:44Z</time>
      </trkpt>
      <trkpt lat="45.16841" lon="4.80612">
        <ele>128.61199951172</ele>
        <time>2010-10-16T13:36:50Z</time>
      </trkpt>
      <trkpt lat="45.16843" lon="4.80621">
        <ele>128.59800720215</ele>
        <time>2010-10-16T13:36:53Z</time>
      </trkpt>
      <trkpt lat="45.16857" lon="4.8062">
        <ele>128.30099487305</ele>
        <time>2010-10-16T13:36:58Z</time>
      </trkpt>
      <trkpt lat="45.16863" lon="4.80615">
        <ele>128.04499816894</ele>
        <time>2010-10-16T13:37:00Z</time>
      </trkpt>
      <trkpt lat="45.16873" lon="4.80606">
        <ele>128.19200134277</ele>
        <time>2010-10-16T13:37:03Z</time>
      </trkpt>
      <trkpt lat="45.16905" lon="4.80582">
        <ele>128.6549987793</ele>
        <time>2010-10-16T13:37:11Z</time>
      </trkpt>
      <trkpt lat="45.1691" lon="4.80579">
        <ele>128.50100708008</ele>
        <time>2010-10-16T13:37:12Z</time>
      </trkpt>
      <trkpt lat="45.16953" lon="4.80552">
        <ele>127.89099884033</ele>
        <time>2010-10-16T13:37:20Z</time>
      </trkpt>
      <trkpt lat="45.16964" lon="4.80547">
        <ele>127.98400115967</ele>
        <time>2010-10-16T13:37:22Z</time>
      </trkpt>
      <trkpt lat="45.17014" lon="4.80532">
        <ele>126.73899841309</ele>
        <time>2010-10-16T13:37:30Z</time>
      </trkpt>
      <trkpt lat="45.17076" lon="4.80516">
        <ele>124.97299957275</ele>
        <time>2010-10-16T13:37:39Z</time>
      </trkpt>
      <trkpt lat="45.1709" lon="4.80513">
        <ele>124.93199920654</ele>
        <time>2010-10-16T13:37:41Z</time>
      </trkpt>
      <trkpt lat="45.17117" lon="4.80523">
        <ele>124.37999725342</ele>
        <time>2010-10-16T13:37:45Z</time>
      </trkpt>
      <trkpt lat="45.1715" lon="4.80534">
        <ele>123.80500030518</ele>
        <time>2010-10-16T13:37:50Z</time>
      </trkpt>
      <trkpt lat="45.17192" lon="4.80539">
        <ele>123.81400299072</ele>
        <time>2010-10-16T13:37:56Z</time>
      </trkpt>
      <trkpt lat="45.17245" lon="4.80545">
        <ele>120.2080001831</ele>
        <time>2010-10-16T13:38:03Z</time>
      </trkpt>
      <trkpt lat="45.17306" lon="4.80551">
        <ele>117.9879989624</ele>
        <time>2010-10-16T13:38:11Z</time>
      </trkpt>
      <trkpt lat="45.17327" lon="4.80553">
        <ele>117.57599639893</ele>
        <time>2010-10-16T13:38:14Z</time>
      </trkpt>
      <trkpt lat="45.1735" lon="4.80575">
        <ele>116.36599731445</ele>
        <time>2010-10-16T13:38:18Z</time>
      </trkpt>
      <trkpt lat="45.17356" lon="4.80595">
        <ele>116.202003479</ele>
        <time>2010-10-16T13:38:20Z</time>
      </trkpt>
      <trkpt lat="45.17368" lon="4.80647">
        <ele>114.6129989624</ele>
        <time>2010-10-16T13:38:25Z</time>
      </trkpt>
      <trkpt lat="45.17374" lon="4.80677">
        <ele>114.13999938965</ele>
        <time>2010-10-16T13:38:28Z</time>
      </trkpt>
      <trkpt lat="45.17376" lon="4.80719">
        <ele>113.79399871826</ele>
        <time>2010-10-16T13:38:32Z</time>
      </trkpt>
      <trkpt lat="45.17388" lon="4.8074">
        <ele>114.44499969482</ele>
        <time>2010-10-16T13:38:35Z</time>
      </trkpt>
      <trkpt lat="45.174" lon="4.80746">
        <ele>114.56999969482</ele>
        <time>2010-10-16T13:38:37Z</time>
      </trkpt>
      <trkpt lat="45.17429" lon="4.80738">
        <ele>114.202003479</ele>
        <time>2010-10-16T13:38:42Z</time>
      </trkpt>
      <trkpt lat="45.17433" lon="4.8073">
        <ele>114.34400177002</ele>
        <time>2010-10-16T13:38:43Z</time>
      </trkpt>
      <trkpt lat="45.17446" lon="4.80709">
        <ele>114.36000061035</ele>
        <time>2010-10-16T13:38:46Z</time>
      </trkpt>
      <trkpt lat="45.17451" lon="4.80704">
        <ele>114.39399719238</ele>
        <time>2010-10-16T13:38:47Z</time>
      </trkpt>
      <trkpt lat="45.17471" lon="4.807">
        <ele>114.45700073242</ele>
        <time>2010-10-16T13:38:50Z</time>
      </trkpt>
      <trkpt lat="45.1749" lon="4.80714">
        <ele>113.16400146484</ele>
        <time>2010-10-16T13:38:53Z</time>
      </trkpt>
      <trkpt lat="45.17538" lon="4.80754">
        <ele>109.89099884033</ele>
        <time>2010-10-16T13:39:00Z</time>
      </trkpt>
      <trkpt lat="45.17579" lon="4.80781">
        <ele>109.66899871826</ele>
        <time>2010-10-16T13:39:06Z</time>
      </trkpt>
      <trkpt lat="45.17632" lon="4.80808">
        <ele>110.17199707031</ele>
        <time>2010-10-16T13:39:14Z</time>
      </trkpt>
      <trkpt lat="45.17662" lon="4.80825">
        <ele>110.62699890137</ele>
        <time>2010-10-16T13:39:19Z</time>
      </trkpt>
      <trkpt lat="45.17711" lon="4.80854">
        <ele>110.43599700928</ele>
        <time>2010-10-16T13:39:27Z</time>
      </trkpt>
      <trkpt lat="45.17762" lon="4.80882">
        <ele>110.44899749756</ele>
        <time>2010-10-16T13:39:35Z</time>
      </trkpt>
      <trkpt lat="45.17812" lon="4.8091">
        <ele>109.9820022583</ele>
        <time>2010-10-16T13:39:43Z</time>
      </trkpt>
      <trkpt lat="45.17849" lon="4.80931">
        <ele>110.30599975586</ele>
        <time>2010-10-16T13:39:49Z</time>
      </trkpt>
      <trkpt lat="45.1793" lon="4.80975">
        <ele>111.15399932861</ele>
        <time>2010-10-16T13:40:02Z</time>
      </trkpt>
      <trkpt lat="45.1797" lon="4.8099">
        <ele>111.49099731445</ele>
        <time>2010-10-16T13:40:08Z</time>
      </trkpt>
      <trkpt lat="45.18039" lon="4.80999">
        <ele>110.92800140381</ele>
        <time>2010-10-16T13:40:18Z</time>
      </trkpt>
      <trkpt lat="45.18092" lon="4.80994">
        <ele>111.60800170898</ele>
        <time>2010-10-16T13:40:26Z</time>
      </trkpt>
      <trkpt lat="45.18118" lon="4.80988">
        <ele>111.81600189209</ele>
        <time>2010-10-16T13:40:30Z</time>
      </trkpt>
      <trkpt lat="45.18134" lon="4.80962">
        <ele>112.18099975586</ele>
        <time>2010-10-16T13:40:34Z</time>
      </trkpt>
      <trkpt lat="45.18134" lon="4.80952">
        <ele>112.12300109863</ele>
        <time>2010-10-16T13:40:35Z</time>
      </trkpt>
      <trkpt lat="45.1813" lon="4.80846">
        <ele>112.18800354004</ele>
        <time>2010-10-16T13:40:46Z</time>
      </trkpt>
      <trkpt lat="45.1813" lon="4.80807">
        <ele>112.14199829102</ele>
        <time>2010-10-16T13:40:50Z</time>
      </trkpt>
      <trkpt lat="45.18142" lon="4.80773">
        <ele>111.79100036621</ele>
        <time>2010-10-16T13:40:54Z</time>
      </trkpt>
      <trkpt lat="45.18147" lon="4.80768">
        <ele>111.85399627685</ele>
        <time>2010-10-16T13:40:55Z</time>
      </trkpt>
      <trkpt lat="45.18171" lon="4.80749">
        <ele>111.61699676514</ele>
        <time>2010-10-16T13:40:59Z</time>
      </trkpt>
      <trkpt lat="45.18217" lon="4.80734">
        <ele>111.2620010376</ele>
        <time>2010-10-16T13:41:06Z</time>
      </trkpt>
      <trkpt lat="45.18287" lon="4.80716">
        <ele>111.00800323486</ele>
        <time>2010-10-16T13:41:16Z</time>
      </trkpt>
      <trkpt lat="45.18328" lon="4.80712">
        <ele>111.81999969482</ele>
        <time>2010-10-16T13:41:22Z</time>
      </trkpt>
      <trkpt lat="45.18355" lon="4.80728">
        <ele>112.9049987793</ele>
        <time>2010-10-16T13:41:27Z</time>
      </trkpt>
      <trkpt lat="45.18374" lon="4.80748">
        <ele>113.96600341797</ele>
        <time>2010-10-16T13:41:31Z</time>
      </trkpt>
      <trkpt lat="45.18384" lon="4.80774">
        <ele>114.82900238037</ele>
        <time>2010-10-16T13:41:35Z</time>
      </trkpt>
      <trkpt lat="45.18383" lon="4.80782">
        <ele>114.75900268555</ele>
        <time>2010-10-16T13:41:36Z</time>
      </trkpt>
      <trkpt lat="45.18375" lon="4.80834">
        <ele>114.99900054932</ele>
        <time>2010-10-16T13:41:42Z</time>
      </trkpt>
      <trkpt lat="45.18365" lon="4.80893">
        <ele>116.81999969482</ele>
        <time>2010-10-16T13:41:49Z</time>
      </trkpt>
      <trkpt lat="45.18362" lon="4.80951">
        <ele>118.30100250244</ele>
        <time>2010-10-16T13:41:56Z</time>
      </trkpt>
      <trkpt lat="45.18368" lon="4.81013">
        <ele>119.71700286865</ele>
        <time>2010-10-16T13:42:04Z</time>
      </trkpt>
      <trkpt lat="45.18384" lon="4.81093">
        <ele>122.01499938965</ele>
        <time>2010-10-16T13:42:14Z</time>
      </trkpt>
      <trkpt lat="45.18396" lon="4.81158">
        <ele>123.75</ele>
        <time>2010-10-16T13:42:22Z</time>
      </trkpt>
      <trkpt lat="45.18412" lon="4.81241">
        <ele>123.75299835205</ele>
        <time>2010-10-16T13:42:32Z</time>
      </trkpt>
      <trkpt lat="45.18422" lon="4.81298">
        <ele>123.05899810791</ele>
        <time>2010-10-16T13:42:39Z</time>
      </trkpt>
      <trkpt lat="45.18428" lon="4.8133">
        <ele>121.53600311279</ele>
        <time>2010-10-16T13:42:43Z</time>
      </trkpt>
      <trkpt lat="45.18431" lon="4.81345">
        <ele>121.51699829102</ele>
        <time>2010-10-16T13:42:45Z</time>
      </trkpt>
      <trkpt lat="45.1843" lon="4.81365">
        <ele>121.48999786377</ele>
        <time>2010-10-16T13:42:49Z</time>
      </trkpt>
      <trkpt lat="45.1842" lon="4.81376">
        <ele>121.12200164795</ele>
        <time>2010-10-16T13:42:53Z</time>
      </trkpt>
      <trkpt lat="45.18411" lon="4.81378">
        <ele>120.93599700928</ele>
        <time>2010-10-16T13:42:55Z</time>
      </trkpt>
      <trkpt lat="45.18384" lon="4.81379">
        <ele>120.08999633789</ele>
        <time>2010-10-16T13:43:00Z</time>
      </trkpt>
      <trkpt lat="45.18372" lon="4.81379">
        <ele>119.17099761963</ele>
        <time>2010-10-16T13:43:02Z</time>
      </trkpt>
      <trkpt lat="45.18333" lon="4.81382">
        <ele>116.93499755859</ele>
        <time>2010-10-16T13:43:07Z</time>
      </trkpt>
      <trkpt lat="45.18298" lon="4.81387">
        <ele>114.68800354004</ele>
        <time>2010-10-16T13:43:11Z</time>
      </trkpt>
      <trkpt lat="45.18245" lon="4.81388">
        <ele>113.97299957275</ele>
        <time>2010-10-16T13:43:17Z</time>
      </trkpt>
      <trkpt lat="45.18196" lon="4.81393">
        <ele>113.8629989624</ele>
        <time>2010-10-16T13:43:23Z</time>
      </trkpt>
      <trkpt lat="45.18123" lon="4.81404">
        <ele>113.91999816894</ele>
        <time>2010-10-16T13:43:32Z</time>
      </trkpt>
      <trkpt lat="45.18083" lon="4.814">
        <ele>114.0179977417</ele>
        <time>2010-10-16T13:43:37Z</time>
      </trkpt>
      <trkpt lat="45.18034" lon="4.81392">
        <ele>113.85299682617</ele>
        <time>2010-10-16T13:43:43Z</time>
      </trkpt>
      <trkpt lat="45.17986" lon="4.81377">
        <ele>113.66300201416</ele>
        <time>2010-10-16T13:43:49Z</time>
      </trkpt>
      <trkpt lat="45.17916" lon="4.81353">
        <ele>113.89900207519</ele>
        <time>2010-10-16T13:43:58Z</time>
      </trkpt>
      <trkpt lat="45.17868" lon="4.81333">
        <ele>113.65399932861</ele>
        <time>2010-10-16T13:44:04Z</time>
      </trkpt>
      <trkpt lat="45.17813" lon="4.81315">
        <ele>114.20500183106</ele>
        <time>2010-10-16T13:44:11Z</time>
      </trkpt>
      <trkpt lat="45.17767" lon="4.81314">
        <ele>114.72399902344</ele>
        <time>2010-10-16T13:44:17Z</time>
      </trkpt>
      <trkpt lat="45.17716" lon="4.81327">
        <ele>115.16100311279</ele>
        <time>2010-10-16T13:44:25Z</time>
      </trkpt>
      <trkpt lat="45.17686" lon="4.81333">
        <ele>115.50800323486</ele>
        <time>2010-10-16T13:44:30Z</time>
      </trkpt>
      <trkpt lat="45.1768" lon="4.81348">
        <ele>115.39199829102</ele>
        <time>2010-10-16T13:44:33Z</time>
      </trkpt>
      <trkpt lat="45.17683" lon="4.81353">
        <ele>115.01999664307</ele>
        <time>2010-10-16T13:44:34Z</time>
      </trkpt>
      <trkpt lat="45.17699" lon="4.81377">
        <ele>114.18199920654</ele>
        <time>2010-10-16T13:44:39Z</time>
      </trkpt>
      <trkpt lat="45.17709" lon="4.81399">
        <ele>114.3929977417</ele>
        <time>2010-10-16T13:44:43Z</time>
      </trkpt>
      <trkpt lat="45.17726" lon="4.81439">
        <ele>115.16100311279</ele>
        <time>2010-10-16T13:44:51Z</time>
      </trkpt>
      <trkpt lat="45.1772" lon="4.81459">
        <ele>115.18199920654</ele>
        <time>2010-10-16T13:44:55Z</time>
      </trkpt>
      <trkpt lat="45.17686" lon="4.81489">
        <ele>115.12599945068</ele>
        <time>2010-10-16T13:45:02Z</time>
      </trkpt>
      <trkpt lat="45.1765" lon="4.81527">
        <ele>114.46700286865</ele>
        <time>2010-10-16T13:45:09Z</time>
      </trkpt>
      <trkpt lat="45.17645" lon="4.81533">
        <ele>114.50399780273</ele>
        <time>2010-10-16T13:45:10Z</time>
      </trkpt>
      <trkpt lat="45.17642" lon="4.81562">
        <ele>114.62699890137</ele>
        <time>2010-10-16T13:45:14Z</time>
      </trkpt>
      <trkpt lat="45.1764" lon="4.81579">
        <ele>114.51599884033</ele>
        <time>2010-10-16T13:45:17Z</time>
      </trkpt>
      <trkpt lat="45.17625" lon="4.81585">
        <ele>114.15399932861</ele>
        <time>2010-10-16T13:45:20Z</time>
      </trkpt>
      <trkpt lat="45.1762" lon="4.81588">
        <ele>114.08100128174</ele>
        <time>2010-10-16T13:45:21Z</time>
      </trkpt>
      <trkpt lat="45.17609" lon="4.81593">
        <ele>114.21800231934</ele>
        <time>2010-10-16T13:45:23Z</time>
      </trkpt>
      <trkpt lat="45.17592" lon="4.81614">
        <ele>114.33899688721</ele>
        <time>2010-10-16T13:45:27Z</time>
      </trkpt>
      <trkpt lat="45.1758" lon="4.81633">
        <ele>114.08999633789</ele>
        <time>2010-10-16T13:45:30Z</time>
      </trkpt>
      <trkpt lat="45.17548" lon="4.81689">
        <ele>113.94100189209</ele>
        <time>2010-10-16T13:45:38Z</time>
      </trkpt>
      <trkpt lat="45.17525" lon="4.81725">
        <ele>113.70899963379</ele>
        <time>2010-10-16T13:45:43Z</time>
      </trkpt>
      <trkpt lat="45.1749" lon="4.81771">
        <ele>113.45600128174</ele>
        <time>2010-10-16T13:45:50Z</time>
      </trkpt>
      <trkpt lat="45.17484" lon="4.81777">
        <ele>113.41400146484</ele>
        <time>2010-10-16T13:45:51Z</time>
      </trkpt>
      <trkpt lat="45.17447" lon="4.818">
        <ele>113.26399993897</ele>
        <time>2010-10-16T13:45:57Z</time>
      </trkpt>
      <trkpt lat="45.17403" lon="4.81824">
        <ele>112.7440032959</ele>
        <time>2010-10-16T13:46:04Z</time>
      </trkpt>
      <trkpt lat="45.17363" lon="4.81845">
        <ele>112.80100250244</ele>
        <time>2010-10-16T13:46:10Z</time>
      </trkpt>
      <trkpt lat="45.17306" lon="4.81877">
        <ele>112.58499908447</ele>
        <time>2010-10-16T13:46:19Z</time>
      </trkpt>
      <trkpt lat="45.17255" lon="4.81905">
        <ele>112.21700286865</ele>
        <time>2010-10-16T13:46:27Z</time>
      </trkpt>
      <trkpt lat="45.17204" lon="4.81933">
        <ele>111.74900054932</ele>
        <time>2010-10-16T13:46:35Z</time>
      </trkpt>
      <trkpt lat="45.17174" lon="4.81949">
        <ele>112.1309967041</ele>
        <time>2010-10-16T13:46:40Z</time>
      </trkpt>
      <trkpt lat="45.17134" lon="4.81968">
        <ele>112.32399749756</ele>
        <time>2010-10-16T13:46:46Z</time>
      </trkpt>
      <trkpt lat="45.17082" lon="4.81995">
        <ele>112.48400115967</ele>
        <time>2010-10-16T13:46:54Z</time>
      </trkpt>
      <trkpt lat="45.17051" lon="4.82011">
        <ele>112.58699798584</ele>
        <time>2010-10-16T13:46:59Z</time>
      </trkpt>
      <trkpt lat="45.17025" lon="4.82033">
        <ele>113.0059967041</ele>
        <time>2010-10-16T13:47:04Z</time>
      </trkpt>
      <trkpt lat="45.17006" lon="4.82055">
        <ele>113.24500274658</ele>
        <time>2010-10-16T13:47:08Z</time>
      </trkpt>
      <trkpt lat="45.16978" lon="4.82076">
        <ele>113.34200286865</ele>
        <time>2010-10-16T13:47:13Z</time>
      </trkpt>
      <trkpt lat="45.16972" lon="4.82074">
        <ele>113.42900085449</ele>
        <time>2010-10-16T13:47:14Z</time>
      </trkpt>
      <trkpt lat="45.16932" lon="4.82066">
        <ele>113.65200042725</ele>
        <time>2010-10-16T13:47:20Z</time>
      </trkpt>
      <trkpt lat="45.16875" lon="4.82064">
        <ele>113.36799621582</ele>
        <time>2010-10-16T13:47:28Z</time>
      </trkpt>
      <trkpt lat="45.16832" lon="4.82073">
        <ele>113.08999633789</ele>
        <time>2010-10-16T13:47:34Z</time>
      </trkpt>
      <trkpt lat="45.16802" lon="4.82077">
        <ele>113.01000213623</ele>
        <time>2010-10-16T13:47:39Z</time>
      </trkpt>
      <trkpt lat="45.16796" lon="4.82077">
        <ele>112.93699645996</ele>
        <time>2010-10-16T13:47:40Z</time>
      </trkpt>
      <trkpt lat="45.16777" lon="4.82095">
        <ele>112.75299835205</ele>
        <time>2010-10-16T13:47:44Z</time>
      </trkpt>
      <trkpt lat="45.16772" lon="4.821">
        <ele>112.95999908447</ele>
        <time>2010-10-16T13:47:45Z</time>
      </trkpt>
      <trkpt lat="45.16727" lon="4.82128">
        <ele>113.26899719238</ele>
        <time>2010-10-16T13:47:52Z</time>
      </trkpt>
      <trkpt lat="45.16707" lon="4.82141">
        <ele>113.47200012207</ele>
        <time>2010-10-16T13:47:55Z</time>
      </trkpt>
      <trkpt lat="45.16642" lon="4.82182">
        <ele>114.11799621582</ele>
        <time>2010-10-16T13:48:05Z</time>
      </trkpt>
      <trkpt lat="45.16608" lon="4.8221">
        <ele>115.14600372315</ele>
        <time>2010-10-16T13:48:11Z</time>
      </trkpt>
      <trkpt lat="45.16593" lon="4.82223">
        <ele>115.19899749756</ele>
        <time>2010-10-16T13:48:14Z</time>
      </trkpt>
      <trkpt lat="45.16576" lon="4.82224">
        <ele>115.43299865723</ele>
        <time>2010-10-16T13:48:18Z</time>
      </trkpt>
      <trkpt lat="45.16569" lon="4.82213">
        <ele>114.8629989624</ele>
        <time>2010-10-16T13:48:20Z</time>
      </trkpt>
      <trkpt lat="45.16557" lon="4.82184">
        <ele>111.71399688721</ele>
        <time>2010-10-16T13:48:23Z</time>
      </trkpt>
      <trkpt lat="45.16537" lon="4.82164">
        <ele>111.07199859619</ele>
        <time>2010-10-16T13:48:27Z</time>
      </trkpt>
      <trkpt lat="45.16526" lon="4.82158">
        <ele>111.08799743652</ele>
        <time>2010-10-16T13:48:30Z</time>
      </trkpt>
      <trkpt lat="45.16516" lon="4.82174">
        <ele>110.62899780273</ele>
        <time>2010-10-16T13:48:34Z</time>
      </trkpt>
      <trkpt lat="45.16516" lon="4.82186">
        <ele>110.70700073242</ele>
        <time>2010-10-16T13:48:36Z</time>
      </trkpt>
      <trkpt lat="45.16515" lon="4.82204">
        <ele>110.44400024414</ele>
        <time>2010-10-16T13:48:39Z</time>
      </trkpt>
      <trkpt lat="45.16504" lon="4.82223">
        <ele>110.25499725342</ele>
        <time>2010-10-16T13:48:43Z</time>
      </trkpt>
      <trkpt lat="45.16496" lon="4.82223">
        <ele>109.91500091553</ele>
        <time>2010-10-16T13:48:45Z</time>
      </trkpt>
      <trkpt lat="45.16461" lon="4.8221">
        <ele>109.38999938965</ele>
        <time>2010-10-16T13:48:52Z</time>
      </trkpt>
      <trkpt lat="45.16447" lon="4.82192">
        <ele>110.29100036621</ele>
        <time>2010-10-16T13:48:56Z</time>
      </trkpt>
      <trkpt lat="45.16451" lon="4.82171">
        <ele>111.08000183106</ele>
        <time>2010-10-16T13:48:59Z</time>
      </trkpt>
      <trkpt lat="45.16467" lon="4.82155">
        <ele>111.59899902344</ele>
        <time>2010-10-16T13:49:03Z</time>
      </trkpt>
      <trkpt lat="45.1648" lon="4.82163">
        <ele>111.61499786377</ele>
        <time>2010-10-16T13:49:06Z</time>
      </trkpt>
      <trkpt lat="45.16486" lon="4.82181">
        <ele>112.68099975586</ele>
        <time>2010-10-16T13:49:09Z</time>
      </trkpt>
      <trkpt lat="45.16484" lon="4.82205">
        <ele>114.20899963379</ele>
        <time>2010-10-16T13:49:14Z</time>
      </trkpt>
      <trkpt lat="45.16464" lon="4.82256">
        <ele>114.59899902344</ele>
        <time>2010-10-16T13:49:22Z</time>
      </trkpt>
      <trkpt lat="45.16446" lon="4.82305">
        <ele>114.80300140381</ele>
        <time>2010-10-16T13:49:29Z</time>
      </trkpt>
      <trkpt lat="45.16419" lon="4.82372">
        <ele>116.56300354004</ele>
        <time>2010-10-16T13:49:38Z</time>
      </trkpt>
      <trkpt lat="45.16389" lon="4.82447">
        <ele>117.80599975586</ele>
        <time>2010-10-16T13:49:48Z</time>
      </trkpt>
      <trkpt lat="45.16356" lon="4.82532">
        <ele>119.35099792481</ele>
        <time>2010-10-16T13:49:59Z</time>
      </trkpt>
      <trkpt lat="45.1633" lon="4.82599">
        <ele>119.71800231934</ele>
        <time>2010-10-16T13:50:08Z</time>
      </trkpt>
      <trkpt lat="45.16328" lon="4.82605">
        <ele>119.72699737549</ele>
        <time>2010-10-16T13:50:09Z</time>
      </trkpt>
      <trkpt lat="45.16331" lon="4.82615">
        <ele>120.17600250244</ele>
        <time>2010-10-16T13:50:12Z</time>
      </trkpt>
      <trkpt lat="45.16341" lon="4.82611">
        <ele>119.89800262451</ele>
        <time>2010-10-16T13:50:15Z</time>
      </trkpt>
      <trkpt lat="45.16354" lon="4.82631">
        <ele>120.26399993897</ele>
        <time>2010-10-16T13:50:20Z</time>
      </trkpt>
      <trkpt lat="45.16347" lon="4.82647">
        <ele>122.2620010376</ele>
        <time>2010-10-16T13:50:24Z</time>
      </trkpt>
      <trkpt lat="45.16338" lon="4.82671">
        <ele>123.65000152588</ele>
        <time>2010-10-16T13:50:30Z</time>
      </trkpt>
      <trkpt lat="45.16327" lon="4.82697">
        <ele>124.54699707031</ele>
        <time>2010-10-16T13:50:36Z</time>
      </trkpt>
      <trkpt lat="45.16314" lon="4.82731">
        <ele>126.37400054932</ele>
        <time>2010-10-16T13:50:44Z</time>
      </trkpt>
      <trkpt lat="45.16304" lon="4.82763">
        <ele>127.61599731445</ele>
        <time>2010-10-16T13:50:51Z</time>
      </trkpt>
      <trkpt lat="45.16293" lon="4.82802">
        <ele>131.14999389648</ele>
        <time>2010-10-16T13:51:00Z</time>
      </trkpt>
      <trkpt lat="45.16289" lon="4.82814">
        <ele>132.72300720215</ele>
        <time>2010-10-16T13:51:03Z</time>
      </trkpt>
      <trkpt lat="45.1628" lon="4.82838">
        <ele>133.33599853516</ele>
        <time>2010-10-16T13:51:09Z</time>
      </trkpt>
      <trkpt lat="45.16272" lon="4.82865">
        <ele>131.44999694824</ele>
        <time>2010-10-16T13:51:13Z</time>
      </trkpt>
      <trkpt lat="45.16257" lon="4.82904">
        <ele>129.10099792481</ele>
        <time>2010-10-16T13:51:18Z</time>
      </trkpt>
      <trkpt lat="45.16244" lon="4.82944">
        <ele>126.86100006103</ele>
        <time>2010-10-16T13:51:22Z</time>
      </trkpt>
      <trkpt lat="45.16219" lon="4.82975">
        <ele>125.98500061035</ele>
        <time>2010-10-16T13:51:26Z</time>
      </trkpt>
      <trkpt lat="45.16208" lon="4.82991">
        <ele>126.12300109863</ele>
        <time>2010-10-16T13:51:28Z</time>
      </trkpt>
      <trkpt lat="45.16188" lon="4.83024">
        <ele>126.16899871826</ele>
        <time>2010-10-16T13:51:32Z</time>
      </trkpt>
      <trkpt lat="45.16183" lon="4.83031">
        <ele>126.24700164795</ele>
        <time>2010-10-16T13:51:33Z</time>
      </trkpt>
      <trkpt lat="45.16175" lon="4.83047">
        <ele>126.08200073242</ele>
        <time>2010-10-16T13:51:35Z</time>
      </trkpt>
      <trkpt lat="45.16156" lon="4.83085">
        <ele>125.82399749756</ele>
        <time>2010-10-16T13:51:40Z</time>
      </trkpt>
      <trkpt lat="45.16132" lon="4.83133">
        <ele>125.10800170898</ele>
        <time>2010-10-16T13:51:46Z</time>
      </trkpt>
      <trkpt lat="45.16117" lon="4.83166">
        <ele>124.93199920654</ele>
        <time>2010-10-16T13:51:50Z</time>
      </trkpt>
      <trkpt lat="45.16098" lon="4.83208">
        <ele>125.51399993897</ele>
        <time>2010-10-16T13:51:55Z</time>
      </trkpt>
      <trkpt lat="45.16071" lon="4.83254">
        <ele>126.59600067139</ele>
        <time>2010-10-16T13:52:02Z</time>
      </trkpt>
      <trkpt lat="45.16048" lon="4.83295">
        <ele>127.77899932861</ele>
        <time>2010-10-16T13:52:09Z</time>
      </trkpt>
      <trkpt lat="45.16044" lon="4.83301">
        <ele>127.63300323486</ele>
        <time>2010-10-16T13:52:10Z</time>
      </trkpt>
      <trkpt lat="45.16035" lon="4.83312">
        <ele>127.16500091553</ele>
        <time>2010-10-16T13:52:12Z</time>
      </trkpt>
      <trkpt lat="45.15993" lon="4.8335">
        <ele>125.66300201416</ele>
        <time>2010-10-16T13:52:20Z</time>
      </trkpt>
      <trkpt lat="45.15966" lon="4.83373">
        <ele>125.18699645996</ele>
        <time>2010-10-16T13:52:25Z</time>
      </trkpt>
      <trkpt lat="45.15926" lon="4.83413">
        <ele>122.125</ele>
        <time>2010-10-16T13:52:32Z</time>
      </trkpt>
      <trkpt lat="45.15902" lon="4.83418">
        <ele>120.22899627685</ele>
        <time>2010-10-16T13:52:36Z</time>
      </trkpt>
      <trkpt lat="45.15894" lon="4.83414">
        <ele>118.85099792481</ele>
        <time>2010-10-16T13:52:39Z</time>
      </trkpt>
      <trkpt lat="45.15894" lon="4.83414">
        <ele>118.67199707031</ele>
        <time>2010-10-16T13:52:41Z</time>
      </trkpt>
      <trkpt lat="45.1589" lon="4.83435">
        <ele>117.55500030518</ele>
        <time>2010-10-16T13:52:53Z</time>
      </trkpt>
      <trkpt lat="45.1589" lon="4.8344">
        <ele>117.3870010376</ele>
        <time>2010-10-16T13:52:54Z</time>
      </trkpt>
      <trkpt lat="45.1589" lon="4.83453">
        <ele>117.17500305176</ele>
        <time>2010-10-16T13:52:56Z</time>
      </trkpt>
      <trkpt lat="45.15891" lon="4.83507">
        <ele>116.40100097656</ele>
        <time>2010-10-16T13:53:04Z</time>
      </trkpt>
      <trkpt lat="45.15894" lon="4.8356">
        <ele>116.66400146484</ele>
        <time>2010-10-16T13:53:11Z</time>
      </trkpt>
      <trkpt lat="45.15899" lon="4.83581">
        <ele>117.17500305176</ele>
        <time>2010-10-16T13:53:14Z</time>
      </trkpt>
      <trkpt lat="45.15904" lon="4.83594">
        <ele>117.2320022583</ele>
        <time>2010-10-16T13:53:16Z</time>
      </trkpt>
      <trkpt lat="45.15909" lon="4.8362">
        <ele>117.51399993897</ele>
        <time>2010-10-16T13:53:20Z</time>
      </trkpt>
      <trkpt lat="45.15912" lon="4.83632">
        <ele>117.80400085449</ele>
        <time>2010-10-16T13:53:22Z</time>
      </trkpt>
      <trkpt lat="45.15915" lon="4.83644">
        <ele>117.96800231934</ele>
        <time>2010-10-16T13:53:24Z</time>
      </trkpt>
      <trkpt lat="45.15929" lon="4.83663">
        <ele>118.78399658203</ele>
        <time>2010-10-16T13:53:29Z</time>
      </trkpt>
      <trkpt lat="45.15938" lon="4.83663">
        <ele>118.9580001831</ele>
        <time>2010-10-16T13:53:31Z</time>
      </trkpt>
      <trkpt lat="45.15956" lon="4.83658">
        <ele>118.68499755859</ele>
        <time>2010-10-16T13:53:35Z</time>
      </trkpt>
      <trkpt lat="45.15984" lon="4.83664">
        <ele>119.80500030518</ele>
        <time>2010-10-16T13:53:41Z</time>
      </trkpt>
      <trkpt lat="45.15997" lon="4.83683">
        <ele>120.2919998169</ele>
        <time>2010-10-16T13:53:45Z</time>
      </trkpt>
      <trkpt lat="45.16001" lon="4.83705">
        <ele>120.32399749756</ele>
        <time>2010-10-16T13:53:48Z</time>
      </trkpt>
      <trkpt lat="45.16001" lon="4.83765">
        <ele>119.99199676514</ele>
        <time>2010-10-16T13:53:56Z</time>
      </trkpt>
      <trkpt lat="45.16005" lon="4.83824">
        <ele>120.98899841309</ele>
        <time>2010-10-16T13:54:04Z</time>
      </trkpt>
      <trkpt lat="45.16005" lon="4.83831">
        <ele>120.9940032959</ele>
        <time>2010-10-16T13:54:05Z</time>
      </trkpt>
      <trkpt lat="45.16002" lon="4.83865">
        <ele>121.38300323486</ele>
        <time>2010-10-16T13:54:10Z</time>
      </trkpt>
      <trkpt lat="45.1599" lon="4.83882">
        <ele>121.54699707031</ele>
        <time>2010-10-16T13:54:13Z</time>
      </trkpt>
      <trkpt lat="45.15981" lon="4.8389">
        <ele>121.73899841309</ele>
        <time>2010-10-16T13:54:15Z</time>
      </trkpt>
      <trkpt lat="45.15959" lon="4.83924">
        <ele>122.33200073242</ele>
        <time>2010-10-16T13:54:21Z</time>
      </trkpt>
      <trkpt lat="45.15958" lon="4.83954">
        <ele>122.49099731445</ele>
        <time>2010-10-16T13:54:25Z</time>
      </trkpt>
      <trkpt lat="45.15959" lon="4.83962">
        <ele>122.58799743652</ele>
        <time>2010-10-16T13:54:26Z</time>
      </trkpt>
      <trkpt lat="45.15963" lon="4.84004">
        <ele>124.11599731445</ele>
        <time>2010-10-16T13:54:32Z</time>
      </trkpt>
      <trkpt lat="45.15961" lon="4.84016">
        <ele>124.61399841309</ele>
        <time>2010-10-16T13:54:34Z</time>
      </trkpt>
      <trkpt lat="45.15956" lon="4.84065">
        <ele>126.7620010376</ele>
        <time>2010-10-16T13:54:42Z</time>
      </trkpt>
      <trkpt lat="45.15944" lon="4.84118">
        <ele>128.75</ele>
        <time>2010-10-16T13:54:51Z</time>
      </trkpt>
      <trkpt lat="45.15934" lon="4.84147">
        <ele>129.98899841309</ele>
        <time>2010-10-16T13:54:57Z</time>
      </trkpt>
      <trkpt lat="45.15914" lon="4.8418">
        <ele>130.50900268555</ele>
        <time>2010-10-16T13:55:04Z</time>
      </trkpt>
      <trkpt lat="45.15884" lon="4.84234">
        <ele>131.10600280762</ele>
        <time>2010-10-16T13:55:14Z</time>
      </trkpt>
      <trkpt lat="45.15866" lon="4.84274">
        <ele>131.74000549316</ele>
        <time>2010-10-16T13:55:21Z</time>
      </trkpt>
      <trkpt lat="45.15855" lon="4.8431">
        <ele>132.87800598144</ele>
        <time>2010-10-16T13:55:27Z</time>
      </trkpt>
      <trkpt lat="45.15846" lon="4.84326">
        <ele>133.17700195312</ele>
        <time>2010-10-16T13:55:30Z</time>
      </trkpt>
      <trkpt lat="45.15836" lon="4.84338">
        <ele>133.61999511719</ele>
        <time>2010-10-16T13:55:33Z</time>
      </trkpt>
      <trkpt lat="45.15823" lon="4.84362">
        <ele>134.73699951172</ele>
        <time>2010-10-16T13:55:38Z</time>
      </trkpt>
      <trkpt lat="45.15821" lon="4.84373">
        <ele>135.47700500488</ele>
        <time>2010-10-16T13:55:40Z</time>
      </trkpt>
      <trkpt lat="45.15818" lon="4.8441">
        <ele>137.54600524902</ele>
        <time>2010-10-16T13:55:47Z</time>
      </trkpt>
      <trkpt lat="45.15812" lon="4.84444">
        <ele>139.65199279785</ele>
        <time>2010-10-16T13:55:54Z</time>
      </trkpt>
      <trkpt lat="45.15803" lon="4.84469">
        <ele>141.36999511719</ele>
        <time>2010-10-16T13:56:00Z</time>
      </trkpt>
      <trkpt lat="45.15789" lon="4.84483">
        <ele>143.05799865723</ele>
        <time>2010-10-16T13:56:05Z</time>
      </trkpt>
      <trkpt lat="45.15761" lon="4.84501">
        <ele>144.7140045166</ele>
        <time>2010-10-16T13:56:13Z</time>
      </trkpt>
      <trkpt lat="45.15746" lon="4.84521">
        <ele>146.33999633789</ele>
        <time>2010-10-16T13:56:19Z</time>
      </trkpt>
      <trkpt lat="45.15734" lon="4.84546">
        <ele>148.01899719238</ele>
        <time>2010-10-16T13:56:25Z</time>
      </trkpt>
      <trkpt lat="45.15729" lon="4.8456">
        <ele>148.92199707031</ele>
        <time>2010-10-16T13:56:28Z</time>
      </trkpt>
      <trkpt lat="45.15724" lon="4.84578">
        <ele>149.94500732422</ele>
        <time>2010-10-16T13:56:31Z</time>
      </trkpt>
      <trkpt lat="45.15709" lon="4.84599">
        <ele>152.24000549316</ele>
        <time>2010-10-16T13:56:36Z</time>
      </trkpt>
      <trkpt lat="45.157" lon="4.84603">
        <ele>152.94099426269</ele>
        <time>2010-10-16T13:56:38Z</time>
      </trkpt>
      <trkpt lat="45.15664" lon="4.84616">
        <ele>155.1369934082</ele>
        <time>2010-10-16T13:56:46Z</time>
      </trkpt>
      <trkpt lat="45.15652" lon="4.84621">
        <ele>155.29100036621</ele>
        <time>2010-10-16T13:56:49Z</time>
      </trkpt>
      <trkpt lat="45.15636" lon="4.84643">
        <ele>155.69400024414</ele>
        <time>2010-10-16T13:56:54Z</time>
      </trkpt>
      <trkpt lat="45.15634" lon="4.84649">
        <ele>155.96499633789</ele>
        <time>2010-10-16T13:56:55Z</time>
      </trkpt>
      <trkpt lat="45.15631" lon="4.84683">
        <ele>156.26899719238</ele>
        <time>2010-10-16T13:57:00Z</time>
      </trkpt>
      <trkpt lat="45.15634" lon="4.8472">
        <ele>156.46099853516</ele>
        <time>2010-10-16T13:57:05Z</time>
      </trkpt>
      <trkpt lat="45.15643" lon="4.84748">
        <ele>157.15800476074</ele>
        <time>2010-10-16T13:57:09Z</time>
      </trkpt>
      <trkpt lat="45.15658" lon="4.84777">
        <ele>157.85699462891</ele>
        <time>2010-10-16T13:57:14Z</time>
      </trkpt>
      <trkpt lat="45.15665" lon="4.84811">
        <ele>158.76499938965</ele>
        <time>2010-10-16T13:57:19Z</time>
      </trkpt>
      <trkpt lat="45.15662" lon="4.84825">
        <ele>158.98199462891</ele>
        <time>2010-10-16T13:57:21Z</time>
      </trkpt>
      <trkpt lat="45.15647" lon="4.84871">
        <ele>160.24800109863</ele>
        <time>2010-10-16T13:57:28Z</time>
      </trkpt>
      <trkpt lat="45.1563" lon="4.84937">
        <ele>161.7200012207</ele>
        <time>2010-10-16T13:57:37Z</time>
      </trkpt>
      <trkpt lat="45.15621" lon="4.84977">
        <ele>162.41400146484</ele>
        <time>2010-10-16T13:57:42Z</time>
      </trkpt>
      <trkpt lat="45.15611" lon="4.85023">
        <ele>163.19700622559</ele>
        <time>2010-10-16T13:57:48Z</time>
      </trkpt>
      <trkpt lat="45.15599" lon="4.85055">
        <ele>163.30999755859</ele>
        <time>2010-10-16T13:57:52Z</time>
      </trkpt>
      <trkpt lat="45.15579" lon="4.85081">
        <ele>163.17300415039</ele>
        <time>2010-10-16T13:57:56Z</time>
      </trkpt>
      <trkpt lat="45.15525" lon="4.85119">
        <ele>163.31199645996</ele>
        <time>2010-10-16T13:58:04Z</time>
      </trkpt>
      <trkpt lat="45.1551" lon="4.8513">
        <ele>163.48599243164</ele>
        <time>2010-10-16T13:58:06Z</time>
      </trkpt>
      <trkpt lat="45.15477" lon="4.85172">
        <ele>163.92199707031</ele>
        <time>2010-10-16T13:58:11Z</time>
      </trkpt>
      <trkpt lat="45.15465" lon="4.8519">
        <ele>164.36399841309</ele>
        <time>2010-10-16T13:58:13Z</time>
      </trkpt>
      <trkpt lat="45.15435" lon="4.85217">
        <ele>165.14900207519</ele>
        <time>2010-10-16T13:58:17Z</time>
      </trkpt>
      <trkpt lat="45.15427" lon="4.8522">
        <ele>165.34199523926</ele>
        <time>2010-10-16T13:58:18Z</time>
      </trkpt>
      <trkpt lat="45.15353" lon="4.85248">
        <ele>166.59700012207</ele>
        <time>2010-10-16T13:58:27Z</time>
      </trkpt>
      <trkpt lat="45.15319" lon="4.85257">
        <ele>166.63600158691</ele>
        <time>2010-10-16T13:58:31Z</time>
      </trkpt>
      <trkpt lat="45.15288" lon="4.8528">
        <ele>167.13999938965</ele>
        <time>2010-10-16T13:58:35Z</time>
      </trkpt>
      <trkpt lat="45.15273" lon="4.85294">
        <ele>166.88800048828</ele>
        <time>2010-10-16T13:58:37Z</time>
      </trkpt>
      <trkpt lat="45.1523" lon="4.85314">
        <ele>167.35899353027</ele>
        <time>2010-10-16T13:58:42Z</time>
      </trkpt>
      <trkpt lat="45.152" lon="4.8534">
        <ele>167.84399414062</ele>
        <time>2010-10-16T13:58:46Z</time>
      </trkpt>
      <trkpt lat="45.15189" lon="4.85372">
        <ele>168.15100097656</ele>
        <time>2010-10-16T13:58:49Z</time>
      </trkpt>
      <trkpt lat="45.15188" lon="4.85396">
        <ele>168.28900146484</ele>
        <time>2010-10-16T13:58:51Z</time>
      </trkpt>
      <trkpt lat="45.15178" lon="4.85451">
        <ele>168.16200256348</ele>
        <time>2010-10-16T13:58:56Z</time>
      </trkpt>
      <trkpt lat="45.15157" lon="4.85461">
        <ele>168.56900024414</ele>
        <time>2010-10-16T13:58:59Z</time>
      </trkpt>
      <trkpt lat="45.15142" lon="4.85463">
        <ele>169.15899658203</ele>
        <time>2010-10-16T13:59:01Z</time>
      </trkpt>
      <trkpt lat="45.15118" lon="4.85487">
        <ele>170.00100708008</ele>
        <time>2010-10-16T13:59:05Z</time>
      </trkpt>
      <trkpt lat="45.15113" lon="4.85508">
        <ele>169.95300292969</ele>
        <time>2010-10-16T13:59:07Z</time>
      </trkpt>
      <trkpt lat="45.15101" lon="4.856">
        <ele>171.07499694824</ele>
        <time>2010-10-16T13:59:15Z</time>
      </trkpt>
      <trkpt lat="45.15109" lon="4.85642">
        <ele>171.58599853516</ele>
        <time>2010-10-16T13:59:19Z</time>
      </trkpt>
      <trkpt lat="45.15113" lon="4.8565">
        <ele>171.95899963379</ele>
        <time>2010-10-16T13:59:20Z</time>
      </trkpt>
      <trkpt lat="45.15138" lon="4.85705">
        <ele>173.23699951172</ele>
        <time>2010-10-16T13:59:26Z</time>
      </trkpt>
      <trkpt lat="45.15145" lon="4.85724">
        <ele>173.60000610352</ele>
        <time>2010-10-16T13:59:28Z</time>
      </trkpt>
      <trkpt lat="45.15173" lon="4.8576">
        <ele>174.2799987793</ele>
        <time>2010-10-16T13:59:33Z</time>
      </trkpt>
      <trkpt lat="45.15179" lon="4.85765">
        <ele>174.55700683594</ele>
        <time>2010-10-16T13:59:34Z</time>
      </trkpt>
      <trkpt lat="45.15222" lon="4.85802">
        <ele>176.47200012207</ele>
        <time>2010-10-16T13:59:41Z</time>
      </trkpt>
      <trkpt lat="45.15253" lon="4.85848">
        <ele>177.64199829102</ele>
        <time>2010-10-16T13:59:47Z</time>
      </trkpt>
      <trkpt lat="45.15284" lon="4.85894">
        <ele>179.05999755859</ele>
        <time>2010-10-16T13:59:53Z</time>
      </trkpt>
      <trkpt lat="45.15321" lon="4.8596">
        <ele>180.10099792481</ele>
        <time>2010-10-16T14:00:01Z</time>
      </trkpt>
      <trkpt lat="45.15358" lon="4.8603">
        <ele>180.21499633789</ele>
        <time>2010-10-16T14:00:09Z</time>
      </trkpt>
      <trkpt lat="45.15385" lon="4.86095">
        <ele>182.09700012207</ele>
        <time>2010-10-16T14:00:16Z</time>
      </trkpt>
      <trkpt lat="45.15406" lon="4.8617">
        <ele>183.70300292969</ele>
        <time>2010-10-16T14:00:24Z</time>
      </trkpt>
      <trkpt lat="45.15426" lon="4.86227">
        <ele>185.59899902344</ele>
        <time>2010-10-16T14:00:31Z</time>
      </trkpt>
      <trkpt lat="45.1544" lon="4.86256">
        <ele>186.47599792481</ele>
        <time>2010-10-16T14:00:35Z</time>
      </trkpt>
      <trkpt lat="45.15459" lon="4.86271">
        <ele>187.25700378418</ele>
        <time>2010-10-16T14:00:39Z</time>
      </trkpt>
      <trkpt lat="45.15479" lon="4.86268">
        <ele>187.63299560547</ele>
        <time>2010-10-16T14:00:42Z</time>
      </trkpt>
      <trkpt lat="45.15527" lon="4.86246">
        <ele>187.58700561523</ele>
        <time>2010-10-16T14:00:49Z</time>
      </trkpt>
      <trkpt lat="45.15563" lon="4.8624">
        <ele>188.86000061035</ele>
        <time>2010-10-16T14:00:54Z</time>
      </trkpt>
      <trkpt lat="45.15598" lon="4.86239">
        <ele>191.4640045166</ele>
        <time>2010-10-16T14:01:00Z</time>
      </trkpt>
      <trkpt lat="45.15604" lon="4.86239">
        <ele>191.69200134277</ele>
        <time>2010-10-16T14:01:01Z</time>
      </trkpt>
      <trkpt lat="45.15622" lon="4.86235">
        <ele>193.06300354004</ele>
        <time>2010-10-16T14:01:05Z</time>
      </trkpt>
      <trkpt lat="45.15645" lon="4.86233">
        <ele>195.29499816894</ele>
        <time>2010-10-16T14:01:10Z</time>
      </trkpt>
      <trkpt lat="45.15672" lon="4.86226">
        <ele>197.61500549316</ele>
        <time>2010-10-16T14:01:16Z</time>
      </trkpt>
      <trkpt lat="45.15703" lon="4.86213">
        <ele>200.1309967041</ele>
        <time>2010-10-16T14:01:23Z</time>
      </trkpt>
      <trkpt lat="45.1573" lon="4.862">
        <ele>201.87300109863</ele>
        <time>2010-10-16T14:01:29Z</time>
      </trkpt>
      <trkpt lat="45.15739" lon="4.86196">
        <ele>202.89999389648</ele>
        <time>2010-10-16T14:01:31Z</time>
      </trkpt>
      <trkpt lat="45.15779" lon="4.86178">
        <ele>204.86799621582</ele>
        <time>2010-10-16T14:01:39Z</time>
      </trkpt>
      <trkpt lat="45.15788" lon="4.86172">
        <ele>205.55299377441</ele>
        <time>2010-10-16T14:01:41Z</time>
      </trkpt>
      <trkpt lat="45.15802" lon="4.86143">
        <ele>206.31500244141</ele>
        <time>2010-10-16T14:01:46Z</time>
      </trkpt>
      <trkpt lat="45.15795" lon="4.86122">
        <ele>206.52400207519</ele>
        <time>2010-10-16T14:01:49Z</time>
      </trkpt>
      <trkpt lat="45.15781" lon="4.86109">
        <ele>206.64900207519</ele>
        <time>2010-10-16T14:01:52Z</time>
      </trkpt>
      <trkpt lat="45.15757" lon="4.86094">
        <ele>208.49200439453</ele>
        <time>2010-10-16T14:01:57Z</time>
      </trkpt>
      <trkpt lat="45.15738" lon="4.86093">
        <ele>210.23699951172</ele>
        <time>2010-10-16T14:02:01Z</time>
      </trkpt>
      <trkpt lat="45.15724" lon="4.86096">
        <ele>211.7440032959</ele>
        <time>2010-10-16T14:02:04Z</time>
      </trkpt>
      <trkpt lat="45.1571" lon="4.86087">
        <ele>213.21600341797</ele>
        <time>2010-10-16T14:02:08Z</time>
      </trkpt>
      <trkpt lat="45.15712" lon="4.86067">
        <ele>215.30799865723</ele>
        <time>2010-10-16T14:02:12Z</time>
      </trkpt>
      <trkpt lat="45.15712" lon="4.86063">
        <ele>215.57899475098</ele>
        <time>2010-10-16T14:02:13Z</time>
      </trkpt>
      <trkpt lat="45.15712" lon="4.86058">
        <ele>215.81900024414</ele>
        <time>2010-10-16T14:02:14Z</time>
      </trkpt>
      <trkpt lat="45.15713" lon="4.86032">
        <ele>217.55299377441</ele>
        <time>2010-10-16T14:02:21Z</time>
      </trkpt>
      <trkpt lat="45.15706" lon="4.86005">
        <ele>219.55900573731</ele>
        <time>2010-10-16T14:02:28Z</time>
      </trkpt>
      <trkpt lat="45.15693" lon="4.85972">
        <ele>221.97799682617</ele>
        <time>2010-10-16T14:02:37Z</time>
      </trkpt>
      <trkpt lat="45.15688" lon="4.85953">
        <ele>223.05299377441</ele>
        <time>2010-10-16T14:02:42Z</time>
      </trkpt>
      <trkpt lat="45.15695" lon="4.85939">
        <ele>224.59800720215</ele>
        <time>2010-10-16T14:02:47Z</time>
      </trkpt>
      <trkpt lat="45.157" lon="4.85938">
        <ele>225.06900024414</ele>
        <time>2010-10-16T14:02:49Z</time>
      </trkpt>
      <trkpt lat="45.15718" lon="4.85935">
        <ele>226.82699584961</ele>
        <time>2010-10-16T14:02:56Z</time>
      </trkpt>
      <trkpt lat="45.1574" lon="4.85928">
        <ele>228.8390045166</ele>
        <time>2010-10-16T14:03:03Z</time>
      </trkpt>
      <trkpt lat="45.15757" lon="4.85921">
        <ele>230.48300170898</ele>
        <time>2010-10-16T14:03:08Z</time>
      </trkpt>
      <trkpt lat="45.15781" lon="4.85913">
        <ele>232.80499267578</ele>
        <time>2010-10-16T14:03:14Z</time>
      </trkpt>
      <trkpt lat="45.15811" lon="4.85903">
        <ele>235.07200622559</ele>
        <time>2010-10-16T14:03:20Z</time>
      </trkpt>
      <trkpt lat="45.15848" lon="4.85892">
        <ele>238.09100341797</ele>
        <time>2010-10-16T14:03:28Z</time>
      </trkpt>
      <trkpt lat="45.15884" lon="4.85881">
        <ele>240.10899353027</ele>
        <time>2010-10-16T14:03:36Z</time>
      </trkpt>
      <trkpt lat="45.15894" lon="4.85879">
        <ele>240.40899658203</ele>
        <time>2010-10-16T14:03:38Z</time>
      </trkpt>
      <trkpt lat="45.15933" lon="4.85856">
        <ele>241.44700622559</ele>
        <time>2010-10-16T14:03:46Z</time>
      </trkpt>
      <trkpt lat="45.15952" lon="4.85848">
        <ele>241.08099365234</ele>
        <time>2010-10-16T14:03:49Z</time>
      </trkpt>
      <trkpt lat="45.15989" lon="4.85845">
        <ele>241.30700683594</ele>
        <time>2010-10-16T14:03:54Z</time>
      </trkpt>
      <trkpt lat="45.15995" lon="4.85847">
        <ele>241.63900756836</ele>
        <time>2010-10-16T14:03:55Z</time>
      </trkpt>
      <trkpt lat="45.16032" lon="4.85868">
        <ele>242.50199890137</ele>
        <time>2010-10-16T14:04:01Z</time>
      </trkpt>
      <trkpt lat="45.1606" lon="4.85887">
        <ele>244.18400573731</ele>
        <time>2010-10-16T14:04:07Z</time>
      </trkpt>
      <trkpt lat="45.16078" lon="4.85895">
        <ele>244.04600524902</ele>
        <time>2010-10-16T14:04:12Z</time>
      </trkpt>
      <trkpt lat="45.16095" lon="4.85896">
        <ele>243.15600585938</ele>
        <time>2010-10-16T14:04:17Z</time>
      </trkpt>
      <trkpt lat="45.16098" lon="4.85896">
        <ele>242.72500610352</ele>
        <time>2010-10-16T14:04:18Z</time>
      </trkpt>
      <trkpt lat="45.16104" lon="4.85888">
        <ele>242.31799316406</ele>
        <time>2010-10-16T14:04:22Z</time>
      </trkpt>
      <trkpt lat="45.161" lon="4.85883">
        <ele>242.84399414062</ele>
        <time>2010-10-16T14:04:26Z</time>
      </trkpt>
      <trkpt lat="45.16099" lon="4.85884">
        <ele>242.97999572754</ele>
        <time>2010-10-16T14:04:27Z</time>
      </trkpt>
      <trkpt lat="45.16096" lon="4.85887">
        <ele>242.85099792481</ele>
        <time>2010-10-16T14:04:32Z</time>
      </trkpt>
      <trkpt lat="45.16095" lon="4.85894">
        <ele>242.66000366211</ele>
        <time>2010-10-16T14:08:06Z</time>
      </trkpt>
      <trkpt lat="45.16105" lon="4.85904">
        <ele>241.86999511719</ele>
        <time>2010-10-16T14:08:11Z</time>
      </trkpt>
      <trkpt lat="45.16121" lon="4.85918">
        <ele>239.78799438477</ele>
        <time>2010-10-16T14:08:15Z</time>
      </trkpt>
      <trkpt lat="45.16153" lon="4.8593">
        <ele>236.9940032959</ele>
        <time>2010-10-16T14:08:20Z</time>
      </trkpt>
      <trkpt lat="45.1616" lon="4.85932">
        <ele>236.38000488281</ele>
        <time>2010-10-16T14:08:21Z</time>
      </trkpt>
      <trkpt lat="45.1618" lon="4.85958">
        <ele>233.75900268555</ele>
        <time>2010-10-16T14:08:25Z</time>
      </trkpt>
      <trkpt lat="45.16177" lon="4.85991">
        <ele>231.63900756836</ele>
        <time>2010-10-16T14:08:28Z</time>
      </trkpt>
      <trkpt lat="45.16166" lon="4.86038">
        <ele>228.27299499512</ele>
        <time>2010-10-16T14:08:32Z</time>
      </trkpt>
      <trkpt lat="45.16167" lon="4.86083">
        <ele>225.27099609375</ele>
        <time>2010-10-16T14:08:36Z</time>
      </trkpt>
      <trkpt lat="45.16189" lon="4.86105">
        <ele>222.49499511719</ele>
        <time>2010-10-16T14:08:39Z</time>
      </trkpt>
      <trkpt lat="45.16225" lon="4.86134">
        <ele>217.95100402832</ele>
        <time>2010-10-16T14:08:43Z</time>
      </trkpt>
      <trkpt lat="45.16307" lon="4.86203">
        <ele>209.83599853516</ele>
        <time>2010-10-16T14:08:51Z</time>
      </trkpt>
      <trkpt lat="45.16348" lon="4.86237">
        <ele>207.08500671387</ele>
        <time>2010-10-16T14:08:55Z</time>
      </trkpt>
      <trkpt lat="45.16394" lon="4.86257">
        <ele>204.85800170898</ele>
        <time>2010-10-16T14:08:59Z</time>
      </trkpt>
      <trkpt lat="45.16407" lon="4.86258">
        <ele>203.98699951172</ele>
        <time>2010-10-16T14:09:00Z</time>
      </trkpt>
      <trkpt lat="45.16478" lon="4.8626">
        <ele>199.90199279785</ele>
        <time>2010-10-16T14:09:06Z</time>
      </trkpt>
      <trkpt lat="45.1649" lon="4.86262">
        <ele>199.28900146484</ele>
        <time>2010-10-16T14:09:07Z</time>
      </trkpt>
      <trkpt lat="45.16534" lon="4.8629">
        <ele>196.84300231934</ele>
        <time>2010-10-16T14:09:11Z</time>
      </trkpt>
      <trkpt lat="45.16554" lon="4.86309">
        <ele>195.30400085449</ele>
        <time>2010-10-16T14:09:13Z</time>
      </trkpt>
      <trkpt lat="45.16593" lon="4.86335">
        <ele>192.61500549316</ele>
        <time>2010-10-16T14:09:17Z</time>
      </trkpt>
      <trkpt lat="45.16644" lon="4.86388">
        <ele>186.73599243164</ele>
        <time>2010-10-16T14:09:23Z</time>
      </trkpt>
      <trkpt lat="45.16695" lon="4.86421">
        <ele>181.81100463867</ele>
        <time>2010-10-16T14:09:28Z</time>
      </trkpt>
      <trkpt lat="45.16728" lon="4.86455">
        <ele>178.96699523926</ele>
        <time>2010-10-16T14:09:32Z</time>
      </trkpt>
      <trkpt lat="45.16787" lon="4.86555">
        <ele>173.39399719238</ele>
        <time>2010-10-16T14:09:40Z</time>
      </trkpt>
      <trkpt lat="45.16811" lon="4.86607">
        <ele>172.32800292969</ele>
        <time>2010-10-16T14:09:44Z</time>
      </trkpt>
      <trkpt lat="45.16825" lon="4.86655">
        <ele>173.55799865723</ele>
        <time>2010-10-16T14:09:48Z</time>
      </trkpt>
      <trkpt lat="45.16838" lon="4.86715">
        <ele>173.8690032959</ele>
        <time>2010-10-16T14:09:54Z</time>
      </trkpt>
      <trkpt lat="45.16841" lon="4.86749">
        <ele>172.21099853516</ele>
        <time>2010-10-16T14:09:57Z</time>
      </trkpt>
      <trkpt lat="45.16837" lon="4.86798">
        <ele>170.23699951172</ele>
        <time>2010-10-16T14:10:01Z</time>
      </trkpt>
      <trkpt lat="45.16824" lon="4.8691">
        <ele>168.33200073242</ele>
        <time>2010-10-16T14:10:10Z</time>
      </trkpt>
      <trkpt lat="45.16813" lon="4.8699">
        <ele>167.01699829102</ele>
        <time>2010-10-16T14:10:17Z</time>
      </trkpt>
      <trkpt lat="45.1681" lon="4.87012">
        <ele>166.62899780273</ele>
        <time>2010-10-16T14:10:19Z</time>
      </trkpt>
      <trkpt lat="45.16816" lon="4.87049">
        <ele>165.91700744629</ele>
        <time>2010-10-16T14:10:23Z</time>
      </trkpt>
      <trkpt lat="45.16822" lon="4.87055">
        <ele>165.62399291992</ele>
        <time>2010-10-16T14:10:24Z</time>
      </trkpt>
      <trkpt lat="45.16862" lon="4.87095">
        <ele>164.01100158691</ele>
        <time>2010-10-16T14:10:31Z</time>
      </trkpt>
      <trkpt lat="45.16893" lon="4.8712">
        <ele>162.71499633789</ele>
        <time>2010-10-16T14:10:36Z</time>
      </trkpt>
      <trkpt lat="45.16905" lon="4.87132">
        <ele>162.05000305176</ele>
        <time>2010-10-16T14:10:38Z</time>
      </trkpt>
      <trkpt lat="45.16933" lon="4.87147">
        <ele>160.82699584961</ele>
        <time>2010-10-16T14:10:42Z</time>
      </trkpt>
      <trkpt lat="45.16969" lon="4.87164">
        <ele>158.55599975586</ele>
        <time>2010-10-16T14:10:47Z</time>
      </trkpt>
      <trkpt lat="45.16991" lon="4.87176">
        <ele>158.59800720215</ele>
        <time>2010-10-16T14:10:51Z</time>
      </trkpt>
      <trkpt lat="45.16998" lon="4.87179">
        <ele>158.6549987793</ele>
        <time>2010-10-16T14:10:55Z</time>
      </trkpt>
      <trkpt lat="45.17001" lon="4.87185">
        <ele>158.50500488281</ele>
        <time>2010-10-16T14:11:02Z</time>
      </trkpt>
      <trkpt lat="45.17002" lon="4.87186">
        <ele>158.53500366211</ele>
        <time>2010-10-16T14:11:03Z</time>
      </trkpt>
      <trkpt lat="45.17009" lon="4.87188">
        <ele>158.07899475098</ele>
        <time>2010-10-16T14:11:07Z</time>
      </trkpt>
      <trkpt lat="45.17024" lon="4.8719">
        <ele>157.68600463867</ele>
        <time>2010-10-16T14:11:12Z</time>
      </trkpt>
      <trkpt lat="45.17041" lon="4.87186">
        <ele>157.12399291992</ele>
        <time>2010-10-16T14:11:16Z</time>
      </trkpt>
      <trkpt lat="45.17082" lon="4.87162">
        <ele>155.54299926758</ele>
        <time>2010-10-16T14:11:24Z</time>
      </trkpt>
      <trkpt lat="45.17099" lon="4.87151">
        <ele>155.06500244141</ele>
        <time>2010-10-16T14:11:27Z</time>
      </trkpt>
      <trkpt lat="45.17138" lon="4.87124">
        <ele>154.54400634766</ele>
        <time>2010-10-16T14:11:34Z</time>
      </trkpt>
      <trkpt lat="45.17149" lon="4.87117">
        <ele>154.10400390625</ele>
        <time>2010-10-16T14:11:36Z</time>
      </trkpt>
      <trkpt lat="45.17177" lon="4.87115">
        <ele>151.90600585938</ele>
        <time>2010-10-16T14:11:40Z</time>
      </trkpt>
      <trkpt lat="45.17203" lon="4.87122">
        <ele>152.47500610352</ele>
        <time>2010-10-16T14:11:44Z</time>
      </trkpt>
      <trkpt lat="45.17248" lon="4.87126">
        <ele>152.89700317383</ele>
        <time>2010-10-16T14:11:51Z</time>
      </trkpt>
      <trkpt lat="45.1728" lon="4.87122">
        <ele>152.94999694824</ele>
        <time>2010-10-16T14:11:56Z</time>
      </trkpt>
      <trkpt lat="45.17336" lon="4.87115">
        <ele>152.22200012207</ele>
        <time>2010-10-16T14:12:04Z</time>
      </trkpt>
      <trkpt lat="45.17379" lon="4.87106">
        <ele>152.66999816894</ele>
        <time>2010-10-16T14:12:10Z</time>
      </trkpt>
      <trkpt lat="45.17431" lon="4.8709">
        <ele>152.17500305176</ele>
        <time>2010-10-16T14:12:17Z</time>
      </trkpt>
      <trkpt lat="45.17446" lon="4.87086">
        <ele>152.14900207519</ele>
        <time>2010-10-16T14:12:19Z</time>
      </trkpt>
      <trkpt lat="45.17488" lon="4.87059">
        <ele>151.67399597168</ele>
        <time>2010-10-16T14:12:25Z</time>
      </trkpt>
      <trkpt lat="45.17533" lon="4.87025">
        <ele>152.33299255371</ele>
        <time>2010-10-16T14:12:32Z</time>
      </trkpt>
      <trkpt lat="45.17565" lon="4.86988">
        <ele>153.59599304199</ele>
        <time>2010-10-16T14:12:38Z</time>
      </trkpt>
      <trkpt lat="45.17598" lon="4.86946">
        <ele>152.43600463867</ele>
        <time>2010-10-16T14:12:44Z</time>
      </trkpt>
      <trkpt lat="45.17627" lon="4.86928">
        <ele>151.84100341797</ele>
        <time>2010-10-16T14:12:48Z</time>
      </trkpt>
      <trkpt lat="45.1765" lon="4.86935">
        <ele>151.74899291992</ele>
        <time>2010-10-16T14:12:51Z</time>
      </trkpt>
      <trkpt lat="45.17719" lon="4.86971">
        <ele>153.25199890137</ele>
        <time>2010-10-16T14:13:01Z</time>
      </trkpt>
      <trkpt lat="45.17777" lon="4.86998">
        <ele>154.62399291992</ele>
        <time>2010-10-16T14:13:10Z</time>
      </trkpt>
      <trkpt lat="45.17842" lon="4.87027">
        <ele>155.08999633789</ele>
        <time>2010-10-16T14:13:20Z</time>
      </trkpt>
      <trkpt lat="45.17904" lon="4.87062">
        <ele>156.17399597168</ele>
        <time>2010-10-16T14:13:30Z</time>
      </trkpt>
      <trkpt lat="45.17951" lon="4.87091">
        <ele>157.05000305176</ele>
        <time>2010-10-16T14:13:38Z</time>
      </trkpt>
      <trkpt lat="45.17995" lon="4.87132">
        <ele>158.67799377441</ele>
        <time>2010-10-16T14:13:47Z</time>
      </trkpt>
      <trkpt lat="45.18026" lon="4.87165">
        <ele>160.18400573731</ele>
        <time>2010-10-16T14:13:54Z</time>
      </trkpt>
      <trkpt lat="45.18053" lon="4.872">
        <ele>162.44500732422</ele>
        <time>2010-10-16T14:14:01Z</time>
      </trkpt>
      <trkpt lat="45.18063" lon="4.87216">
        <ele>162.93899536133</ele>
        <time>2010-10-16T14:14:04Z</time>
      </trkpt>
      <trkpt lat="45.1809" lon="4.87235">
        <ele>162.80499267578</ele>
        <time>2010-10-16T14:14:09Z</time>
      </trkpt>
      <trkpt lat="45.18109" lon="4.87232">
        <ele>163.27799987793</ele>
        <time>2010-10-16T14:14:12Z</time>
      </trkpt>
      <trkpt lat="45.18152" lon="4.87223">
        <ele>164.11099243164</ele>
        <time>2010-10-16T14:14:19Z</time>
      </trkpt>
      <trkpt lat="45.18202" lon="4.87229">
        <ele>164.88900756836</ele>
        <time>2010-10-16T14:14:27Z</time>
      </trkpt>
      <trkpt lat="45.18246" lon="4.87226">
        <ele>165.43699645996</ele>
        <time>2010-10-16T14:14:34Z</time>
      </trkpt>
      <trkpt lat="45.18258" lon="4.87226">
        <ele>165.56399536133</ele>
        <time>2010-10-16T14:14:36Z</time>
      </trkpt>
      <trkpt lat="45.18304" lon="4.87242">
        <ele>166.88499450684</ele>
        <time>2010-10-16T14:14:44Z</time>
      </trkpt>
      <trkpt lat="45.18338" lon="4.8725">
        <ele>168.30299377441</ele>
        <time>2010-10-16T14:14:51Z</time>
      </trkpt>
      <trkpt lat="45.18342" lon="4.87251">
        <ele>168.41499328613</ele>
        <time>2010-10-16T14:14:52Z</time>
      </trkpt>
      <trkpt lat="45.18355" lon="4.87263">
        <ele>170.11999511719</ele>
        <time>2010-10-16T14:14:57Z</time>
      </trkpt>
      <trkpt lat="45.18356" lon="4.87268">
        <ele>170.24600219727</ele>
        <time>2010-10-16T14:14:58Z</time>
      </trkpt>
      <trkpt lat="45.18357" lon="4.87303">
        <ele>169.79800415039</ele>
        <time>2010-10-16T14:15:03Z</time>
      </trkpt>
      <trkpt lat="45.18359" lon="4.87363">
        <ele>169.80900573731</ele>
        <time>2010-10-16T14:15:10Z</time>
      </trkpt>
      <trkpt lat="45.1836" lon="4.87436">
        <ele>170.07099914551</ele>
        <time>2010-10-16T14:15:17Z</time>
      </trkpt>
      <trkpt lat="45.18362" lon="4.87523">
        <ele>170.66000366211</ele>
        <time>2010-10-16T14:15:25Z</time>
      </trkpt>
      <trkpt lat="45.18368" lon="4.87635">
        <ele>170.42599487305</ele>
        <time>2010-10-16T14:15:34Z</time>
      </trkpt>
      <trkpt lat="45.18372" lon="4.87713">
        <ele>171.51899719238</ele>
        <time>2010-10-16T14:15:41Z</time>
      </trkpt>
      <trkpt lat="45.18374" lon="4.8778">
        <ele>172.31599426269</ele>
        <time>2010-10-16T14:15:48Z</time>
      </trkpt>
      <trkpt lat="45.18367" lon="4.8785">
        <ele>172.50399780273</ele>
        <time>2010-10-16T14:15:55Z</time>
      </trkpt>
      <trkpt lat="45.1835" lon="4.87918">
        <ele>172.78900146484</ele>
        <time>2010-10-16T14:16:02Z</time>
      </trkpt>
      <trkpt lat="45.18325" lon="4.87999">
        <ele>173.94299316406</ele>
        <time>2010-10-16T14:16:11Z</time>
      </trkpt>
      <trkpt lat="45.1831" lon="4.8807">
        <ele>174.81700134277</ele>
        <time>2010-10-16T14:16:19Z</time>
      </trkpt>
      <trkpt lat="45.18304" lon="4.88137">
        <ele>175.49099731445</ele>
        <time>2010-10-16T14:16:26Z</time>
      </trkpt>
      <trkpt lat="45.18305" lon="4.88205">
        <ele>176.25799560547</ele>
        <time>2010-10-16T14:16:33Z</time>
      </trkpt>
      <trkpt lat="45.18309" lon="4.8835">
        <ele>174.84800720215</ele>
        <time>2010-10-16T14:16:47Z</time>
      </trkpt>
      <trkpt lat="45.18311" lon="4.88395">
        <ele>174.17100524902</ele>
        <time>2010-10-16T14:16:51Z</time>
      </trkpt>
      <trkpt lat="45.18312" lon="4.88489">
        <ele>173.35499572754</ele>
        <time>2010-10-16T14:16:59Z</time>
      </trkpt>
      <trkpt lat="45.18315" lon="4.88537">
        <ele>172.80299377441</ele>
        <time>2010-10-16T14:17:03Z</time>
      </trkpt>
      <trkpt lat="45.18327" lon="4.88584">
        <ele>172.05999755859</ele>
        <time>2010-10-16T14:17:07Z</time>
      </trkpt>
      <trkpt lat="45.18367" lon="4.88668">
        <ele>172.2559967041</ele>
        <time>2010-10-16T14:17:15Z</time>
      </trkpt>
      <trkpt lat="45.18401" lon="4.88722">
        <ele>173.79499816894</ele>
        <time>2010-10-16T14:17:21Z</time>
      </trkpt>
      <trkpt lat="45.18441" lon="4.88771">
        <ele>175.07600402832</ele>
        <time>2010-10-16T14:17:28Z</time>
      </trkpt>
      <trkpt lat="45.18492" lon="4.8884">
        <ele>177.00500488281</ele>
        <time>2010-10-16T14:17:38Z</time>
      </trkpt>
      <trkpt lat="45.18531" lon="4.88883">
        <ele>178.14900207519</ele>
        <time>2010-10-16T14:17:45Z</time>
      </trkpt>
      <trkpt lat="45.18575" lon="4.88924">
        <ele>179.4700012207</ele>
        <time>2010-10-16T14:17:52Z</time>
      </trkpt>
      <trkpt lat="45.18615" lon="4.88971">
        <ele>180.65400695801</ele>
        <time>2010-10-16T14:17:59Z</time>
      </trkpt>
      <trkpt lat="45.18656" lon="4.89013">
        <ele>180.97599792481</ele>
        <time>2010-10-16T14:18:06Z</time>
      </trkpt>
      <trkpt lat="45.18718" lon="4.89073">
        <ele>181.31100463867</ele>
        <time>2010-10-16T14:18:16Z</time>
      </trkpt>
      <trkpt lat="45.18775" lon="4.89119">
        <ele>180.17999267578</ele>
        <time>2010-10-16T14:18:24Z</time>
      </trkpt>
      <trkpt lat="45.18816" lon="4.89147">
        <ele>178.02000427246</ele>
        <time>2010-10-16T14:18:29Z</time>
      </trkpt>
      <trkpt lat="45.18853" lon="4.89185">
        <ele>178.04400634766</ele>
        <time>2010-10-16T14:18:34Z</time>
      </trkpt>
      <trkpt lat="45.18873" lon="4.89207">
        <ele>178.6309967041</ele>
        <time>2010-10-16T14:18:37Z</time>
      </trkpt>
      <trkpt lat="45.18927" lon="4.89258">
        <ele>180.41400146484</ele>
        <time>2010-10-16T14:18:45Z</time>
      </trkpt>
      <trkpt lat="45.18973" lon="4.89295">
        <ele>181.35699462891</ele>
        <time>2010-10-16T14:18:52Z</time>
      </trkpt>
      <trkpt lat="45.19014" lon="4.89337">
        <ele>182.75999450684</ele>
        <time>2010-10-16T14:18:59Z</time>
      </trkpt>
      <trkpt lat="45.19041" lon="4.89383">
        <ele>183.67999267578</ele>
        <time>2010-10-16T14:19:05Z</time>
      </trkpt>
      <trkpt lat="45.19085" lon="4.89465">
        <ele>185.42700195312</ele>
        <time>2010-10-16T14:19:15Z</time>
      </trkpt>
      <trkpt lat="45.19114" lon="4.8952">
        <ele>184.26300048828</ele>
        <time>2010-10-16T14:19:21Z</time>
      </trkpt>
      <trkpt lat="45.19142" lon="4.8956">
        <ele>184.45300292969</ele>
        <time>2010-10-16T14:19:26Z</time>
      </trkpt>
      <trkpt lat="45.19188" lon="4.89616">
        <ele>185.00799560547</ele>
        <time>2010-10-16T14:19:34Z</time>
      </trkpt>
      <trkpt lat="45.19225" lon="4.89662">
        <ele>185.99699401856</ele>
        <time>2010-10-16T14:19:41Z</time>
      </trkpt>
      <trkpt lat="45.19265" lon="4.89721">
        <ele>187.18899536133</ele>
        <time>2010-10-16T14:19:49Z</time>
      </trkpt>
      <trkpt lat="45.19308" lon="4.89805">
        <ele>189.02499389648</ele>
        <time>2010-10-16T14:19:59Z</time>
      </trkpt>
      <trkpt lat="45.19357" lon="4.89902">
        <ele>190.05299377441</ele>
        <time>2010-10-16T14:20:10Z</time>
      </trkpt>
      <trkpt lat="45.19392" lon="4.89972">
        <ele>190.45300292969</ele>
        <time>2010-10-16T14:20:18Z</time>
      </trkpt>
      <trkpt lat="45.1942" lon="4.90029">
        <ele>191.28399658203</ele>
        <time>2010-10-16T14:20:25Z</time>
      </trkpt>
      <trkpt lat="45.19461" lon="4.90107">
        <ele>192.41900634766</ele>
        <time>2010-10-16T14:20:35Z</time>
      </trkpt>
      <trkpt lat="45.195" lon="4.90183">
        <ele>192.07600402832</ele>
        <time>2010-10-16T14:20:44Z</time>
      </trkpt>
      <trkpt lat="45.19526" lon="4.90241">
        <ele>190.44599914551</ele>
        <time>2010-10-16T14:20:50Z</time>
      </trkpt>
      <trkpt lat="45.19533" lon="4.90264">
        <ele>189.69500732422</ele>
        <time>2010-10-16T14:20:52Z</time>
      </trkpt>
      <trkpt lat="45.19542" lon="4.90299">
        <ele>188.30400085449</ele>
        <time>2010-10-16T14:20:55Z</time>
      </trkpt>
      <trkpt lat="45.19556" lon="4.90348">
        <ele>186.30299377441</ele>
        <time>2010-10-16T14:20:59Z</time>
      </trkpt>
      <trkpt lat="45.19559" lon="4.9036">
        <ele>186.11399841309</ele>
        <time>2010-10-16T14:21:00Z</time>
      </trkpt>
      <trkpt lat="45.19572" lon="4.90408">
        <ele>185.19799804688</ele>
        <time>2010-10-16T14:21:04Z</time>
      </trkpt>
      <trkpt lat="45.19592" lon="4.90491">
        <ele>184.74899291992</ele>
        <time>2010-10-16T14:21:11Z</time>
      </trkpt>
      <trkpt lat="45.19608" lon="4.90552">
        <ele>185.20599365234</ele>
        <time>2010-10-16T14:21:17Z</time>
      </trkpt>
      <trkpt lat="45.1963" lon="4.90621">
        <ele>185.66999816894</ele>
        <time>2010-10-16T14:21:24Z</time>
      </trkpt>
      <trkpt lat="45.19646" lon="4.90654">
        <ele>186.48699951172</ele>
        <time>2010-10-16T14:21:28Z</time>
      </trkpt>
      <trkpt lat="45.1965" lon="4.90687">
        <ele>186.95599365234</ele>
        <time>2010-10-16T14:21:32Z</time>
      </trkpt>
      <trkpt lat="45.19639" lon="4.90709">
        <ele>186.57899475098</ele>
        <time>2010-10-16T14:21:35Z</time>
      </trkpt>
      <trkpt lat="45.19597" lon="4.90775">
        <ele>185.08200073242</ele>
        <time>2010-10-16T14:21:43Z</time>
      </trkpt>
      <trkpt lat="45.19563" lon="4.90831">
        <ele>184.72700500488</ele>
        <time>2010-10-16T14:21:49Z</time>
      </trkpt>
      <trkpt lat="45.19522" lon="4.90897">
        <ele>184.10099792481</ele>
        <time>2010-10-16T14:21:56Z</time>
      </trkpt>
      <trkpt lat="45.19489" lon="4.90964">
        <ele>183.54100036621</ele>
        <time>2010-10-16T14:22:03Z</time>
      </trkpt>
      <trkpt lat="45.19481" lon="4.91008">
        <ele>184.07699584961</ele>
        <time>2010-10-16T14:22:07Z</time>
      </trkpt>
      <trkpt lat="45.1948" lon="4.91087">
        <ele>184.45899963379</ele>
        <time>2010-10-16T14:22:14Z</time>
      </trkpt>
      <trkpt lat="45.19479" lon="4.91109">
        <ele>184.57699584961</ele>
        <time>2010-10-16T14:22:16Z</time>
      </trkpt>
      <trkpt lat="45.1948" lon="4.91186">
        <ele>185.33599853516</ele>
        <time>2010-10-16T14:22:23Z</time>
      </trkpt>
      <trkpt lat="45.1948" lon="4.91207">
        <ele>185.70399475098</ele>
        <time>2010-10-16T14:22:25Z</time>
      </trkpt>
      <trkpt lat="45.19479" lon="4.91236">
        <ele>186.02600097656</ele>
        <time>2010-10-16T14:22:28Z</time>
      </trkpt>
      <trkpt lat="45.1947" lon="4.91288">
        <ele>186.77799987793</ele>
        <time>2010-10-16T14:22:34Z</time>
      </trkpt>
      <trkpt lat="45.19469" lon="4.91293">
        <ele>187.41600036621</ele>
        <time>2010-10-16T14:22:37Z</time>
      </trkpt>
      <trkpt lat="45.19469" lon="4.91293">
        <ele>187.37699890137</ele>
        <time>2010-10-16T14:22:38Z</time>
      </trkpt>
      <trkpt lat="45.19469" lon="4.91299">
        <ele>187.27799987793</ele>
        <time>2010-10-16T14:22:56Z</time>
      </trkpt>
      <trkpt lat="45.19467" lon="4.91316">
        <ele>187.26100158691</ele>
        <time>2010-10-16T14:23:00Z</time>
      </trkpt>
      <trkpt lat="45.19464" lon="4.91337">
        <ele>187.16200256348</ele>
        <time>2010-10-16T14:23:04Z</time>
      </trkpt>
      <trkpt lat="45.19462" lon="4.9135">
        <ele>187.04299926758</ele>
        <time>2010-10-16T14:23:06Z</time>
      </trkpt>
      <trkpt lat="45.19457" lon="4.91377">
        <ele>186.84100341797</ele>
        <time>2010-10-16T14:23:10Z</time>
      </trkpt>
      <trkpt lat="45.19452" lon="4.91408">
        <ele>187.22799682617</ele>
        <time>2010-10-16T14:23:14Z</time>
      </trkpt>
      <trkpt lat="45.19452" lon="4.91459">
        <ele>187.27000427246</ele>
        <time>2010-10-16T14:23:20Z</time>
      </trkpt>
      <trkpt lat="45.19464" lon="4.91504">
        <ele>187.71000671387</ele>
        <time>2010-10-16T14:23:25Z</time>
      </trkpt>
      <trkpt lat="45.19469" lon="4.91522">
        <ele>187.77200317383</ele>
        <time>2010-10-16T14:23:27Z</time>
      </trkpt>
      <trkpt lat="45.19489" lon="4.91608">
        <ele>188.76699829102</ele>
        <time>2010-10-16T14:23:36Z</time>
      </trkpt>
      <trkpt lat="45.195" lon="4.91659">
        <ele>189.48100280762</ele>
        <time>2010-10-16T14:23:42Z</time>
      </trkpt>
      <trkpt lat="45.19503" lon="4.91691">
        <ele>189.86199951172</ele>
        <time>2010-10-16T14:23:46Z</time>
      </trkpt>
      <trkpt lat="45.195" lon="4.91731">
        <ele>190.24099731445</ele>
        <time>2010-10-16T14:23:51Z</time>
      </trkpt>
      <trkpt lat="45.19485" lon="4.9178">
        <ele>190.51400756836</ele>
        <time>2010-10-16T14:23:57Z</time>
      </trkpt>
      <trkpt lat="45.19459" lon="4.91846">
        <ele>191.35600280762</ele>
        <time>2010-10-16T14:24:05Z</time>
      </trkpt>
      <trkpt lat="45.19428" lon="4.91919">
        <ele>192.62300109863</ele>
        <time>2010-10-16T14:24:14Z</time>
      </trkpt>
      <trkpt lat="45.19397" lon="4.91972">
        <ele>193.7859954834</ele>
        <time>2010-10-16T14:24:21Z</time>
      </trkpt>
      <trkpt lat="45.19371" lon="4.92004">
        <ele>194.61500549316</ele>
        <time>2010-10-16T14:24:26Z</time>
      </trkpt>
      <trkpt lat="45.19327" lon="4.9204">
        <ele>196.02799987793</ele>
        <time>2010-10-16T14:24:33Z</time>
      </trkpt>
      <trkpt lat="45.19266" lon="4.92072">
        <ele>197.55799865723</ele>
        <time>2010-10-16T14:24:42Z</time>
      </trkpt>
      <trkpt lat="45.19197" lon="4.92108">
        <ele>199.21899414062</ele>
        <time>2010-10-16T14:24:52Z</time>
      </trkpt>
      <trkpt lat="45.1912" lon="4.92146">
        <ele>200.77000427246</ele>
        <time>2010-10-16T14:25:03Z</time>
      </trkpt>
      <trkpt lat="45.19052" lon="4.92181">
        <ele>201.63999938965</ele>
        <time>2010-10-16T14:25:12Z</time>
      </trkpt>
      <trkpt lat="45.1898" lon="4.9222">
        <ele>202.85099792481</ele>
        <time>2010-10-16T14:25:21Z</time>
      </trkpt>
      <trkpt lat="45.18926" lon="4.92254">
        <ele>203.18099975586</ele>
        <time>2010-10-16T14:25:27Z</time>
      </trkpt>
      <trkpt lat="45.18875" lon="4.92289">
        <ele>203.98899841309</ele>
        <time>2010-10-16T14:25:33Z</time>
      </trkpt>
      <trkpt lat="45.18816" lon="4.9233">
        <ele>204.15899658203</ele>
        <time>2010-10-16T14:25:41Z</time>
      </trkpt>
      <trkpt lat="45.18762" lon="4.92368">
        <ele>203.80000305176</ele>
        <time>2010-10-16T14:25:49Z</time>
      </trkpt>
      <trkpt lat="45.18727" lon="4.92402">
        <ele>203.35099792481</ele>
        <time>2010-10-16T14:25:55Z</time>
      </trkpt>
      <trkpt lat="45.18711" lon="4.92433">
        <ele>202.76699829102</ele>
        <time>2010-10-16T14:25:59Z</time>
      </trkpt>
      <trkpt lat="45.18702" lon="4.92471">
        <ele>202.16499328613</ele>
        <time>2010-10-16T14:26:03Z</time>
      </trkpt>
      <trkpt lat="45.18688" lon="4.92539">
        <ele>202.40899658203</ele>
        <time>2010-10-16T14:26:10Z</time>
      </trkpt>
      <trkpt lat="45.18671" lon="4.92629">
        <ele>203.77600097656</ele>
        <time>2010-10-16T14:26:19Z</time>
      </trkpt>
      <trkpt lat="45.18654" lon="4.92715">
        <ele>203.88200378418</ele>
        <time>2010-10-16T14:26:27Z</time>
      </trkpt>
      <trkpt lat="45.18647" lon="4.92749">
        <ele>202.79400634766</ele>
        <time>2010-10-16T14:26:30Z</time>
      </trkpt>
      <trkpt lat="45.18623" lon="4.92795">
        <ele>203.28100585938</ele>
        <time>2010-10-16T14:26:35Z</time>
      </trkpt>
      <trkpt lat="45.18607" lon="4.92805">
        <ele>203.63800048828</ele>
        <time>2010-10-16T14:26:37Z</time>
      </trkpt>
      <trkpt lat="45.18535" lon="4.9284">
        <ele>203.94900512695</ele>
        <time>2010-10-16T14:26:46Z</time>
      </trkpt>
      <trkpt lat="45.18493" lon="4.92848">
        <ele>203.93699645996</ele>
        <time>2010-10-16T14:26:51Z</time>
      </trkpt>
      <trkpt lat="45.18457" lon="4.92842">
        <ele>203.37399291992</ele>
        <time>2010-10-16T14:26:55Z</time>
      </trkpt>
      <trkpt lat="45.18433" lon="4.92833">
        <ele>203.15800476074</ele>
        <time>2010-10-16T14:26:58Z</time>
      </trkpt>
      <trkpt lat="45.18399" lon="4.92833">
        <ele>203.49200439453</ele>
        <time>2010-10-16T14:27:02Z</time>
      </trkpt>
      <trkpt lat="45.18391" lon="4.92837">
        <ele>203.44299316406</ele>
        <time>2010-10-16T14:27:03Z</time>
      </trkpt>
      <trkpt lat="45.18333" lon="4.92871">
        <ele>203.09599304199</ele>
        <time>2010-10-16T14:27:10Z</time>
      </trkpt>
      <trkpt lat="45.18289" lon="4.92881">
        <ele>203.83799743652</ele>
        <time>2010-10-16T14:27:15Z</time>
      </trkpt>
      <trkpt lat="45.18239" lon="4.92891">
        <ele>205.45500183106</ele>
        <time>2010-10-16T14:27:21Z</time>
      </trkpt>
      <trkpt lat="45.18201" lon="4.92907">
        <ele>206.97900390625</ele>
        <time>2010-10-16T14:27:26Z</time>
      </trkpt>
      <trkpt lat="45.18172" lon="4.92925">
        <ele>208.67799377441</ele>
        <time>2010-10-16T14:27:31Z</time>
      </trkpt>
      <trkpt lat="45.18167" lon="4.92928">
        <ele>208.98500061035</ele>
        <time>2010-10-16T14:27:32Z</time>
      </trkpt>
      <trkpt lat="45.1815" lon="4.92934">
        <ele>209.55799865723</ele>
        <time>2010-10-16T14:27:36Z</time>
      </trkpt>
      <trkpt lat="45.18136" lon="4.92937">
        <ele>209.0299987793</ele>
        <time>2010-10-16T14:27:39Z</time>
      </trkpt>
      <trkpt lat="45.18128" lon="4.9294">
        <ele>208.52099609375</ele>
        <time>2010-10-16T14:27:41Z</time>
      </trkpt>
      <trkpt lat="45.18119" lon="4.92941">
        <ele>208.21099853516</ele>
        <time>2010-10-16T14:27:43Z</time>
      </trkpt>
      <trkpt lat="45.18099" lon="4.92956">
        <ele>206.35099792481</ele>
        <time>2010-10-16T14:27:48Z</time>
      </trkpt>
      <trkpt lat="45.18097" lon="4.92961">
        <ele>205.86599731445</ele>
        <time>2010-10-16T14:27:49Z</time>
      </trkpt>
      <trkpt lat="45.18093" lon="4.92976">
        <ele>205.06700134277</ele>
        <time>2010-10-16T14:27:52Z</time>
      </trkpt>
      <trkpt lat="45.18082" lon="4.92985">
        <ele>203.35600280762</ele>
        <time>2010-10-16T14:27:55Z</time>
      </trkpt>
      <trkpt lat="45.18077" lon="4.92988">
        <ele>202.90600585938</ele>
        <time>2010-10-16T14:27:56Z</time>
      </trkpt>
      <trkpt lat="45.18072" lon="4.92989">
        <ele>202.20700073242</ele>
        <time>2010-10-16T14:27:57Z</time>
      </trkpt>
      <trkpt lat="45.18033" lon="4.92998">
        <ele>201.39999389648</ele>
        <time>2010-10-16T14:28:03Z</time>
      </trkpt>
      <trkpt lat="45.17994" lon="4.93006">
        <ele>201.67199707031</ele>
        <time>2010-10-16T14:28:09Z</time>
      </trkpt>
      <trkpt lat="45.17941" lon="4.93019">
        <ele>202.18899536133</ele>
        <time>2010-10-16T14:28:17Z</time>
      </trkpt>
      <trkpt lat="45.17928" lon="4.93022">
        <ele>202.34899902344</ele>
        <time>2010-10-16T14:28:19Z</time>
      </trkpt>
      <trkpt lat="45.17905" lon="4.93016">
        <ele>202.59199523926</ele>
        <time>2010-10-16T14:28:23Z</time>
      </trkpt>
      <trkpt lat="45.17893" lon="4.9301">
        <ele>202.61399841309</ele>
        <time>2010-10-16T14:28:25Z</time>
      </trkpt>
      <trkpt lat="45.17878" lon="4.92983">
        <ele>203.33599853516</ele>
        <time>2010-10-16T14:28:29Z</time>
      </trkpt>
      <trkpt lat="45.17876" lon="4.92974">
        <ele>203.26800537109</ele>
        <time>2010-10-16T14:28:30Z</time>
      </trkpt>
      <trkpt lat="45.17863" lon="4.92887">
        <ele>204.07200622559</ele>
        <time>2010-10-16T14:28:39Z</time>
      </trkpt>
      <trkpt lat="45.17849" lon="4.92826">
        <ele>204.40400695801</ele>
        <time>2010-10-16T14:28:46Z</time>
      </trkpt>
      <trkpt lat="45.17833" lon="4.92774">
        <ele>204.98699951172</ele>
        <time>2010-10-16T14:28:53Z</time>
      </trkpt>
      <trkpt lat="45.17812" lon="4.92723">
        <ele>205.72300720215</ele>
        <time>2010-10-16T14:29:00Z</time>
      </trkpt>
      <trkpt lat="45.17803" lon="4.9271">
        <ele>206.03999328613</ele>
        <time>2010-10-16T14:29:02Z</time>
      </trkpt>
      <trkpt lat="45.17764" lon="4.92668">
        <ele>206.34700012207</ele>
        <time>2010-10-16T14:29:10Z</time>
      </trkpt>
      <trkpt lat="45.17725" lon="4.92647">
        <ele>205.69500732422</ele>
        <time>2010-10-16T14:29:17Z</time>
      </trkpt>
      <trkpt lat="45.17718" lon="4.92644">
        <ele>205.35099792481</ele>
        <time>2010-10-16T14:29:18Z</time>
      </trkpt>
      <trkpt lat="45.17694" lon="4.92647">
        <ele>204.91799926758</ele>
        <time>2010-10-16T14:29:22Z</time>
      </trkpt>
      <trkpt lat="45.17689" lon="4.92659">
        <ele>205.01699829102</ele>
        <time>2010-10-16T14:29:24Z</time>
      </trkpt>
      <trkpt lat="45.17685" lon="4.92672">
        <ele>205.64100646973</ele>
        <time>2010-10-16T14:29:26Z</time>
      </trkpt>
      <trkpt lat="45.17679" lon="4.92685">
        <ele>206.61700439453</ele>
        <time>2010-10-16T14:29:28Z</time>
      </trkpt>
      <trkpt lat="45.17653" lon="4.92712">
        <ele>206.82099914551</ele>
        <time>2010-10-16T14:29:34Z</time>
      </trkpt>
      <trkpt lat="45.17615" lon="4.92741">
        <ele>206.35400390625</ele>
        <time>2010-10-16T14:29:41Z</time>
      </trkpt>
      <trkpt lat="45.17576" lon="4.92772">
        <ele>206.00799560547</ele>
        <time>2010-10-16T14:29:48Z</time>
      </trkpt>
      <trkpt lat="45.17532" lon="4.92808">
        <ele>205.98599243164</ele>
        <time>2010-10-16T14:29:56Z</time>
      </trkpt>
      <trkpt lat="45.17484" lon="4.92847">
        <ele>206.19500732422</ele>
        <time>2010-10-16T14:30:04Z</time>
      </trkpt>
      <trkpt lat="45.17432" lon="4.92889">
        <ele>206.12100219727</ele>
        <time>2010-10-16T14:30:12Z</time>
      </trkpt>
      <trkpt lat="45.17381" lon="4.9293">
        <ele>206.46699523926</ele>
        <time>2010-10-16T14:30:20Z</time>
      </trkpt>
      <trkpt lat="45.17328" lon="4.92957">
        <ele>207.31199645996</ele>
        <time>2010-10-16T14:30:28Z</time>
      </trkpt>
      <trkpt lat="45.17271" lon="4.92973">
        <ele>208.48699951172</ele>
        <time>2010-10-16T14:30:36Z</time>
      </trkpt>
      <trkpt lat="45.17203" lon="4.92993">
        <ele>209.76300048828</ele>
        <time>2010-10-16T14:30:46Z</time>
      </trkpt>
      <trkpt lat="45.17138" lon="4.93011">
        <ele>211.12699890137</ele>
        <time>2010-10-16T14:30:55Z</time>
      </trkpt>
      <trkpt lat="45.17073" lon="4.9303">
        <ele>212.59199523926</ele>
        <time>2010-10-16T14:31:04Z</time>
      </trkpt>
      <trkpt lat="45.16996" lon="4.93051">
        <ele>214.42900085449</ele>
        <time>2010-10-16T14:31:15Z</time>
      </trkpt>
      <trkpt lat="45.16947" lon="4.93058">
        <ele>215.64300537109</ele>
        <time>2010-10-16T14:31:22Z</time>
      </trkpt>
      <trkpt lat="45.16893" lon="4.93065">
        <ele>217.40600585938</ele>
        <time>2010-10-16T14:31:30Z</time>
      </trkpt>
      <trkpt lat="45.16832" lon="4.93073">
        <ele>219.20399475098</ele>
        <time>2010-10-16T14:31:39Z</time>
      </trkpt>
      <trkpt lat="45.16764" lon="4.93081">
        <ele>221.70300292969</ele>
        <time>2010-10-16T14:31:50Z</time>
      </trkpt>
      <trkpt lat="45.16698" lon="4.93088">
        <ele>223.95799255371</ele>
        <time>2010-10-16T14:32:01Z</time>
      </trkpt>
      <trkpt lat="45.16653" lon="4.93098">
        <ele>226.0950012207</ele>
        <time>2010-10-16T14:32:09Z</time>
      </trkpt>
      <trkpt lat="45.16617" lon="4.93113">
        <ele>227.80400085449</ele>
        <time>2010-10-16T14:32:16Z</time>
      </trkpt>
      <trkpt lat="45.1657" lon="4.93131">
        <ele>229.97700500488</ele>
        <time>2010-10-16T14:32:25Z</time>
      </trkpt>
      <trkpt lat="45.16534" lon="4.93132">
        <ele>231.25799560547</ele>
        <time>2010-10-16T14:32:31Z</time>
      </trkpt>
      <trkpt lat="45.16491" lon="4.93126">
        <ele>232.54200744629</ele>
        <time>2010-10-16T14:32:38Z</time>
      </trkpt>
      <trkpt lat="45.16431" lon="4.93126">
        <ele>234.2559967041</ele>
        <time>2010-10-16T14:32:48Z</time>
      </trkpt>
      <trkpt lat="45.16387" lon="4.93141">
        <ele>233.82099914551</ele>
        <time>2010-10-16T14:32:55Z</time>
      </trkpt>
      <trkpt lat="45.16354" lon="4.93157">
        <ele>232.94400024414</ele>
        <time>2010-10-16T14:33:00Z</time>
      </trkpt>
      <trkpt lat="45.16297" lon="4.93183">
        <ele>231.88800048828</ele>
        <time>2010-10-16T14:33:08Z</time>
      </trkpt>
      <trkpt lat="45.16259" lon="4.93191">
        <ele>231.71699523926</ele>
        <time>2010-10-16T14:33:13Z</time>
      </trkpt>
      <trkpt lat="45.162" lon="4.93191">
        <ele>232.58200073242</ele>
        <time>2010-10-16T14:33:21Z</time>
      </trkpt>
      <trkpt lat="45.16155" lon="4.93193">
        <ele>234.27200317383</ele>
        <time>2010-10-16T14:33:28Z</time>
      </trkpt>
      <trkpt lat="45.16108" lon="4.93199">
        <ele>234.11599731445</ele>
        <time>2010-10-16T14:33:35Z</time>
      </trkpt>
      <trkpt lat="45.16046" lon="4.93209">
        <ele>232.60299682617</ele>
        <time>2010-10-16T14:33:43Z</time>
      </trkpt>
      <trkpt lat="45.16012" lon="4.9321">
        <ele>232.40600585938</ele>
        <time>2010-10-16T14:33:48Z</time>
      </trkpt>
      <trkpt lat="45.15999" lon="4.93209">
        <ele>232.4049987793</ele>
        <time>2010-10-16T14:33:50Z</time>
      </trkpt>
      <trkpt lat="45.15948" lon="4.93206">
        <ele>232.55999755859</ele>
        <time>2010-10-16T14:33:57Z</time>
      </trkpt>
      <trkpt lat="45.15892" lon="4.932">
        <ele>233.17599487305</ele>
        <time>2010-10-16T14:34:05Z</time>
      </trkpt>
      <trkpt lat="45.15815" lon="4.93193">
        <ele>234.64700317383</ele>
        <time>2010-10-16T14:34:16Z</time>
      </trkpt>
      <trkpt lat="45.15754" lon="4.93188">
        <ele>236.17999267578</ele>
        <time>2010-10-16T14:34:25Z</time>
      </trkpt>
      <trkpt lat="45.15701" lon="4.93181">
        <ele>237.49600219727</ele>
        <time>2010-10-16T14:34:33Z</time>
      </trkpt>
      <trkpt lat="45.15666" lon="4.93166">
        <ele>238.81500244141</ele>
        <time>2010-10-16T14:34:38Z</time>
      </trkpt>
      <trkpt lat="45.15632" lon="4.93149">
        <ele>240.30400085449</ele>
        <time>2010-10-16T14:34:43Z</time>
      </trkpt>
      <trkpt lat="45.15601" lon="4.93132">
        <ele>241.30999755859</ele>
        <time>2010-10-16T14:34:47Z</time>
      </trkpt>
      <trkpt lat="45.15565" lon="4.93113">
        <ele>243.32699584961</ele>
        <time>2010-10-16T14:34:51Z</time>
      </trkpt>
      <trkpt lat="45.15556" lon="4.93108">
        <ele>243.46699523926</ele>
        <time>2010-10-16T14:34:52Z</time>
      </trkpt>
      <trkpt lat="45.1551" lon="4.93082">
        <ele>246.16299438477</ele>
        <time>2010-10-16T14:34:57Z</time>
      </trkpt>
      <trkpt lat="45.15473" lon="4.93061">
        <ele>247.80200195312</ele>
        <time>2010-10-16T14:35:01Z</time>
      </trkpt>
      <trkpt lat="45.15433" lon="4.93039">
        <ele>249.26100158691</ele>
        <time>2010-10-16T14:35:06Z</time>
      </trkpt>
      <trkpt lat="45.1541" lon="4.9303">
        <ele>249.05000305176</ele>
        <time>2010-10-16T14:35:09Z</time>
      </trkpt>
      <trkpt lat="45.15386" lon="4.93026">
        <ele>248.12300109863</ele>
        <time>2010-10-16T14:35:12Z</time>
      </trkpt>
      <trkpt lat="45.15334" lon="4.93034">
        <ele>245.37199401856</ele>
        <time>2010-10-16T14:35:18Z</time>
      </trkpt>
      <trkpt lat="45.15281" lon="4.93048">
        <ele>242.59899902344</ele>
        <time>2010-10-16T14:35:24Z</time>
      </trkpt>
      <trkpt lat="45.15207" lon="4.93065">
        <ele>239.21099853516</ele>
        <time>2010-10-16T14:35:32Z</time>
      </trkpt>
      <trkpt lat="45.15136" lon="4.93076">
        <ele>237.10699462891</ele>
        <time>2010-10-16T14:35:39Z</time>
      </trkpt>
      <trkpt lat="45.15086" lon="4.93083">
        <ele>236.58099365234</ele>
        <time>2010-10-16T14:35:44Z</time>
      </trkpt>
      <trkpt lat="45.15032" lon="4.93092">
        <ele>236.50100708008</ele>
        <time>2010-10-16T14:35:50Z</time>
      </trkpt>
      <trkpt lat="45.14986" lon="4.93101">
        <ele>237.44200134277</ele>
        <time>2010-10-16T14:35:56Z</time>
      </trkpt>
      <trkpt lat="45.14941" lon="4.93109">
        <ele>238.25100708008</ele>
        <time>2010-10-16T14:36:03Z</time>
      </trkpt>
      <trkpt lat="45.14873" lon="4.93122">
        <ele>238.74200439453</ele>
        <time>2010-10-16T14:36:13Z</time>
      </trkpt>
      <trkpt lat="45.14822" lon="4.93149">
        <ele>239.11700439453</ele>
        <time>2010-10-16T14:36:21Z</time>
      </trkpt>
      <trkpt lat="45.1476" lon="4.93185">
        <ele>240.17900085449</ele>
        <time>2010-10-16T14:36:31Z</time>
      </trkpt>
      <trkpt lat="45.14691" lon="4.93229">
        <ele>240.71099853516</ele>
        <time>2010-10-16T14:36:42Z</time>
      </trkpt>
      <trkpt lat="45.14622" lon="4.93282">
        <ele>240.01499938965</ele>
        <time>2010-10-16T14:36:53Z</time>
      </trkpt>
      <trkpt lat="45.1457" lon="4.93339">
        <ele>239.09800720215</ele>
        <time>2010-10-16T14:37:02Z</time>
      </trkpt>
      <trkpt lat="45.14505" lon="4.93413">
        <ele>238.97500610352</ele>
        <time>2010-10-16T14:37:13Z</time>
      </trkpt>
      <trkpt lat="45.14457" lon="4.93468">
        <ele>240.37600708008</ele>
        <time>2010-10-16T14:37:22Z</time>
      </trkpt>
      <trkpt lat="45.14407" lon="4.93526">
        <ele>242.34100341797</ele>
        <time>2010-10-16T14:37:32Z</time>
      </trkpt>
      <trkpt lat="45.14364" lon="4.93572">
        <ele>243.88299560547</ele>
        <time>2010-10-16T14:37:41Z</time>
      </trkpt>
      <trkpt lat="45.1432" lon="4.93615">
        <ele>245.53999328613</ele>
        <time>2010-10-16T14:37:50Z</time>
      </trkpt>
      <trkpt lat="45.14296" lon="4.93638">
        <ele>246.61000061035</ele>
        <time>2010-10-16T14:37:55Z</time>
      </trkpt>
      <trkpt lat="45.14267" lon="4.93666">
        <ele>247.73100280762</ele>
        <time>2010-10-16T14:38:01Z</time>
      </trkpt>
      <trkpt lat="45.14218" lon="4.93712">
        <ele>249.34700012207</ele>
        <time>2010-10-16T14:38:11Z</time>
      </trkpt>
      <trkpt lat="45.14183" lon="4.93746">
        <ele>251.03399658203</ele>
        <time>2010-10-16T14:38:19Z</time>
      </trkpt>
      <trkpt lat="45.14165" lon="4.93762">
        <ele>251.76499938965</ele>
        <time>2010-10-16T14:38:23Z</time>
      </trkpt>
      <trkpt lat="45.14153" lon="4.93769">
        <ele>252.56300354004</ele>
        <time>2010-10-16T14:38:26Z</time>
      </trkpt>
      <trkpt lat="45.14137" lon="4.93788">
        <ele>253.37199401856</ele>
        <time>2010-10-16T14:38:31Z</time>
      </trkpt>
      <trkpt lat="45.14123" lon="4.93823">
        <ele>255.21600341797</ele>
        <time>2010-10-16T14:38:38Z</time>
      </trkpt>
      <trkpt lat="45.14121" lon="4.93828">
        <ele>255.49499511719</ele>
        <time>2010-10-16T14:38:39Z</time>
      </trkpt>
      <trkpt lat="45.14103" lon="4.93871">
        <ele>257.16198730469</ele>
        <time>2010-10-16T14:38:47Z</time>
      </trkpt>
      <trkpt lat="45.14082" lon="4.93924">
        <ele>259.69000244141</ele>
        <time>2010-10-16T14:38:56Z</time>
      </trkpt>
      <trkpt lat="45.14058" lon="4.93983">
        <ele>262.18099975586</ele>
        <time>2010-10-16T14:39:05Z</time>
      </trkpt>
      <trkpt lat="45.14038" lon="4.94029">
        <ele>264.36401367188</ele>
        <time>2010-10-16T14:39:12Z</time>
      </trkpt>
      <trkpt lat="45.14016" lon="4.94081">
        <ele>266.5719909668</ele>
        <time>2010-10-16T14:39:20Z</time>
      </trkpt>
      <trkpt lat="45.13998" lon="4.94126">
        <ele>268.35900878906</ele>
        <time>2010-10-16T14:39:27Z</time>
      </trkpt>
      <trkpt lat="45.13971" lon="4.94185">
        <ele>270.21899414062</ele>
        <time>2010-10-16T14:39:36Z</time>
      </trkpt>
      <trkpt lat="45.13943" lon="4.94223">
        <ele>271.36499023438</ele>
        <time>2010-10-16T14:39:42Z</time>
      </trkpt>
      <trkpt lat="45.13902" lon="4.94268">
        <ele>271.15200805664</ele>
        <time>2010-10-16T14:39:50Z</time>
      </trkpt>
      <trkpt lat="45.13864" lon="4.94313">
        <ele>270.79400634766</ele>
        <time>2010-10-16T14:39:57Z</time>
      </trkpt>
      <trkpt lat="45.13834" lon="4.94358">
        <ele>269.94100952148</ele>
        <time>2010-10-16T14:40:03Z</time>
      </trkpt>
      <trkpt lat="45.13812" lon="4.9441">
        <ele>269.6549987793</ele>
        <time>2010-10-16T14:40:09Z</time>
      </trkpt>
      <trkpt lat="45.13793" lon="4.94464">
        <ele>269.21798706055</ele>
        <time>2010-10-16T14:40:15Z</time>
      </trkpt>
      <trkpt lat="45.13777" lon="4.94512">
        <ele>268.66900634766</ele>
        <time>2010-10-16T14:40:20Z</time>
      </trkpt>
      <trkpt lat="45.13763" lon="4.9455">
        <ele>268.25900268555</ele>
        <time>2010-10-16T14:40:24Z</time>
      </trkpt>
      <trkpt lat="45.13744" lon="4.94597">
        <ele>268.09201049805</ele>
        <time>2010-10-16T14:40:29Z</time>
      </trkpt>
      <trkpt lat="45.13712" lon="4.94651">
        <ele>268.98901367188</ele>
        <time>2010-10-16T14:40:36Z</time>
      </trkpt>
      <trkpt lat="45.13684" lon="4.94692">
        <ele>270.20498657227</ele>
        <time>2010-10-16T14:40:42Z</time>
      </trkpt>
      <trkpt lat="45.13675" lon="4.94704">
        <ele>270.42700195312</ele>
        <time>2010-10-16T14:40:44Z</time>
      </trkpt>
      <trkpt lat="45.13642" lon="4.94743">
        <ele>271.82998657227</ele>
        <time>2010-10-16T14:40:51Z</time>
      </trkpt>
      <trkpt lat="45.13614" lon="4.94767">
        <ele>272.78100585938</ele>
        <time>2010-10-16T14:40:57Z</time>
      </trkpt>
      <trkpt lat="45.1358" lon="4.9479">
        <ele>274.68099975586</ele>
        <time>2010-10-16T14:41:05Z</time>
      </trkpt>
      <trkpt lat="45.13547" lon="4.94805">
        <ele>273.90301513672</ele>
        <time>2010-10-16T14:41:12Z</time>
      </trkpt>
      <trkpt lat="45.13536" lon="4.94811">
        <ele>273.41400146484</ele>
        <time>2010-10-16T14:41:14Z</time>
      </trkpt>
      <trkpt lat="45.13525" lon="4.94832">
        <ele>273.51501464844</ele>
        <time>2010-10-16T14:41:18Z</time>
      </trkpt>
      <trkpt lat="45.13522" lon="4.94838">
        <ele>274.27099609375</ele>
        <time>2010-10-16T14:41:22Z</time>
      </trkpt>
      <trkpt lat="45.13522" lon="4.94838">
        <ele>274.20999145508</ele>
        <time>2010-10-16T14:41:24Z</time>
      </trkpt>
      <trkpt lat="45.13523" lon="4.94842">
        <ele>274.64001464844</ele>
        <time>2010-10-16T14:41:40Z</time>
      </trkpt>
      <trkpt lat="45.13527" lon="4.9484">
        <ele>275.01800537109</ele>
        <time>2010-10-16T14:41:44Z</time>
      </trkpt>
      <trkpt lat="45.13528" lon="4.94837">
        <ele>274.6369934082</ele>
        <time>2010-10-16T14:41:47Z</time>
      </trkpt>
      <trkpt lat="45.13527" lon="4.94833">
        <ele>274.44299316406</ele>
        <time>2010-10-16T14:42:04Z</time>
      </trkpt>
      <trkpt lat="45.13527" lon="4.94828">
        <ele>274.30200195312</ele>
        <time>2010-10-16T14:42:51Z</time>
      </trkpt>
      <trkpt lat="45.13528" lon="4.94824">
        <ele>274.10198974609</ele>
        <time>2010-10-16T14:42:53Z</time>
      </trkpt>
      <trkpt lat="45.13524" lon="4.94811">
        <ele>273.09100341797</ele>
        <time>2010-10-16T14:42:59Z</time>
      </trkpt>
      <trkpt lat="45.13523" lon="4.94812">
        <ele>273.11801147461</ele>
        <time>2010-10-16T14:43:02Z</time>
      </trkpt>
      <trkpt lat="45.13519" lon="4.94814">
        <ele>273.2619934082</ele>
        <time>2010-10-16T14:43:07Z</time>
      </trkpt>
      <trkpt lat="45.13506" lon="4.94813">
        <ele>272.35900878906</ele>
        <time>2010-10-16T14:43:12Z</time>
      </trkpt>
      <trkpt lat="45.13479" lon="4.94814">
        <ele>271.28298950195</ele>
        <time>2010-10-16T14:43:18Z</time>
      </trkpt>
      <trkpt lat="45.13454" lon="4.94816">
        <ele>270.36599731445</ele>
        <time>2010-10-16T14:43:23Z</time>
      </trkpt>
      <trkpt lat="45.1342" lon="4.94818">
        <ele>268.68499755859</ele>
        <time>2010-10-16T14:43:29Z</time>
      </trkpt>
      <trkpt lat="45.13415" lon="4.94818">
        <ele>268.67098999023</ele>
        <time>2010-10-16T14:43:30Z</time>
      </trkpt>
      <trkpt lat="45.13387" lon="4.94822">
        <ele>267.64999389648</ele>
        <time>2010-10-16T14:43:35Z</time>
      </trkpt>
      <trkpt lat="45.13338" lon="4.94848">
        <ele>265.49099731445</ele>
        <time>2010-10-16T14:43:43Z</time>
      </trkpt>
      <trkpt lat="45.13326" lon="4.94857">
        <ele>264.98098754883</ele>
        <time>2010-10-16T14:43:45Z</time>
      </trkpt>
      <trkpt lat="45.13305" lon="4.9489">
        <ele>263.56600952148</ele>
        <time>2010-10-16T14:43:49Z</time>
      </trkpt>
      <trkpt lat="45.13298" lon="4.94927">
        <ele>261.58099365234</ele>
        <time>2010-10-16T14:43:52Z</time>
      </trkpt>
      <trkpt lat="45.13297" lon="4.94953">
        <ele>260.45901489258</ele>
        <time>2010-10-16T14:43:54Z</time>
      </trkpt>
      <trkpt lat="45.13296" lon="4.94967">
        <ele>259.78100585938</ele>
        <time>2010-10-16T14:43:55Z</time>
      </trkpt>
      <trkpt lat="45.13287" lon="4.95008">
        <ele>258.26599121094</ele>
        <time>2010-10-16T14:43:58Z</time>
      </trkpt>
      <trkpt lat="45.13268" lon="4.95044">
        <ele>256.12899780273</ele>
        <time>2010-10-16T14:44:01Z</time>
      </trkpt>
      <trkpt lat="45.13259" lon="4.95053">
        <ele>255.84700012207</ele>
        <time>2010-10-16T14:44:02Z</time>
      </trkpt>
      <trkpt lat="45.1325" lon="4.95062">
        <ele>255.60400390625</ele>
        <time>2010-10-16T14:44:03Z</time>
      </trkpt>
      <trkpt lat="45.13203" lon="4.95096">
        <ele>253.62800598144</ele>
        <time>2010-10-16T14:44:08Z</time>
      </trkpt>
      <trkpt lat="45.13183" lon="4.95111">
        <ele>252.35099792481</ele>
        <time>2010-10-16T14:44:10Z</time>
      </trkpt>
      <trkpt lat="45.13157" lon="4.95162">
        <ele>248.87399291992</ele>
        <time>2010-10-16T14:44:14Z</time>
      </trkpt>
      <trkpt lat="45.13154" lon="4.95178">
        <ele>248.44799804688</ele>
        <time>2010-10-16T14:44:15Z</time>
      </trkpt>
      <trkpt lat="45.1314" lon="4.95281">
        <ele>244.63600158691</ele>
        <time>2010-10-16T14:44:21Z</time>
      </trkpt>
      <trkpt lat="45.13124" lon="4.95352">
        <ele>242.36399841309</ele>
        <time>2010-10-16T14:44:25Z</time>
      </trkpt>
      <trkpt lat="45.13094" lon="4.95403">
        <ele>242.10299682617</ele>
        <time>2010-10-16T14:44:29Z</time>
      </trkpt>
      <trkpt lat="45.13085" lon="4.9541">
        <ele>242.77699279785</ele>
        <time>2010-10-16T14:44:30Z</time>
      </trkpt>
      <trkpt lat="45.13068" lon="4.95423">
        <ele>243.82800292969</ele>
        <time>2010-10-16T14:44:32Z</time>
      </trkpt>
      <trkpt lat="45.1303" lon="4.95446">
        <ele>246.02499389648</ele>
        <time>2010-10-16T14:44:37Z</time>
      </trkpt>
      <trkpt lat="45.13" lon="4.95456">
        <ele>247.75199890137</ele>
        <time>2010-10-16T14:44:41Z</time>
      </trkpt>
      <trkpt lat="45.12993" lon="4.95459">
        <ele>247.96200561523</ele>
        <time>2010-10-16T14:44:42Z</time>
      </trkpt>
      <trkpt lat="45.12971" lon="4.95468">
        <ele>249.29800415039</ele>
        <time>2010-10-16T14:44:45Z</time>
      </trkpt>
      <trkpt lat="45.12957" lon="4.95474">
        <ele>250.02499389648</ele>
        <time>2010-10-16T14:44:47Z</time>
      </trkpt>
      <trkpt lat="45.1295" lon="4.95477">
        <ele>250.26300048828</ele>
        <time>2010-10-16T14:44:48Z</time>
      </trkpt>
      <trkpt lat="45.12943" lon="4.9548">
        <ele>250.53799438477</ele>
        <time>2010-10-16T14:44:49Z</time>
      </trkpt>
      <trkpt lat="45.129" lon="4.95499">
        <ele>252.21099853516</ele>
        <time>2010-10-16T14:44:54Z</time>
      </trkpt>
      <trkpt lat="45.12863" lon="4.9552">
        <ele>254.06399536133</ele>
        <time>2010-10-16T14:44:58Z</time>
      </trkpt>
      <trkpt lat="45.12818" lon="4.95553">
        <ele>255.87199401856</ele>
        <time>2010-10-16T14:45:03Z</time>
      </trkpt>
      <trkpt lat="45.12803" lon="4.95567">
        <ele>256.43798828125</ele>
        <time>2010-10-16T14:45:05Z</time>
      </trkpt>
      <trkpt lat="45.12796" lon="4.95574">
        <ele>256.67498779297</ele>
        <time>2010-10-16T14:45:06Z</time>
      </trkpt>
      <trkpt lat="45.12764" lon="4.9561">
        <ele>256.17401123047</ele>
        <time>2010-10-16T14:45:11Z</time>
      </trkpt>
      <trkpt lat="45.12725" lon="4.95658">
        <ele>253.76800537109</ele>
        <time>2010-10-16T14:45:17Z</time>
      </trkpt>
      <trkpt lat="45.12709" lon="4.95674">
        <ele>252.88400268555</ele>
        <time>2010-10-16T14:45:19Z</time>
      </trkpt>
      <trkpt lat="45.12672" lon="4.95697">
        <ele>250.21099853516</ele>
        <time>2010-10-16T14:45:23Z</time>
      </trkpt>
      <trkpt lat="45.12631" lon="4.95712">
        <ele>247.54499816894</ele>
        <time>2010-10-16T14:45:27Z</time>
      </trkpt>
      <trkpt lat="45.12598" lon="4.9575">
        <ele>244.53399658203</ele>
        <time>2010-10-16T14:45:31Z</time>
      </trkpt>
      <trkpt lat="45.12548" lon="4.95862">
        <ele>238.80499267578</ele>
        <time>2010-10-16T14:45:39Z</time>
      </trkpt>
      <trkpt lat="45.12516" lon="4.95931">
        <ele>235.67199707031</ele>
        <time>2010-10-16T14:45:44Z</time>
      </trkpt>
      <trkpt lat="45.12498" lon="4.95973">
        <ele>234.27600097656</ele>
        <time>2010-10-16T14:45:47Z</time>
      </trkpt>
      <trkpt lat="45.12467" lon="4.96042">
        <ele>231.33399963379</ele>
        <time>2010-10-16T14:45:52Z</time>
      </trkpt>
      <trkpt lat="45.12433" lon="4.96121">
        <ele>230.3869934082</ele>
        <time>2010-10-16T14:45:58Z</time>
      </trkpt>
      <trkpt lat="45.12399" lon="4.96195">
        <ele>228.47999572754</ele>
        <time>2010-10-16T14:46:04Z</time>
      </trkpt>
      <trkpt lat="45.12363" lon="4.96256">
        <ele>224.2619934082</ele>
        <time>2010-10-16T14:46:09Z</time>
      </trkpt>
      <trkpt lat="45.12323" lon="4.96297">
        <ele>220.31399536133</ele>
        <time>2010-10-16T14:46:13Z</time>
      </trkpt>
      <trkpt lat="45.12263" lon="4.96335">
        <ele>214.92999267578</ele>
        <time>2010-10-16T14:46:18Z</time>
      </trkpt>
      <trkpt lat="45.12172" lon="4.9638">
        <ele>207.02099609375</ele>
        <time>2010-10-16T14:46:25Z</time>
      </trkpt>
      <trkpt lat="45.12145" lon="4.9639">
        <ele>204.69299316406</ele>
        <time>2010-10-16T14:46:27Z</time>
      </trkpt>
      <trkpt lat="45.12131" lon="4.96395">
        <ele>203.90199279785</ele>
        <time>2010-10-16T14:46:28Z</time>
      </trkpt>
      <trkpt lat="45.12091" lon="4.96411">
        <ele>201.72900390625</ele>
        <time>2010-10-16T14:46:31Z</time>
      </trkpt>
      <trkpt lat="45.12043" lon="4.96454">
        <ele>197.72099304199</ele>
        <time>2010-10-16T14:46:35Z</time>
      </trkpt>
      <trkpt lat="45.11994" lon="4.96498">
        <ele>192.10899353027</ele>
        <time>2010-10-16T14:46:39Z</time>
      </trkpt>
      <trkpt lat="45.11979" lon="4.96503">
        <ele>190.96600341797</ele>
        <time>2010-10-16T14:46:40Z</time>
      </trkpt>
      <trkpt lat="45.11936" lon="4.96517">
        <ele>189.20199584961</ele>
        <time>2010-10-16T14:46:43Z</time>
      </trkpt>
      <trkpt lat="45.11899" lon="4.96548">
        <ele>185.85400390625</ele>
        <time>2010-10-16T14:46:46Z</time>
      </trkpt>
      <trkpt lat="45.11874" lon="4.96596">
        <ele>184.53500366211</ele>
        <time>2010-10-16T14:46:49Z</time>
      </trkpt>
      <trkpt lat="45.11843" lon="4.96696">
        <ele>183.20899963379</ele>
        <time>2010-10-16T14:46:55Z</time>
      </trkpt>
      <trkpt lat="45.11838" lon="4.96711">
        <ele>182.98399353027</ele>
        <time>2010-10-16T14:46:56Z</time>
      </trkpt>
      <trkpt lat="45.11812" lon="4.96765">
        <ele>182.13499450684</ele>
        <time>2010-10-16T14:47:00Z</time>
      </trkpt>
      <trkpt lat="45.11777" lon="4.96814">
        <ele>181.80299377441</ele>
        <time>2010-10-16T14:47:05Z</time>
      </trkpt>
      <trkpt lat="45.11766" lon="4.96826">
        <ele>181.92500305176</ele>
        <time>2010-10-16T14:47:07Z</time>
      </trkpt>
      <trkpt lat="45.1175" lon="4.96827">
        <ele>182.70899963379</ele>
        <time>2010-10-16T14:47:11Z</time>
      </trkpt>
      <trkpt lat="45.11746" lon="4.96825">
        <ele>182.89900207519</ele>
        <time>2010-10-16T14:47:14Z</time>
      </trkpt>
      <trkpt lat="45.11746" lon="4.96824">
        <ele>182.94799804688</ele>
        <time>2010-10-16T14:47:15Z</time>
      </trkpt>
      <trkpt lat="45.11744" lon="4.96823">
        <ele>182.57699584961</ele>
        <time>2010-10-16T14:50:09Z</time>
      </trkpt>
      <trkpt lat="45.1174" lon="4.96823">
        <ele>182.59599304199</ele>
        <time>2010-10-16T14:50:11Z</time>
      </trkpt>
      <trkpt lat="45.11724" lon="4.96811">
        <ele>182.41900634766</ele>
        <time>2010-10-16T14:50:17Z</time>
      </trkpt>
      <trkpt lat="45.11717" lon="4.96803">
        <ele>182.38999938965</ele>
        <time>2010-10-16T14:50:20Z</time>
      </trkpt>
      <trkpt lat="45.11715" lon="4.968">
        <ele>182.34300231934</ele>
        <time>2010-10-16T14:50:21Z</time>
      </trkpt>
      <trkpt lat="45.117" lon="4.96777">
        <ele>182.20399475098</ele>
        <time>2010-10-16T14:50:27Z</time>
      </trkpt>
      <trkpt lat="45.11678" lon="4.96739">
        <ele>181.17799377441</ele>
        <time>2010-10-16T14:50:34Z</time>
      </trkpt>
      <trkpt lat="45.1165" lon="4.96677">
        <ele>180.62399291992</ele>
        <time>2010-10-16T14:50:43Z</time>
      </trkpt>
      <trkpt lat="45.11623" lon="4.96607">
        <ele>180.24800109863</ele>
        <time>2010-10-16T14:50:52Z</time>
      </trkpt>
      <trkpt lat="45.11597" lon="4.9654">
        <ele>180.26400756836</ele>
        <time>2010-10-16T14:51:01Z</time>
      </trkpt>
      <trkpt lat="45.11586" lon="4.96514">
        <ele>180.33599853516</ele>
        <time>2010-10-16T14:51:05Z</time>
      </trkpt>
      <trkpt lat="45.11581" lon="4.96488">
        <ele>180.5059967041</ele>
        <time>2010-10-16T14:51:09Z</time>
      </trkpt>
      <trkpt lat="45.11583" lon="4.96457">
        <ele>181.41799926758</ele>
        <time>2010-10-16T14:51:15Z</time>
      </trkpt>
      <trkpt lat="45.11577" lon="4.9645">
        <ele>181.91000366211</ele>
        <time>2010-10-16T14:51:20Z</time>
      </trkpt>
      <trkpt lat="45.11576" lon="4.9645">
        <ele>181.89199829102</ele>
        <time>2010-10-16T14:51:21Z</time>
      </trkpt>
      <trkpt lat="45.11575" lon="4.9645">
        <ele>181.83399963379</ele>
        <time>2010-10-16T14:51:33Z</time>
      </trkpt>
      <trkpt lat="45.11575" lon="4.9645">
        <ele>181.84399414062</ele>
        <time>2010-10-16T14:51:34Z</time>
      </trkpt>
      <trkpt lat="45.11574" lon="4.96451">
        <ele>181.7559967041</ele>
        <time>2010-10-16T14:51:36Z</time>
      </trkpt>
      <trkpt lat="45.11573" lon="4.96453">
        <ele>181.64199829102</ele>
        <time>2010-10-16T14:51:41Z</time>
      </trkpt>
      <trkpt lat="45.11564" lon="4.96448">
        <ele>181.59100341797</ele>
        <time>2010-10-16T14:52:06Z</time>
      </trkpt>
      <trkpt lat="45.1156" lon="4.96432">
        <ele>181.75399780273</ele>
        <time>2010-10-16T14:52:11Z</time>
      </trkpt>
      <trkpt lat="45.11563" lon="4.96429">
        <ele>182.46200561523</ele>
        <time>2010-10-16T14:52:13Z</time>
      </trkpt>
      <trkpt lat="45.11567" lon="4.9643">
        <ele>182.58599853516</ele>
        <time>2010-10-16T14:52:19Z</time>
      </trkpt>
      <trkpt lat="45.11568" lon="4.96432">
        <ele>182.64799499512</ele>
        <time>2010-10-16T14:52:26Z</time>
      </trkpt>
      <trkpt lat="45.11569" lon="4.96433">
        <ele>182.71699523926</ele>
        <time>2010-10-16T14:52:30Z</time>
      </trkpt>
    </trkseg>
  </trk>
</gpx>